<?xml version="1.0" encoding="UTF-8" standalone="no" ?>
<gpx xmlns="http://www.topografix.com/GPX/1/1" xmlns:xsi="http://www.w3.org/2001/XMLSchema-instance" xsi:schemaLocation="http://www.topografix.com/GPX/1/1 http://www.topografix.com/GPX/1/1/gpx.xsd" version="1.1" creator="VisuGPX - https://www.visugpx.com">
  <metadata>
    <name>orgy la villote orgy</name>
  </metadata>
  <trk>
    <name><![CDATA[orgy la villote orgy_1]]></name>
    <trkseg>
      <trkpt lat="47.76258" lon="3.51018">
        <ele>198</ele>
        <time>2019-12-14T11:35:09Z</time>
      </trkpt>
      <trkpt lat="47.76261" lon="3.51018">
        <ele>196</ele>
        <time>2019-12-14T11:35:15Z</time>
      </trkpt>
      <trkpt lat="47.76269" lon="3.51021">
        <ele>202</ele>
        <time>2019-12-14T11:35:20Z</time>
      </trkpt>
      <trkpt lat="47.76275" lon="3.51025">
        <ele>200</ele>
        <time>2019-12-14T11:35:26Z</time>
      </trkpt>
      <trkpt lat="47.76278" lon="3.5103">
        <ele>198</ele>
        <time>2019-12-14T11:35:31Z</time>
      </trkpt>
      <trkpt lat="47.76275" lon="3.51029">
        <ele>197</ele>
        <time>2019-12-14T11:35:36Z</time>
      </trkpt>
      <trkpt lat="47.76274" lon="3.51026">
        <ele>198</ele>
        <time>2019-12-14T11:35:41Z</time>
      </trkpt>
      <trkpt lat="47.76273" lon="3.51025">
        <ele>197</ele>
        <time>2019-12-14T11:35:47Z</time>
      </trkpt>
      <trkpt lat="47.76273" lon="3.51026">
        <ele>198</ele>
        <time>2019-12-14T11:35:52Z</time>
      </trkpt>
      <trkpt lat="47.76273" lon="3.51026">
        <ele>198</ele>
        <time>2019-12-14T11:35:57Z</time>
      </trkpt>
      <trkpt lat="47.76273" lon="3.51026">
        <ele>199</ele>
        <time>2019-12-14T11:36:03Z</time>
      </trkpt>
      <trkpt lat="47.76273" lon="3.51026">
        <ele>198</ele>
        <time>2019-12-14T11:36:08Z</time>
      </trkpt>
      <trkpt lat="47.76273" lon="3.51026">
        <ele>198</ele>
        <time>2019-12-14T11:36:14Z</time>
      </trkpt>
      <trkpt lat="47.76273" lon="3.51026">
        <ele>198</ele>
        <time>2019-12-14T11:36:19Z</time>
      </trkpt>
      <trkpt lat="47.76273" lon="3.51026">
        <ele>198</ele>
        <time>2019-12-14T11:36:24Z</time>
      </trkpt>
      <trkpt lat="47.76273" lon="3.51026">
        <ele>198</ele>
        <time>2019-12-14T11:36:30Z</time>
      </trkpt>
      <trkpt lat="47.76273" lon="3.51026">
        <ele>198</ele>
        <time>2019-12-14T11:36:36Z</time>
      </trkpt>
      <trkpt lat="47.76273" lon="3.51026">
        <ele>199</ele>
        <time>2019-12-14T11:36:42Z</time>
      </trkpt>
      <trkpt lat="47.76273" lon="3.51026">
        <ele>199</ele>
        <time>2019-12-14T11:36:47Z</time>
      </trkpt>
      <trkpt lat="47.76273" lon="3.51026">
        <ele>199</ele>
        <time>2019-12-14T11:36:52Z</time>
      </trkpt>
      <trkpt lat="47.76273" lon="3.51026">
        <ele>199</ele>
        <time>2019-12-14T11:36:58Z</time>
      </trkpt>
      <trkpt lat="47.76273" lon="3.51026">
        <ele>199</ele>
        <time>2019-12-14T11:37:04Z</time>
      </trkpt>
      <trkpt lat="47.76273" lon="3.51026">
        <ele>199</ele>
        <time>2019-12-14T11:37:09Z</time>
      </trkpt>
      <trkpt lat="47.76273" lon="3.51026">
        <ele>199</ele>
        <time>2019-12-14T11:37:15Z</time>
      </trkpt>
      <trkpt lat="47.76274" lon="3.51028">
        <ele>202</ele>
        <time>2019-12-14T11:37:20Z</time>
      </trkpt>
      <trkpt lat="47.76283" lon="3.51029">
        <ele>203</ele>
        <time>2019-12-14T11:37:26Z</time>
      </trkpt>
      <trkpt lat="47.7629" lon="3.51029">
        <ele>209</ele>
        <time>2019-12-14T11:37:31Z</time>
      </trkpt>
      <trkpt lat="47.76295" lon="3.5103">
        <ele>209</ele>
        <time>2019-12-14T11:37:36Z</time>
      </trkpt>
      <trkpt lat="47.76303" lon="3.51032">
        <ele>208</ele>
        <time>2019-12-14T11:37:42Z</time>
      </trkpt>
      <trkpt lat="47.76308" lon="3.51033">
        <ele>207</ele>
        <time>2019-12-14T11:37:47Z</time>
      </trkpt>
      <trkpt lat="47.76315" lon="3.51035">
        <ele>207</ele>
        <time>2019-12-14T11:37:53Z</time>
      </trkpt>
      <trkpt lat="47.76323" lon="3.51036">
        <ele>206</ele>
        <time>2019-12-14T11:37:58Z</time>
      </trkpt>
      <trkpt lat="47.76331" lon="3.51037">
        <ele>206</ele>
        <time>2019-12-14T11:38:04Z</time>
      </trkpt>
      <trkpt lat="47.76335" lon="3.51038">
        <ele>205</ele>
        <time>2019-12-14T11:38:09Z</time>
      </trkpt>
      <trkpt lat="47.76337" lon="3.51038">
        <ele>206</ele>
        <time>2019-12-14T11:38:15Z</time>
      </trkpt>
      <trkpt lat="47.76342" lon="3.51038">
        <ele>204</ele>
        <time>2019-12-14T11:38:20Z</time>
      </trkpt>
      <trkpt lat="47.76347" lon="3.51035">
        <ele>202</ele>
        <time>2019-12-14T11:38:25Z</time>
      </trkpt>
      <trkpt lat="47.76355" lon="3.51033">
        <ele>204</ele>
        <time>2019-12-14T11:38:31Z</time>
      </trkpt>
      <trkpt lat="47.7636" lon="3.51029">
        <ele>206</ele>
        <time>2019-12-14T11:38:36Z</time>
      </trkpt>
      <trkpt lat="47.76366" lon="3.51028">
        <ele>206</ele>
        <time>2019-12-14T11:38:41Z</time>
      </trkpt>
      <trkpt lat="47.76371" lon="3.51027">
        <ele>206</ele>
        <time>2019-12-14T11:38:47Z</time>
      </trkpt>
      <trkpt lat="47.76377" lon="3.51026">
        <ele>205</ele>
        <time>2019-12-14T11:38:52Z</time>
      </trkpt>
      <trkpt lat="47.76382" lon="3.51025">
        <ele>206</ele>
        <time>2019-12-14T11:38:57Z</time>
      </trkpt>
      <trkpt lat="47.7639" lon="3.51022">
        <ele>205</ele>
        <time>2019-12-14T11:39:03Z</time>
      </trkpt>
      <trkpt lat="47.76395" lon="3.5102">
        <ele>206</ele>
        <time>2019-12-14T11:39:08Z</time>
      </trkpt>
      <trkpt lat="47.76402" lon="3.51016">
        <ele>206</ele>
        <time>2019-12-14T11:39:14Z</time>
      </trkpt>
      <trkpt lat="47.76409" lon="3.51012">
        <ele>204</ele>
        <time>2019-12-14T11:39:19Z</time>
      </trkpt>
      <trkpt lat="47.76416" lon="3.51008">
        <ele>203</ele>
        <time>2019-12-14T11:39:25Z</time>
      </trkpt>
      <trkpt lat="47.76422" lon="3.51008">
        <ele>203</ele>
        <time>2019-12-14T11:39:31Z</time>
      </trkpt>
      <trkpt lat="47.76425" lon="3.51007">
        <ele>201</ele>
        <time>2019-12-14T11:39:37Z</time>
      </trkpt>
      <trkpt lat="47.7643" lon="3.51007">
        <ele>203</ele>
        <time>2019-12-14T11:39:42Z</time>
      </trkpt>
      <trkpt lat="47.76437" lon="3.51006">
        <ele>202</ele>
        <time>2019-12-14T11:39:47Z</time>
      </trkpt>
      <trkpt lat="47.76442" lon="3.51003">
        <ele>198</ele>
        <time>2019-12-14T11:39:52Z</time>
      </trkpt>
      <trkpt lat="47.76446" lon="3.51004">
        <ele>199</ele>
        <time>2019-12-14T11:39:57Z</time>
      </trkpt>
      <trkpt lat="47.76455" lon="3.51002">
        <ele>199</ele>
        <time>2019-12-14T11:40:03Z</time>
      </trkpt>
      <trkpt lat="47.76462" lon="3.51002">
        <ele>198</ele>
        <time>2019-12-14T11:40:08Z</time>
      </trkpt>
      <trkpt lat="47.76468" lon="3.51002">
        <ele>197</ele>
        <time>2019-12-14T11:40:14Z</time>
      </trkpt>
      <trkpt lat="47.76477" lon="3.51003">
        <ele>198</ele>
        <time>2019-12-14T11:40:20Z</time>
      </trkpt>
      <trkpt lat="47.76477" lon="3.51004">
        <ele>198</ele>
        <time>2019-12-14T11:40:25Z</time>
      </trkpt>
      <trkpt lat="47.76477" lon="3.51005">
        <ele>197</ele>
        <time>2019-12-14T11:40:30Z</time>
      </trkpt>
      <trkpt lat="47.76483" lon="3.51008">
        <ele>197</ele>
        <time>2019-12-14T11:40:36Z</time>
      </trkpt>
      <trkpt lat="47.76495" lon="3.51011">
        <ele>202</ele>
        <time>2019-12-14T11:40:42Z</time>
      </trkpt>
      <trkpt lat="47.76501" lon="3.51012">
        <ele>201</ele>
        <time>2019-12-14T11:40:47Z</time>
      </trkpt>
      <trkpt lat="47.76505" lon="3.51013">
        <ele>200</ele>
        <time>2019-12-14T11:40:52Z</time>
      </trkpt>
      <trkpt lat="47.7651" lon="3.51007">
        <ele>199</ele>
        <time>2019-12-14T11:40:58Z</time>
      </trkpt>
      <trkpt lat="47.76516" lon="3.51001">
        <ele>195</ele>
        <time>2019-12-14T11:41:04Z</time>
      </trkpt>
      <trkpt lat="47.76522" lon="3.50996">
        <ele>196</ele>
        <time>2019-12-14T11:41:09Z</time>
      </trkpt>
      <trkpt lat="47.76526" lon="3.50994">
        <ele>196</ele>
        <time>2019-12-14T11:41:14Z</time>
      </trkpt>
      <trkpt lat="47.76529" lon="3.50992">
        <ele>198</ele>
        <time>2019-12-14T11:41:20Z</time>
      </trkpt>
      <trkpt lat="47.76529" lon="3.50991">
        <ele>199</ele>
        <time>2019-12-14T11:41:26Z</time>
      </trkpt>
      <trkpt lat="47.76529" lon="3.50991">
        <ele>199</ele>
        <time>2019-12-14T11:41:32Z</time>
      </trkpt>
      <trkpt lat="47.76529" lon="3.50991">
        <ele>199</ele>
        <time>2019-12-14T11:41:38Z</time>
      </trkpt>
      <trkpt lat="47.76528" lon="3.50991">
        <ele>199</ele>
        <time>2019-12-14T11:41:44Z</time>
      </trkpt>
      <trkpt lat="47.76529" lon="3.5099">
        <ele>197</ele>
        <time>2019-12-14T11:41:49Z</time>
      </trkpt>
      <trkpt lat="47.76529" lon="3.5099">
        <ele>198</ele>
        <time>2019-12-14T11:41:55Z</time>
      </trkpt>
      <trkpt lat="47.76529" lon="3.5099">
        <ele>198</ele>
        <time>2019-12-14T11:42:00Z</time>
      </trkpt>
      <trkpt lat="47.76529" lon="3.5099">
        <ele>198</ele>
        <time>2019-12-14T11:42:05Z</time>
      </trkpt>
      <trkpt lat="47.76529" lon="3.5099">
        <ele>198</ele>
        <time>2019-12-14T11:42:11Z</time>
      </trkpt>
      <trkpt lat="47.76529" lon="3.5099">
        <ele>198</ele>
        <time>2019-12-14T11:42:16Z</time>
      </trkpt>
      <trkpt lat="47.7653" lon="3.50992">
        <ele>197</ele>
        <time>2019-12-14T11:42:22Z</time>
      </trkpt>
      <trkpt lat="47.7653" lon="3.50996">
        <ele>197</ele>
        <time>2019-12-14T11:42:27Z</time>
      </trkpt>
      <trkpt lat="47.7653" lon="3.50996">
        <ele>197</ele>
        <time>2019-12-14T11:42:33Z</time>
      </trkpt>
      <trkpt lat="47.76531" lon="3.50996">
        <ele>198</ele>
        <time>2019-12-14T11:42:39Z</time>
      </trkpt>
      <trkpt lat="47.76531" lon="3.50996">
        <ele>198</ele>
        <time>2019-12-14T11:42:45Z</time>
      </trkpt>
      <trkpt lat="47.76531" lon="3.50996">
        <ele>198</ele>
        <time>2019-12-14T11:42:51Z</time>
      </trkpt>
      <trkpt lat="47.76531" lon="3.50996">
        <ele>198</ele>
        <time>2019-12-14T11:42:56Z</time>
      </trkpt>
      <trkpt lat="47.76531" lon="3.50996">
        <ele>198</ele>
        <time>2019-12-14T11:43:01Z</time>
      </trkpt>
      <trkpt lat="47.76531" lon="3.50996">
        <ele>198</ele>
        <time>2019-12-14T11:43:06Z</time>
      </trkpt>
      <trkpt lat="47.76531" lon="3.50996">
        <ele>198</ele>
        <time>2019-12-14T11:43:12Z</time>
      </trkpt>
      <trkpt lat="47.76531" lon="3.50996">
        <ele>197</ele>
        <time>2019-12-14T11:43:17Z</time>
      </trkpt>
      <trkpt lat="47.76529" lon="3.50988">
        <ele>195</ele>
        <time>2019-12-14T11:43:22Z</time>
      </trkpt>
      <trkpt lat="47.7653" lon="3.5098">
        <ele>196</ele>
        <time>2019-12-14T11:43:28Z</time>
      </trkpt>
      <trkpt lat="47.7653" lon="3.50967">
        <ele>194</ele>
        <time>2019-12-14T11:43:34Z</time>
      </trkpt>
      <trkpt lat="47.76527" lon="3.50957">
        <ele>192</ele>
        <time>2019-12-14T11:43:40Z</time>
      </trkpt>
      <trkpt lat="47.76527" lon="3.50952">
        <ele>191</ele>
        <time>2019-12-14T11:43:45Z</time>
      </trkpt>
      <trkpt lat="47.76527" lon="3.50942">
        <ele>192</ele>
        <time>2019-12-14T11:43:51Z</time>
      </trkpt>
      <trkpt lat="47.76526" lon="3.50932">
        <ele>193</ele>
        <time>2019-12-14T11:43:56Z</time>
      </trkpt>
      <trkpt lat="47.76525" lon="3.50922">
        <ele>191</ele>
        <time>2019-12-14T11:44:01Z</time>
      </trkpt>
      <trkpt lat="47.76524" lon="3.50913">
        <ele>192</ele>
        <time>2019-12-14T11:44:06Z</time>
      </trkpt>
      <trkpt lat="47.76525" lon="3.50904">
        <ele>192</ele>
        <time>2019-12-14T11:44:11Z</time>
      </trkpt>
      <trkpt lat="47.76527" lon="3.50894">
        <ele>195</ele>
        <time>2019-12-14T11:44:17Z</time>
      </trkpt>
      <trkpt lat="47.76527" lon="3.50883">
        <ele>196</ele>
        <time>2019-12-14T11:44:23Z</time>
      </trkpt>
      <trkpt lat="47.76529" lon="3.50872">
        <ele>197</ele>
        <time>2019-12-14T11:44:29Z</time>
      </trkpt>
      <trkpt lat="47.76531" lon="3.5086">
        <ele>197</ele>
        <time>2019-12-14T11:44:35Z</time>
      </trkpt>
      <trkpt lat="47.76533" lon="3.50853">
        <ele>196</ele>
        <time>2019-12-14T11:44:40Z</time>
      </trkpt>
      <trkpt lat="47.76537" lon="3.50844">
        <ele>198</ele>
        <time>2019-12-14T11:44:46Z</time>
      </trkpt>
      <trkpt lat="47.76539" lon="3.50834">
        <ele>197</ele>
        <time>2019-12-14T11:44:52Z</time>
      </trkpt>
      <trkpt lat="47.76544" lon="3.50828">
        <ele>198</ele>
        <time>2019-12-14T11:44:57Z</time>
      </trkpt>
      <trkpt lat="47.76549" lon="3.5082">
        <ele>198</ele>
        <time>2019-12-14T11:45:03Z</time>
      </trkpt>
      <trkpt lat="47.76553" lon="3.5081">
        <ele>200</ele>
        <time>2019-12-14T11:45:08Z</time>
      </trkpt>
      <trkpt lat="47.76555" lon="3.50799">
        <ele>200</ele>
        <time>2019-12-14T11:45:13Z</time>
      </trkpt>
      <trkpt lat="47.76558" lon="3.50791">
        <ele>200</ele>
        <time>2019-12-14T11:45:18Z</time>
      </trkpt>
      <trkpt lat="47.76559" lon="3.50787">
        <ele>202</ele>
        <time>2019-12-14T11:45:24Z</time>
      </trkpt>
      <trkpt lat="47.7656" lon="3.50787">
        <ele>202</ele>
        <time>2019-12-14T11:45:30Z</time>
      </trkpt>
      <trkpt lat="47.76559" lon="3.50787">
        <ele>203</ele>
        <time>2019-12-14T11:45:35Z</time>
      </trkpt>
      <trkpt lat="47.76559" lon="3.50787">
        <ele>203</ele>
        <time>2019-12-14T11:45:41Z</time>
      </trkpt>
      <trkpt lat="47.76559" lon="3.50787">
        <ele>203</ele>
        <time>2019-12-14T11:45:46Z</time>
      </trkpt>
      <trkpt lat="47.76559" lon="3.50788">
        <ele>203</ele>
        <time>2019-12-14T11:45:52Z</time>
      </trkpt>
      <trkpt lat="47.76559" lon="3.50788">
        <ele>203</ele>
        <time>2019-12-14T11:45:58Z</time>
      </trkpt>
      <trkpt lat="47.76559" lon="3.50788">
        <ele>203</ele>
        <time>2019-12-14T11:46:03Z</time>
      </trkpt>
      <trkpt lat="47.76559" lon="3.50788">
        <ele>203</ele>
        <time>2019-12-14T11:46:09Z</time>
      </trkpt>
      <trkpt lat="47.76559" lon="3.50788">
        <ele>203</ele>
        <time>2019-12-14T11:46:14Z</time>
      </trkpt>
      <trkpt lat="47.76559" lon="3.50788">
        <ele>203</ele>
        <time>2019-12-14T11:46:20Z</time>
      </trkpt>
      <trkpt lat="47.76559" lon="3.50788">
        <ele>203</ele>
        <time>2019-12-14T11:46:25Z</time>
      </trkpt>
      <trkpt lat="47.76559" lon="3.50788">
        <ele>203</ele>
        <time>2019-12-14T11:46:31Z</time>
      </trkpt>
      <trkpt lat="47.76559" lon="3.50788">
        <ele>203</ele>
        <time>2019-12-14T11:46:36Z</time>
      </trkpt>
      <trkpt lat="47.76559" lon="3.50788">
        <ele>203</ele>
        <time>2019-12-14T11:46:42Z</time>
      </trkpt>
      <trkpt lat="47.76559" lon="3.50788">
        <ele>203</ele>
        <time>2019-12-14T11:46:47Z</time>
      </trkpt>
      <trkpt lat="47.76559" lon="3.50788">
        <ele>203</ele>
        <time>2019-12-14T11:46:53Z</time>
      </trkpt>
      <trkpt lat="47.76562" lon="3.50786">
        <ele>201</ele>
        <time>2019-12-14T11:46:59Z</time>
      </trkpt>
      <trkpt lat="47.76563" lon="3.50784">
        <ele>201</ele>
        <time>2019-12-14T11:47:05Z</time>
      </trkpt>
      <trkpt lat="47.76564" lon="3.50784">
        <ele>201</ele>
        <time>2019-12-14T11:47:10Z</time>
      </trkpt>
      <trkpt lat="47.76564" lon="3.50784">
        <ele>201</ele>
        <time>2019-12-14T11:47:15Z</time>
      </trkpt>
      <trkpt lat="47.76564" lon="3.50784">
        <ele>201</ele>
        <time>2019-12-14T11:47:21Z</time>
      </trkpt>
      <trkpt lat="47.76564" lon="3.50784">
        <ele>201</ele>
        <time>2019-12-14T11:47:27Z</time>
      </trkpt>
      <trkpt lat="47.76564" lon="3.50784">
        <ele>201</ele>
        <time>2019-12-14T11:47:32Z</time>
      </trkpt>
      <trkpt lat="47.76564" lon="3.50784">
        <ele>201</ele>
        <time>2019-12-14T11:47:38Z</time>
      </trkpt>
      <trkpt lat="47.76564" lon="3.50784">
        <ele>201</ele>
        <time>2019-12-14T11:47:44Z</time>
      </trkpt>
      <trkpt lat="47.76564" lon="3.50784">
        <ele>201</ele>
        <time>2019-12-14T11:47:49Z</time>
      </trkpt>
      <trkpt lat="47.76566" lon="3.50777">
        <ele>204</ele>
        <time>2019-12-14T11:47:55Z</time>
      </trkpt>
      <trkpt lat="47.76571" lon="3.50769">
        <ele>203</ele>
        <time>2019-12-14T11:48:01Z</time>
      </trkpt>
      <trkpt lat="47.76572" lon="3.50767">
        <ele>203</ele>
        <time>2019-12-14T11:48:06Z</time>
      </trkpt>
      <trkpt lat="47.76572" lon="3.50766">
        <ele>203</ele>
        <time>2019-12-14T11:48:11Z</time>
      </trkpt>
      <trkpt lat="47.76573" lon="3.50766">
        <ele>202</ele>
        <time>2019-12-14T11:48:17Z</time>
      </trkpt>
      <trkpt lat="47.76573" lon="3.50766">
        <ele>202</ele>
        <time>2019-12-14T11:48:22Z</time>
      </trkpt>
      <trkpt lat="47.76574" lon="3.50765">
        <ele>202</ele>
        <time>2019-12-14T11:48:27Z</time>
      </trkpt>
      <trkpt lat="47.76575" lon="3.50764">
        <ele>202</ele>
        <time>2019-12-14T11:48:32Z</time>
      </trkpt>
      <trkpt lat="47.76579" lon="3.50762">
        <ele>201</ele>
        <time>2019-12-14T11:48:40Z</time>
      </trkpt>
      <trkpt lat="47.76584" lon="3.50754">
        <ele>202</ele>
        <time>2019-12-14T11:48:46Z</time>
      </trkpt>
      <trkpt lat="47.76587" lon="3.50748">
        <ele>199</ele>
        <time>2019-12-14T11:48:51Z</time>
      </trkpt>
      <trkpt lat="47.76591" lon="3.50737">
        <ele>201</ele>
        <time>2019-12-14T11:48:57Z</time>
      </trkpt>
      <trkpt lat="47.76596" lon="3.50729">
        <ele>199</ele>
        <time>2019-12-14T11:49:03Z</time>
      </trkpt>
      <trkpt lat="47.766" lon="3.50721">
        <ele>197</ele>
        <time>2019-12-14T11:49:09Z</time>
      </trkpt>
      <trkpt lat="47.76604" lon="3.50715">
        <ele>198</ele>
        <time>2019-12-14T11:49:15Z</time>
      </trkpt>
      <trkpt lat="47.76607" lon="3.50706">
        <ele>198</ele>
        <time>2019-12-14T11:49:21Z</time>
      </trkpt>
      <trkpt lat="47.76612" lon="3.50699">
        <ele>197</ele>
        <time>2019-12-14T11:49:27Z</time>
      </trkpt>
      <trkpt lat="47.76614" lon="3.50691">
        <ele>199</ele>
        <time>2019-12-14T11:49:33Z</time>
      </trkpt>
      <trkpt lat="47.76618" lon="3.50682">
        <ele>197</ele>
        <time>2019-12-14T11:49:38Z</time>
      </trkpt>
      <trkpt lat="47.76621" lon="3.50672">
        <ele>201</ele>
        <time>2019-12-14T11:49:44Z</time>
      </trkpt>
      <trkpt lat="47.76623" lon="3.50662">
        <ele>203</ele>
        <time>2019-12-14T11:49:50Z</time>
      </trkpt>
      <trkpt lat="47.76624" lon="3.50662">
        <ele>203</ele>
        <time>2019-12-14T11:49:55Z</time>
      </trkpt>
      <trkpt lat="47.76624" lon="3.50662">
        <ele>203</ele>
        <time>2019-12-14T11:50:01Z</time>
      </trkpt>
      <trkpt lat="47.76624" lon="3.50662">
        <ele>203</ele>
        <time>2019-12-14T11:50:06Z</time>
      </trkpt>
      <trkpt lat="47.76625" lon="3.50656">
        <ele>202</ele>
        <time>2019-12-14T11:50:12Z</time>
      </trkpt>
      <trkpt lat="47.76628" lon="3.50646">
        <ele>204</ele>
        <time>2019-12-14T11:50:17Z</time>
      </trkpt>
      <trkpt lat="47.76632" lon="3.50638">
        <ele>200</ele>
        <time>2019-12-14T11:50:23Z</time>
      </trkpt>
      <trkpt lat="47.76634" lon="3.50635">
        <ele>200</ele>
        <time>2019-12-14T11:50:28Z</time>
      </trkpt>
      <trkpt lat="47.76636" lon="3.50629">
        <ele>203</ele>
        <time>2019-12-14T11:50:34Z</time>
      </trkpt>
      <trkpt lat="47.76636" lon="3.50628">
        <ele>202</ele>
        <time>2019-12-14T11:50:40Z</time>
      </trkpt>
      <trkpt lat="47.76637" lon="3.50624">
        <ele>202</ele>
        <time>2019-12-14T11:50:45Z</time>
      </trkpt>
      <trkpt lat="47.76641" lon="3.50616">
        <ele>204</ele>
        <time>2019-12-14T11:50:51Z</time>
      </trkpt>
      <trkpt lat="47.76641" lon="3.5061">
        <ele>198</ele>
        <time>2019-12-14T11:50:57Z</time>
      </trkpt>
      <trkpt lat="47.76641" lon="3.50607">
        <ele>198</ele>
        <time>2019-12-14T11:51:02Z</time>
      </trkpt>
      <trkpt lat="47.7664" lon="3.50608">
        <ele>199</ele>
        <time>2019-12-14T11:51:08Z</time>
      </trkpt>
      <trkpt lat="47.7664" lon="3.50608">
        <ele>200</ele>
        <time>2019-12-14T11:51:14Z</time>
      </trkpt>
      <trkpt lat="47.7664" lon="3.50608">
        <ele>201</ele>
        <time>2019-12-14T11:51:19Z</time>
      </trkpt>
      <trkpt lat="47.7664" lon="3.50608">
        <ele>201</ele>
        <time>2019-12-14T11:51:24Z</time>
      </trkpt>
      <trkpt lat="47.7664" lon="3.50608">
        <ele>201</ele>
        <time>2019-12-14T11:51:29Z</time>
      </trkpt>
      <trkpt lat="47.7664" lon="3.50608">
        <ele>201</ele>
        <time>2019-12-14T11:51:35Z</time>
      </trkpt>
      <trkpt lat="47.7664" lon="3.50608">
        <ele>201</ele>
        <time>2019-12-14T11:51:40Z</time>
      </trkpt>
      <trkpt lat="47.76641" lon="3.50608">
        <ele>201</ele>
        <time>2019-12-14T11:51:45Z</time>
      </trkpt>
      <trkpt lat="47.76639" lon="3.50609">
        <ele>198</ele>
        <time>2019-12-14T11:51:51Z</time>
      </trkpt>
      <trkpt lat="47.7664" lon="3.50608">
        <ele>198</ele>
        <time>2019-12-14T11:51:57Z</time>
      </trkpt>
      <trkpt lat="47.7664" lon="3.50609">
        <ele>200</ele>
        <time>2019-12-14T11:52:03Z</time>
      </trkpt>
      <trkpt lat="47.7664" lon="3.50609">
        <ele>199</ele>
        <time>2019-12-14T11:52:09Z</time>
      </trkpt>
      <trkpt lat="47.7664" lon="3.50609">
        <ele>199</ele>
        <time>2019-12-14T11:52:14Z</time>
      </trkpt>
      <trkpt lat="47.7664" lon="3.50609">
        <ele>198</ele>
        <time>2019-12-14T11:52:19Z</time>
      </trkpt>
      <trkpt lat="47.7664" lon="3.50609">
        <ele>198</ele>
        <time>2019-12-14T11:52:25Z</time>
      </trkpt>
      <trkpt lat="47.7664" lon="3.50609">
        <ele>198</ele>
        <time>2019-12-14T11:52:31Z</time>
      </trkpt>
      <trkpt lat="47.7664" lon="3.50609">
        <ele>198</ele>
        <time>2019-12-14T11:52:36Z</time>
      </trkpt>
      <trkpt lat="47.7664" lon="3.50609">
        <ele>198</ele>
        <time>2019-12-14T11:52:42Z</time>
      </trkpt>
      <trkpt lat="47.7664" lon="3.50609">
        <ele>199</ele>
        <time>2019-12-14T11:52:48Z</time>
      </trkpt>
      <trkpt lat="47.7664" lon="3.50609">
        <ele>199</ele>
        <time>2019-12-14T11:52:54Z</time>
      </trkpt>
      <trkpt lat="47.76641" lon="3.50612">
        <ele>199</ele>
        <time>2019-12-14T11:53:00Z</time>
      </trkpt>
      <trkpt lat="47.76639" lon="3.50611">
        <ele>199</ele>
        <time>2019-12-14T11:53:06Z</time>
      </trkpt>
      <trkpt lat="47.76642" lon="3.50603">
        <ele>198</ele>
        <time>2019-12-14T11:53:12Z</time>
      </trkpt>
      <trkpt lat="47.76644" lon="3.506">
        <ele>197</ele>
        <time>2019-12-14T11:53:17Z</time>
      </trkpt>
      <trkpt lat="47.76643" lon="3.50599">
        <ele>197</ele>
        <time>2019-12-14T11:53:23Z</time>
      </trkpt>
      <trkpt lat="47.76643" lon="3.50598">
        <ele>197</ele>
        <time>2019-12-14T11:53:30Z</time>
      </trkpt>
      <trkpt lat="47.7665" lon="3.5059">
        <ele>199</ele>
        <time>2019-12-14T11:53:36Z</time>
      </trkpt>
      <trkpt lat="47.76653" lon="3.50583">
        <ele>198</ele>
        <time>2019-12-14T11:53:41Z</time>
      </trkpt>
      <trkpt lat="47.76656" lon="3.50574">
        <ele>198</ele>
        <time>2019-12-14T11:53:47Z</time>
      </trkpt>
      <trkpt lat="47.7666" lon="3.50564">
        <ele>196</ele>
        <time>2019-12-14T11:53:52Z</time>
      </trkpt>
      <trkpt lat="47.76661" lon="3.50556">
        <ele>199</ele>
        <time>2019-12-14T11:53:57Z</time>
      </trkpt>
      <trkpt lat="47.76665" lon="3.50549">
        <ele>195</ele>
        <time>2019-12-14T11:54:02Z</time>
      </trkpt>
      <trkpt lat="47.76669" lon="3.50541">
        <ele>195</ele>
        <time>2019-12-14T11:54:08Z</time>
      </trkpt>
      <trkpt lat="47.76673" lon="3.50534">
        <ele>194</ele>
        <time>2019-12-14T11:54:14Z</time>
      </trkpt>
      <trkpt lat="47.76676" lon="3.50528">
        <ele>190</ele>
        <time>2019-12-14T11:54:19Z</time>
      </trkpt>
      <trkpt lat="47.76679" lon="3.5052">
        <ele>190</ele>
        <time>2019-12-14T11:54:24Z</time>
      </trkpt>
      <trkpt lat="47.76683" lon="3.5051">
        <ele>189</ele>
        <time>2019-12-14T11:54:30Z</time>
      </trkpt>
      <trkpt lat="47.76688" lon="3.50505">
        <ele>186</ele>
        <time>2019-12-14T11:54:36Z</time>
      </trkpt>
      <trkpt lat="47.76691" lon="3.50499">
        <ele>188</ele>
        <time>2019-12-14T11:54:42Z</time>
      </trkpt>
      <trkpt lat="47.76693" lon="3.50495">
        <ele>188</ele>
        <time>2019-12-14T11:54:48Z</time>
      </trkpt>
      <trkpt lat="47.76694" lon="3.50493">
        <ele>190</ele>
        <time>2019-12-14T11:54:54Z</time>
      </trkpt>
      <trkpt lat="47.76696" lon="3.50488">
        <ele>187</ele>
        <time>2019-12-14T11:55:00Z</time>
      </trkpt>
      <trkpt lat="47.76696" lon="3.50486">
        <ele>192</ele>
        <time>2019-12-14T11:55:06Z</time>
      </trkpt>
      <trkpt lat="47.76698" lon="3.50481">
        <ele>196</ele>
        <time>2019-12-14T11:55:12Z</time>
      </trkpt>
      <trkpt lat="47.76699" lon="3.50479">
        <ele>195</ele>
        <time>2019-12-14T11:55:17Z</time>
      </trkpt>
      <trkpt lat="47.76699" lon="3.50479">
        <ele>193</ele>
        <time>2019-12-14T11:55:22Z</time>
      </trkpt>
      <trkpt lat="47.76702" lon="3.50473">
        <ele>192</ele>
        <time>2019-12-14T11:55:28Z</time>
      </trkpt>
      <trkpt lat="47.76705" lon="3.50465">
        <ele>192</ele>
        <time>2019-12-14T11:55:33Z</time>
      </trkpt>
      <trkpt lat="47.76707" lon="3.50458">
        <ele>193</ele>
        <time>2019-12-14T11:55:39Z</time>
      </trkpt>
      <trkpt lat="47.76711" lon="3.50451">
        <ele>191</ele>
        <time>2019-12-14T11:55:44Z</time>
      </trkpt>
      <trkpt lat="47.76715" lon="3.50443">
        <ele>192</ele>
        <time>2019-12-14T11:55:49Z</time>
      </trkpt>
      <trkpt lat="47.76718" lon="3.50435">
        <ele>191</ele>
        <time>2019-12-14T11:55:55Z</time>
      </trkpt>
      <trkpt lat="47.76717" lon="3.50428">
        <ele>191</ele>
        <time>2019-12-14T11:56:00Z</time>
      </trkpt>
      <trkpt lat="47.76721" lon="3.50422">
        <ele>189</ele>
        <time>2019-12-14T11:56:06Z</time>
      </trkpt>
      <trkpt lat="47.76728" lon="3.50415">
        <ele>195</ele>
        <time>2019-12-14T11:56:12Z</time>
      </trkpt>
      <trkpt lat="47.76731" lon="3.50409">
        <ele>193</ele>
        <time>2019-12-14T11:56:18Z</time>
      </trkpt>
      <trkpt lat="47.76737" lon="3.50403">
        <ele>192</ele>
        <time>2019-12-14T11:56:24Z</time>
      </trkpt>
      <trkpt lat="47.76741" lon="3.50394">
        <ele>188</ele>
        <time>2019-12-14T11:56:29Z</time>
      </trkpt>
      <trkpt lat="47.76744" lon="3.50387">
        <ele>190</ele>
        <time>2019-12-14T11:56:34Z</time>
      </trkpt>
      <trkpt lat="47.76746" lon="3.50376">
        <ele>188</ele>
        <time>2019-12-14T11:56:40Z</time>
      </trkpt>
      <trkpt lat="47.76748" lon="3.50374">
        <ele>187</ele>
        <time>2019-12-14T11:56:45Z</time>
      </trkpt>
      <trkpt lat="47.76747" lon="3.50373">
        <ele>186</ele>
        <time>2019-12-14T11:56:50Z</time>
      </trkpt>
      <trkpt lat="47.76747" lon="3.50373">
        <ele>186</ele>
        <time>2019-12-14T11:56:56Z</time>
      </trkpt>
      <trkpt lat="47.76747" lon="3.50373">
        <ele>186</ele>
        <time>2019-12-14T11:57:01Z</time>
      </trkpt>
      <trkpt lat="47.76746" lon="3.50373">
        <ele>186</ele>
        <time>2019-12-14T11:57:07Z</time>
      </trkpt>
      <trkpt lat="47.76744" lon="3.50374">
        <ele>185</ele>
        <time>2019-12-14T11:57:13Z</time>
      </trkpt>
      <trkpt lat="47.76744" lon="3.50373">
        <ele>186</ele>
        <time>2019-12-14T11:57:19Z</time>
      </trkpt>
      <trkpt lat="47.76744" lon="3.50373">
        <ele>186</ele>
        <time>2019-12-14T11:57:25Z</time>
      </trkpt>
      <trkpt lat="47.76744" lon="3.50373">
        <ele>186</ele>
        <time>2019-12-14T11:57:30Z</time>
      </trkpt>
      <trkpt lat="47.76744" lon="3.50373">
        <ele>186</ele>
        <time>2019-12-14T11:57:36Z</time>
      </trkpt>
      <trkpt lat="47.76744" lon="3.50373">
        <ele>186</ele>
        <time>2019-12-14T11:57:41Z</time>
      </trkpt>
      <trkpt lat="47.76744" lon="3.50373">
        <ele>186</ele>
        <time>2019-12-14T11:57:46Z</time>
      </trkpt>
      <trkpt lat="47.76744" lon="3.50373">
        <ele>186</ele>
        <time>2019-12-14T11:57:52Z</time>
      </trkpt>
      <trkpt lat="47.76744" lon="3.50373">
        <ele>186</ele>
        <time>2019-12-14T11:57:58Z</time>
      </trkpt>
      <trkpt lat="47.76744" lon="3.50373">
        <ele>186</ele>
        <time>2019-12-14T11:58:03Z</time>
      </trkpt>
      <trkpt lat="47.76744" lon="3.50373">
        <ele>186</ele>
        <time>2019-12-14T11:58:09Z</time>
      </trkpt>
      <trkpt lat="47.76744" lon="3.50373">
        <ele>186</ele>
        <time>2019-12-14T11:58:14Z</time>
      </trkpt>
      <trkpt lat="47.76744" lon="3.50373">
        <ele>186</ele>
        <time>2019-12-14T11:58:20Z</time>
      </trkpt>
      <trkpt lat="47.76744" lon="3.50373">
        <ele>186</ele>
        <time>2019-12-14T11:58:25Z</time>
      </trkpt>
      <trkpt lat="47.76744" lon="3.50373">
        <ele>186</ele>
        <time>2019-12-14T11:58:31Z</time>
      </trkpt>
      <trkpt lat="47.76744" lon="3.50373">
        <ele>186</ele>
        <time>2019-12-14T11:58:37Z</time>
      </trkpt>
      <trkpt lat="47.76744" lon="3.50373">
        <ele>186</ele>
        <time>2019-12-14T11:58:42Z</time>
      </trkpt>
      <trkpt lat="47.76744" lon="3.50373">
        <ele>186</ele>
        <time>2019-12-14T11:58:48Z</time>
      </trkpt>
      <trkpt lat="47.76744" lon="3.50373">
        <ele>186</ele>
        <time>2019-12-14T11:58:54Z</time>
      </trkpt>
      <trkpt lat="47.76744" lon="3.50373">
        <ele>186</ele>
        <time>2019-12-14T11:59:00Z</time>
      </trkpt>
      <trkpt lat="47.76744" lon="3.50371">
        <ele>188</ele>
        <time>2019-12-14T11:59:05Z</time>
      </trkpt>
      <trkpt lat="47.76744" lon="3.50372">
        <ele>187</ele>
        <time>2019-12-14T11:59:11Z</time>
      </trkpt>
      <trkpt lat="47.76744" lon="3.50372">
        <ele>187</ele>
        <time>2019-12-14T11:59:16Z</time>
      </trkpt>
      <trkpt lat="47.76744" lon="3.50372">
        <ele>187</ele>
        <time>2019-12-14T11:59:21Z</time>
      </trkpt>
      <trkpt lat="47.76747" lon="3.50366">
        <ele>189</ele>
        <time>2019-12-14T11:59:27Z</time>
      </trkpt>
      <trkpt lat="47.76749" lon="3.5036">
        <ele>187</ele>
        <time>2019-12-14T11:59:32Z</time>
      </trkpt>
      <trkpt lat="47.76753" lon="3.50353">
        <ele>188</ele>
        <time>2019-12-14T11:59:38Z</time>
      </trkpt>
      <trkpt lat="47.76755" lon="3.50344">
        <ele>188</ele>
        <time>2019-12-14T11:59:43Z</time>
      </trkpt>
      <trkpt lat="47.76753" lon="3.50336">
        <ele>188</ele>
        <time>2019-12-14T11:59:48Z</time>
      </trkpt>
      <trkpt lat="47.76749" lon="3.50325">
        <ele>189</ele>
        <time>2019-12-14T11:59:56Z</time>
      </trkpt>
      <trkpt lat="47.76745" lon="3.5032">
        <ele>189</ele>
        <time>2019-12-14T12:00:02Z</time>
      </trkpt>
      <trkpt lat="47.76744" lon="3.50319">
        <ele>188</ele>
        <time>2019-12-14T12:00:07Z</time>
      </trkpt>
      <trkpt lat="47.76744" lon="3.50319">
        <ele>187</ele>
        <time>2019-12-14T12:00:13Z</time>
      </trkpt>
      <trkpt lat="47.76744" lon="3.50319">
        <ele>187</ele>
        <time>2019-12-14T12:00:19Z</time>
      </trkpt>
      <trkpt lat="47.76743" lon="3.50315">
        <ele>187</ele>
        <time>2019-12-14T12:00:24Z</time>
      </trkpt>
      <trkpt lat="47.76736" lon="3.50307">
        <ele>187</ele>
        <time>2019-12-14T12:00:30Z</time>
      </trkpt>
      <trkpt lat="47.76731" lon="3.50301">
        <ele>182</ele>
        <time>2019-12-14T12:00:36Z</time>
      </trkpt>
      <trkpt lat="47.76728" lon="3.50294">
        <ele>184</ele>
        <time>2019-12-14T12:00:41Z</time>
      </trkpt>
      <trkpt lat="47.76723" lon="3.50285">
        <ele>184</ele>
        <time>2019-12-14T12:00:46Z</time>
      </trkpt>
      <trkpt lat="47.76721" lon="3.50279">
        <ele>184</ele>
        <time>2019-12-14T12:00:51Z</time>
      </trkpt>
      <trkpt lat="47.76715" lon="3.5027">
        <ele>183</ele>
        <time>2019-12-14T12:00:57Z</time>
      </trkpt>
      <trkpt lat="47.76712" lon="3.50262">
        <ele>184</ele>
        <time>2019-12-14T12:01:02Z</time>
      </trkpt>
      <trkpt lat="47.76709" lon="3.50256">
        <ele>184</ele>
        <time>2019-12-14T12:01:07Z</time>
      </trkpt>
      <trkpt lat="47.76706" lon="3.50254">
        <ele>185</ele>
        <time>2019-12-14T12:01:13Z</time>
      </trkpt>
      <trkpt lat="47.76705" lon="3.50253">
        <ele>184</ele>
        <time>2019-12-14T12:01:19Z</time>
      </trkpt>
      <trkpt lat="47.76702" lon="3.5025">
        <ele>183</ele>
        <time>2019-12-14T12:01:24Z</time>
      </trkpt>
      <trkpt lat="47.76698" lon="3.5024">
        <ele>184</ele>
        <time>2019-12-14T12:01:29Z</time>
      </trkpt>
      <trkpt lat="47.76694" lon="3.50235">
        <ele>182</ele>
        <time>2019-12-14T12:01:35Z</time>
      </trkpt>
      <trkpt lat="47.76688" lon="3.50228">
        <ele>180</ele>
        <time>2019-12-14T12:01:41Z</time>
      </trkpt>
      <trkpt lat="47.76684" lon="3.50217">
        <ele>180</ele>
        <time>2019-12-14T12:01:46Z</time>
      </trkpt>
      <trkpt lat="47.76679" lon="3.50213">
        <ele>180</ele>
        <time>2019-12-14T12:01:52Z</time>
      </trkpt>
      <trkpt lat="47.76675" lon="3.50207">
        <ele>181</ele>
        <time>2019-12-14T12:01:57Z</time>
      </trkpt>
      <trkpt lat="47.76671" lon="3.502">
        <ele>181</ele>
        <time>2019-12-14T12:02:02Z</time>
      </trkpt>
      <trkpt lat="47.76667" lon="3.50192">
        <ele>182</ele>
        <time>2019-12-14T12:02:08Z</time>
      </trkpt>
      <trkpt lat="47.76663" lon="3.50183">
        <ele>185</ele>
        <time>2019-12-14T12:02:14Z</time>
      </trkpt>
      <trkpt lat="47.7666" lon="3.50177">
        <ele>185</ele>
        <time>2019-12-14T12:02:19Z</time>
      </trkpt>
      <trkpt lat="47.76654" lon="3.50172">
        <ele>184</ele>
        <time>2019-12-14T12:02:24Z</time>
      </trkpt>
      <trkpt lat="47.76647" lon="3.50165">
        <ele>181</ele>
        <time>2019-12-14T12:02:30Z</time>
      </trkpt>
      <trkpt lat="47.76645" lon="3.50157">
        <ele>181</ele>
        <time>2019-12-14T12:02:36Z</time>
      </trkpt>
      <trkpt lat="47.76644" lon="3.50151">
        <ele>184</ele>
        <time>2019-12-14T12:02:41Z</time>
      </trkpt>
      <trkpt lat="47.76641" lon="3.50147">
        <ele>184</ele>
        <time>2019-12-14T12:02:47Z</time>
      </trkpt>
      <trkpt lat="47.7664" lon="3.50141">
        <ele>185</ele>
        <time>2019-12-14T12:02:52Z</time>
      </trkpt>
      <trkpt lat="47.76638" lon="3.50132">
        <ele>184</ele>
        <time>2019-12-14T12:02:58Z</time>
      </trkpt>
      <trkpt lat="47.76632" lon="3.50129">
        <ele>181</ele>
        <time>2019-12-14T12:03:03Z</time>
      </trkpt>
      <trkpt lat="47.76628" lon="3.50123">
        <ele>183</ele>
        <time>2019-12-14T12:03:08Z</time>
      </trkpt>
      <trkpt lat="47.76624" lon="3.50115">
        <ele>182</ele>
        <time>2019-12-14T12:03:14Z</time>
      </trkpt>
      <trkpt lat="47.76622" lon="3.50108">
        <ele>181</ele>
        <time>2019-12-14T12:03:20Z</time>
      </trkpt>
      <trkpt lat="47.7662" lon="3.50108">
        <ele>182</ele>
        <time>2019-12-14T12:03:26Z</time>
      </trkpt>
      <trkpt lat="47.7662" lon="3.50109">
        <ele>182</ele>
        <time>2019-12-14T12:03:32Z</time>
      </trkpt>
      <trkpt lat="47.7662" lon="3.50109">
        <ele>182</ele>
        <time>2019-12-14T12:03:37Z</time>
      </trkpt>
      <trkpt lat="47.7662" lon="3.50109">
        <ele>182</ele>
        <time>2019-12-14T12:03:43Z</time>
      </trkpt>
      <trkpt lat="47.7662" lon="3.50109">
        <ele>182</ele>
        <time>2019-12-14T12:03:49Z</time>
      </trkpt>
      <trkpt lat="47.7662" lon="3.50109">
        <ele>182</ele>
        <time>2019-12-14T12:03:54Z</time>
      </trkpt>
      <trkpt lat="47.7662" lon="3.50108">
        <ele>182</ele>
        <time>2019-12-14T12:04:00Z</time>
      </trkpt>
      <trkpt lat="47.76621" lon="3.50105">
        <ele>185</ele>
        <time>2019-12-14T12:04:06Z</time>
      </trkpt>
      <trkpt lat="47.76616" lon="3.50102">
        <ele>181</ele>
        <time>2019-12-14T12:04:11Z</time>
      </trkpt>
      <trkpt lat="47.76615" lon="3.50096">
        <ele>185</ele>
        <time>2019-12-14T12:04:17Z</time>
      </trkpt>
      <trkpt lat="47.76615" lon="3.50096">
        <ele>184</ele>
        <time>2019-12-14T12:04:22Z</time>
      </trkpt>
      <trkpt lat="47.76615" lon="3.50095">
        <ele>185</ele>
        <time>2019-12-14T12:04:27Z</time>
      </trkpt>
      <trkpt lat="47.76616" lon="3.50094">
        <ele>184</ele>
        <time>2019-12-14T12:04:33Z</time>
      </trkpt>
      <trkpt lat="47.76616" lon="3.50095">
        <ele>183</ele>
        <time>2019-12-14T12:04:39Z</time>
      </trkpt>
      <trkpt lat="47.76616" lon="3.50095">
        <ele>184</ele>
        <time>2019-12-14T12:04:44Z</time>
      </trkpt>
      <trkpt lat="47.76616" lon="3.50095">
        <ele>184</ele>
        <time>2019-12-14T12:04:50Z</time>
      </trkpt>
      <trkpt lat="47.76616" lon="3.50095">
        <ele>184</ele>
        <time>2019-12-14T12:04:55Z</time>
      </trkpt>
      <trkpt lat="47.76616" lon="3.50095">
        <ele>184</ele>
        <time>2019-12-14T12:05:00Z</time>
      </trkpt>
      <trkpt lat="47.76616" lon="3.50095">
        <ele>184</ele>
        <time>2019-12-14T12:05:06Z</time>
      </trkpt>
      <trkpt lat="47.76616" lon="3.50095">
        <ele>184</ele>
        <time>2019-12-14T12:05:12Z</time>
      </trkpt>
      <trkpt lat="47.76615" lon="3.50094">
        <ele>183</ele>
        <time>2019-12-14T12:05:19Z</time>
      </trkpt>
      <trkpt lat="47.76611" lon="3.50089">
        <ele>183</ele>
        <time>2019-12-14T12:05:24Z</time>
      </trkpt>
      <trkpt lat="47.76607" lon="3.50083">
        <ele>186</ele>
        <time>2019-12-14T12:05:30Z</time>
      </trkpt>
      <trkpt lat="47.76601" lon="3.50076">
        <ele>184</ele>
        <time>2019-12-14T12:05:36Z</time>
      </trkpt>
      <trkpt lat="47.76594" lon="3.50069">
        <ele>184</ele>
        <time>2019-12-14T12:05:42Z</time>
      </trkpt>
      <trkpt lat="47.76587" lon="3.50064">
        <ele>185</ele>
        <time>2019-12-14T12:05:47Z</time>
      </trkpt>
      <trkpt lat="47.76584" lon="3.5006">
        <ele>186</ele>
        <time>2019-12-14T12:05:53Z</time>
      </trkpt>
      <trkpt lat="47.76581" lon="3.50053">
        <ele>187</ele>
        <time>2019-12-14T12:05:58Z</time>
      </trkpt>
      <trkpt lat="47.76578" lon="3.50046">
        <ele>188</ele>
        <time>2019-12-14T12:06:03Z</time>
      </trkpt>
      <trkpt lat="47.76571" lon="3.5004">
        <ele>188</ele>
        <time>2019-12-14T12:06:09Z</time>
      </trkpt>
      <trkpt lat="47.76566" lon="3.50035">
        <ele>186</ele>
        <time>2019-12-14T12:06:15Z</time>
      </trkpt>
      <trkpt lat="47.76562" lon="3.50026">
        <ele>185</ele>
        <time>2019-12-14T12:06:22Z</time>
      </trkpt>
      <trkpt lat="47.76558" lon="3.50023">
        <ele>183</ele>
        <time>2019-12-14T12:06:27Z</time>
      </trkpt>
      <trkpt lat="47.76554" lon="3.50014">
        <ele>182</ele>
        <time>2019-12-14T12:06:33Z</time>
      </trkpt>
      <trkpt lat="47.76548" lon="3.50008">
        <ele>183</ele>
        <time>2019-12-14T12:06:38Z</time>
      </trkpt>
      <trkpt lat="47.76544" lon="3.50001">
        <ele>183</ele>
        <time>2019-12-14T12:06:44Z</time>
      </trkpt>
      <trkpt lat="47.76541" lon="3.49995">
        <ele>184</ele>
        <time>2019-12-14T12:06:49Z</time>
      </trkpt>
      <trkpt lat="47.76536" lon="3.49985">
        <ele>186</ele>
        <time>2019-12-14T12:06:55Z</time>
      </trkpt>
      <trkpt lat="47.7653" lon="3.4998">
        <ele>187</ele>
        <time>2019-12-14T12:07:00Z</time>
      </trkpt>
      <trkpt lat="47.76527" lon="3.49975">
        <ele>185</ele>
        <time>2019-12-14T12:07:05Z</time>
      </trkpt>
      <trkpt lat="47.76522" lon="3.49968">
        <ele>186</ele>
        <time>2019-12-14T12:07:11Z</time>
      </trkpt>
      <trkpt lat="47.76517" lon="3.4996">
        <ele>186</ele>
        <time>2019-12-14T12:07:16Z</time>
      </trkpt>
      <trkpt lat="47.76513" lon="3.49955">
        <ele>187</ele>
        <time>2019-12-14T12:07:21Z</time>
      </trkpt>
      <trkpt lat="47.76509" lon="3.49949">
        <ele>183</ele>
        <time>2019-12-14T12:07:27Z</time>
      </trkpt>
      <trkpt lat="47.76506" lon="3.4994">
        <ele>184</ele>
        <time>2019-12-14T12:07:33Z</time>
      </trkpt>
      <trkpt lat="47.765" lon="3.49933">
        <ele>185</ele>
        <time>2019-12-14T12:07:38Z</time>
      </trkpt>
      <trkpt lat="47.76496" lon="3.49924">
        <ele>186</ele>
        <time>2019-12-14T12:07:44Z</time>
      </trkpt>
      <trkpt lat="47.76493" lon="3.4992">
        <ele>186</ele>
        <time>2019-12-14T12:07:49Z</time>
      </trkpt>
      <trkpt lat="47.76488" lon="3.49914">
        <ele>187</ele>
        <time>2019-12-14T12:07:55Z</time>
      </trkpt>
      <trkpt lat="47.76482" lon="3.49908">
        <ele>186</ele>
        <time>2019-12-14T12:08:01Z</time>
      </trkpt>
      <trkpt lat="47.76477" lon="3.499">
        <ele>186</ele>
        <time>2019-12-14T12:08:06Z</time>
      </trkpt>
      <trkpt lat="47.76471" lon="3.49894">
        <ele>187</ele>
        <time>2019-12-14T12:08:11Z</time>
      </trkpt>
      <trkpt lat="47.76466" lon="3.49889">
        <ele>186</ele>
        <time>2019-12-14T12:08:17Z</time>
      </trkpt>
      <trkpt lat="47.7646" lon="3.49881">
        <ele>187</ele>
        <time>2019-12-14T12:08:23Z</time>
      </trkpt>
      <trkpt lat="47.76455" lon="3.49874">
        <ele>186</ele>
        <time>2019-12-14T12:08:29Z</time>
      </trkpt>
      <trkpt lat="47.76453" lon="3.49865">
        <ele>186</ele>
        <time>2019-12-14T12:08:34Z</time>
      </trkpt>
      <trkpt lat="47.76449" lon="3.49859">
        <ele>185</ele>
        <time>2019-12-14T12:08:40Z</time>
      </trkpt>
      <trkpt lat="47.76445" lon="3.49853">
        <ele>183</ele>
        <time>2019-12-14T12:08:45Z</time>
      </trkpt>
      <trkpt lat="47.76439" lon="3.49842">
        <ele>185</ele>
        <time>2019-12-14T12:08:51Z</time>
      </trkpt>
      <trkpt lat="47.76432" lon="3.49835">
        <ele>185</ele>
        <time>2019-12-14T12:08:56Z</time>
      </trkpt>
      <trkpt lat="47.76429" lon="3.4983">
        <ele>184</ele>
        <time>2019-12-14T12:09:01Z</time>
      </trkpt>
      <trkpt lat="47.76425" lon="3.49824">
        <ele>182</ele>
        <time>2019-12-14T12:09:07Z</time>
      </trkpt>
      <trkpt lat="47.7642" lon="3.49814">
        <ele>183</ele>
        <time>2019-12-14T12:09:13Z</time>
      </trkpt>
      <trkpt lat="47.76417" lon="3.49806">
        <ele>183</ele>
        <time>2019-12-14T12:09:19Z</time>
      </trkpt>
      <trkpt lat="47.76414" lon="3.49798">
        <ele>183</ele>
        <time>2019-12-14T12:09:24Z</time>
      </trkpt>
      <trkpt lat="47.7641" lon="3.49791">
        <ele>185</ele>
        <time>2019-12-14T12:09:30Z</time>
      </trkpt>
      <trkpt lat="47.76409" lon="3.49788">
        <ele>185</ele>
        <time>2019-12-14T12:09:35Z</time>
      </trkpt>
      <trkpt lat="47.76403" lon="3.49779">
        <ele>185</ele>
        <time>2019-12-14T12:09:41Z</time>
      </trkpt>
      <trkpt lat="47.76402" lon="3.49776">
        <ele>184</ele>
        <time>2019-12-14T12:09:47Z</time>
      </trkpt>
      <trkpt lat="47.764" lon="3.49776">
        <ele>186</ele>
        <time>2019-12-14T12:09:52Z</time>
      </trkpt>
      <trkpt lat="47.76396" lon="3.4977">
        <ele>184</ele>
        <time>2019-12-14T12:09:58Z</time>
      </trkpt>
      <trkpt lat="47.7639" lon="3.49763">
        <ele>182</ele>
        <time>2019-12-14T12:10:04Z</time>
      </trkpt>
      <trkpt lat="47.76383" lon="3.49753">
        <ele>183</ele>
        <time>2019-12-14T12:10:10Z</time>
      </trkpt>
      <trkpt lat="47.76378" lon="3.49743">
        <ele>181</ele>
        <time>2019-12-14T12:10:16Z</time>
      </trkpt>
      <trkpt lat="47.76374" lon="3.49737">
        <ele>182</ele>
        <time>2019-12-14T12:10:22Z</time>
      </trkpt>
      <trkpt lat="47.7637" lon="3.49732">
        <ele>182</ele>
        <time>2019-12-14T12:10:27Z</time>
      </trkpt>
      <trkpt lat="47.76364" lon="3.49725">
        <ele>181</ele>
        <time>2019-12-14T12:10:33Z</time>
      </trkpt>
      <trkpt lat="47.76364" lon="3.49721">
        <ele>178</ele>
        <time>2019-12-14T12:10:39Z</time>
      </trkpt>
      <trkpt lat="47.7636" lon="3.49712">
        <ele>179</ele>
        <time>2019-12-14T12:10:45Z</time>
      </trkpt>
      <trkpt lat="47.76356" lon="3.49705">
        <ele>180</ele>
        <time>2019-12-14T12:10:51Z</time>
      </trkpt>
      <trkpt lat="47.76351" lon="3.49697">
        <ele>181</ele>
        <time>2019-12-14T12:10:57Z</time>
      </trkpt>
      <trkpt lat="47.76344" lon="3.49691">
        <ele>183</ele>
        <time>2019-12-14T12:11:03Z</time>
      </trkpt>
      <trkpt lat="47.76336" lon="3.4969">
        <ele>183</ele>
        <time>2019-12-14T12:11:09Z</time>
      </trkpt>
      <trkpt lat="47.76331" lon="3.49691">
        <ele>183</ele>
        <time>2019-12-14T12:11:14Z</time>
      </trkpt>
      <trkpt lat="47.76332" lon="3.49689">
        <ele>183</ele>
        <time>2019-12-14T12:11:20Z</time>
      </trkpt>
      <trkpt lat="47.76332" lon="3.49689">
        <ele>184</ele>
        <time>2019-12-14T12:11:26Z</time>
      </trkpt>
      <trkpt lat="47.76332" lon="3.49689">
        <ele>184</ele>
        <time>2019-12-14T12:11:31Z</time>
      </trkpt>
      <trkpt lat="47.76332" lon="3.49689">
        <ele>184</ele>
        <time>2019-12-14T12:11:37Z</time>
      </trkpt>
      <trkpt lat="47.76332" lon="3.49689">
        <ele>184</ele>
        <time>2019-12-14T12:11:42Z</time>
      </trkpt>
      <trkpt lat="47.76331" lon="3.49689">
        <ele>183</ele>
        <time>2019-12-14T12:11:48Z</time>
      </trkpt>
      <trkpt lat="47.76331" lon="3.49689">
        <ele>183</ele>
        <time>2019-12-14T12:11:54Z</time>
      </trkpt>
      <trkpt lat="47.76331" lon="3.49689">
        <ele>183</ele>
        <time>2019-12-14T12:11:59Z</time>
      </trkpt>
      <trkpt lat="47.76331" lon="3.49689">
        <ele>183</ele>
        <time>2019-12-14T12:12:04Z</time>
      </trkpt>
      <trkpt lat="47.76331" lon="3.49689">
        <ele>183</ele>
        <time>2019-12-14T12:12:10Z</time>
      </trkpt>
      <trkpt lat="47.76331" lon="3.49689">
        <ele>183</ele>
        <time>2019-12-14T12:12:16Z</time>
      </trkpt>
      <trkpt lat="47.76331" lon="3.49689">
        <ele>183</ele>
        <time>2019-12-14T12:12:22Z</time>
      </trkpt>
      <trkpt lat="47.76331" lon="3.49689">
        <ele>183</ele>
        <time>2019-12-14T12:12:28Z</time>
      </trkpt>
      <trkpt lat="47.76331" lon="3.49689">
        <ele>183</ele>
        <time>2019-12-14T12:12:34Z</time>
      </trkpt>
      <trkpt lat="47.76331" lon="3.49689">
        <ele>183</ele>
        <time>2019-12-14T12:12:39Z</time>
      </trkpt>
      <trkpt lat="47.76331" lon="3.49689">
        <ele>183</ele>
        <time>2019-12-14T12:12:45Z</time>
      </trkpt>
      <trkpt lat="47.76331" lon="3.49689">
        <ele>183</ele>
        <time>2019-12-14T12:12:51Z</time>
      </trkpt>
      <trkpt lat="47.76331" lon="3.49689">
        <ele>183</ele>
        <time>2019-12-14T12:12:57Z</time>
      </trkpt>
      <trkpt lat="47.76331" lon="3.49689">
        <ele>183</ele>
        <time>2019-12-14T12:13:02Z</time>
      </trkpt>
      <trkpt lat="47.76332" lon="3.49688">
        <ele>183</ele>
        <time>2019-12-14T12:13:08Z</time>
      </trkpt>
      <trkpt lat="47.76332" lon="3.49688">
        <ele>184</ele>
        <time>2019-12-14T12:13:14Z</time>
      </trkpt>
      <trkpt lat="47.76332" lon="3.49688">
        <ele>184</ele>
        <time>2019-12-14T12:13:20Z</time>
      </trkpt>
      <trkpt lat="47.76332" lon="3.49688">
        <ele>184</ele>
        <time>2019-12-14T12:13:26Z</time>
      </trkpt>
      <trkpt lat="47.76332" lon="3.49688">
        <ele>184</ele>
        <time>2019-12-14T12:13:32Z</time>
      </trkpt>
      <trkpt lat="47.76332" lon="3.49688">
        <ele>184</ele>
        <time>2019-12-14T12:13:38Z</time>
      </trkpt>
      <trkpt lat="47.76333" lon="3.49689">
        <ele>183</ele>
        <time>2019-12-14T12:13:44Z</time>
      </trkpt>
      <trkpt lat="47.76334" lon="3.4969">
        <ele>182</ele>
        <time>2019-12-14T12:13:50Z</time>
      </trkpt>
      <trkpt lat="47.76334" lon="3.4969">
        <ele>182</ele>
        <time>2019-12-14T12:13:56Z</time>
      </trkpt>
      <trkpt lat="47.76334" lon="3.4969">
        <ele>182</ele>
        <time>2019-12-14T12:14:02Z</time>
      </trkpt>
      <trkpt lat="47.7633" lon="3.49685">
        <ele>181</ele>
        <time>2019-12-14T12:14:08Z</time>
      </trkpt>
      <trkpt lat="47.76326" lon="3.49682">
        <ele>181</ele>
        <time>2019-12-14T12:14:13Z</time>
      </trkpt>
      <trkpt lat="47.76322" lon="3.49671">
        <ele>182</ele>
        <time>2019-12-14T12:14:19Z</time>
      </trkpt>
      <trkpt lat="47.76318" lon="3.49665">
        <ele>181</ele>
        <time>2019-12-14T12:14:24Z</time>
      </trkpt>
      <trkpt lat="47.76313" lon="3.49658">
        <ele>181</ele>
        <time>2019-12-14T12:14:29Z</time>
      </trkpt>
      <trkpt lat="47.76308" lon="3.49652">
        <ele>183</ele>
        <time>2019-12-14T12:14:34Z</time>
      </trkpt>
      <trkpt lat="47.76302" lon="3.49646">
        <ele>182</ele>
        <time>2019-12-14T12:14:40Z</time>
      </trkpt>
      <trkpt lat="47.76298" lon="3.49641">
        <ele>184</ele>
        <time>2019-12-14T12:14:45Z</time>
      </trkpt>
      <trkpt lat="47.76294" lon="3.49635">
        <ele>183</ele>
        <time>2019-12-14T12:14:50Z</time>
      </trkpt>
      <trkpt lat="47.76289" lon="3.49625">
        <ele>185</ele>
        <time>2019-12-14T12:14:56Z</time>
      </trkpt>
      <trkpt lat="47.76284" lon="3.49616">
        <ele>186</ele>
        <time>2019-12-14T12:15:05Z</time>
      </trkpt>
      <trkpt lat="47.76279" lon="3.49605">
        <ele>187</ele>
        <time>2019-12-14T12:15:11Z</time>
      </trkpt>
      <trkpt lat="47.76269" lon="3.49597">
        <ele>186</ele>
        <time>2019-12-14T12:15:17Z</time>
      </trkpt>
      <trkpt lat="47.76265" lon="3.49593">
        <ele>185</ele>
        <time>2019-12-14T12:15:22Z</time>
      </trkpt>
      <trkpt lat="47.76262" lon="3.49584">
        <ele>186</ele>
        <time>2019-12-14T12:15:28Z</time>
      </trkpt>
      <trkpt lat="47.76262" lon="3.4958">
        <ele>184</ele>
        <time>2019-12-14T12:15:33Z</time>
      </trkpt>
      <trkpt lat="47.76257" lon="3.49577">
        <ele>187</ele>
        <time>2019-12-14T12:15:39Z</time>
      </trkpt>
      <trkpt lat="47.76252" lon="3.4957">
        <ele>187</ele>
        <time>2019-12-14T12:15:45Z</time>
      </trkpt>
      <trkpt lat="47.7625" lon="3.49566">
        <ele>187</ele>
        <time>2019-12-14T12:15:51Z</time>
      </trkpt>
      <trkpt lat="47.76244" lon="3.49559">
        <ele>186</ele>
        <time>2019-12-14T12:15:57Z</time>
      </trkpt>
      <trkpt lat="47.76238" lon="3.49553">
        <ele>189</ele>
        <time>2019-12-14T12:16:02Z</time>
      </trkpt>
      <trkpt lat="47.76236" lon="3.49549">
        <ele>187</ele>
        <time>2019-12-14T12:16:07Z</time>
      </trkpt>
      <trkpt lat="47.76233" lon="3.49546">
        <ele>187</ele>
        <time>2019-12-14T12:16:13Z</time>
      </trkpt>
      <trkpt lat="47.7623" lon="3.49539">
        <ele>186</ele>
        <time>2019-12-14T12:16:19Z</time>
      </trkpt>
      <trkpt lat="47.76228" lon="3.49532">
        <ele>186</ele>
        <time>2019-12-14T12:16:24Z</time>
      </trkpt>
      <trkpt lat="47.76226" lon="3.49526">
        <ele>185</ele>
        <time>2019-12-14T12:16:29Z</time>
      </trkpt>
      <trkpt lat="47.76223" lon="3.49523">
        <ele>185</ele>
        <time>2019-12-14T12:16:35Z</time>
      </trkpt>
      <trkpt lat="47.76221" lon="3.49519">
        <ele>185</ele>
        <time>2019-12-14T12:16:41Z</time>
      </trkpt>
      <trkpt lat="47.76219" lon="3.49515">
        <ele>186</ele>
        <time>2019-12-14T12:16:47Z</time>
      </trkpt>
      <trkpt lat="47.76216" lon="3.49511">
        <ele>187</ele>
        <time>2019-12-14T12:16:52Z</time>
      </trkpt>
      <trkpt lat="47.76215" lon="3.49511">
        <ele>187</ele>
        <time>2019-12-14T12:16:57Z</time>
      </trkpt>
      <trkpt lat="47.76215" lon="3.49511">
        <ele>186</ele>
        <time>2019-12-14T12:17:02Z</time>
      </trkpt>
      <trkpt lat="47.76216" lon="3.49509">
        <ele>186</ele>
        <time>2019-12-14T12:17:08Z</time>
      </trkpt>
      <trkpt lat="47.76212" lon="3.49505">
        <ele>185</ele>
        <time>2019-12-14T12:17:14Z</time>
      </trkpt>
      <trkpt lat="47.76213" lon="3.49504">
        <ele>184</ele>
        <time>2019-12-14T12:17:19Z</time>
      </trkpt>
      <trkpt lat="47.76212" lon="3.49505">
        <ele>184</ele>
        <time>2019-12-14T12:17:25Z</time>
      </trkpt>
      <trkpt lat="47.7621" lon="3.49499">
        <ele>184</ele>
        <time>2019-12-14T12:17:30Z</time>
      </trkpt>
      <trkpt lat="47.76207" lon="3.49492">
        <ele>186</ele>
        <time>2019-12-14T12:17:36Z</time>
      </trkpt>
      <trkpt lat="47.76202" lon="3.49491">
        <ele>186</ele>
        <time>2019-12-14T12:17:41Z</time>
      </trkpt>
      <trkpt lat="47.76198" lon="3.49487">
        <ele>185</ele>
        <time>2019-12-14T12:17:46Z</time>
      </trkpt>
      <trkpt lat="47.76194" lon="3.49483">
        <ele>185</ele>
        <time>2019-12-14T12:17:51Z</time>
      </trkpt>
      <trkpt lat="47.76191" lon="3.49477">
        <ele>185</ele>
        <time>2019-12-14T12:17:57Z</time>
      </trkpt>
      <trkpt lat="47.76189" lon="3.49472">
        <ele>186</ele>
        <time>2019-12-14T12:18:03Z</time>
      </trkpt>
      <trkpt lat="47.76188" lon="3.49473">
        <ele>187</ele>
        <time>2019-12-14T12:18:08Z</time>
      </trkpt>
      <trkpt lat="47.76188" lon="3.49471">
        <ele>187</ele>
        <time>2019-12-14T12:18:14Z</time>
      </trkpt>
      <trkpt lat="47.76189" lon="3.4947">
        <ele>188</ele>
        <time>2019-12-14T12:18:20Z</time>
      </trkpt>
      <trkpt lat="47.76189" lon="3.4947">
        <ele>187</ele>
        <time>2019-12-14T12:18:25Z</time>
      </trkpt>
      <trkpt lat="47.76189" lon="3.4947">
        <ele>187</ele>
        <time>2019-12-14T12:18:31Z</time>
      </trkpt>
      <trkpt lat="47.76189" lon="3.4947">
        <ele>187</ele>
        <time>2019-12-14T12:18:37Z</time>
      </trkpt>
      <trkpt lat="47.76189" lon="3.4947">
        <ele>187</ele>
        <time>2019-12-14T12:18:43Z</time>
      </trkpt>
      <trkpt lat="47.76189" lon="3.4947">
        <ele>187</ele>
        <time>2019-12-14T12:18:49Z</time>
      </trkpt>
      <trkpt lat="47.76189" lon="3.4947">
        <ele>187</ele>
        <time>2019-12-14T12:18:55Z</time>
      </trkpt>
      <trkpt lat="47.76189" lon="3.4947">
        <ele>187</ele>
        <time>2019-12-14T12:19:01Z</time>
      </trkpt>
      <trkpt lat="47.76189" lon="3.4947">
        <ele>187</ele>
        <time>2019-12-14T12:19:07Z</time>
      </trkpt>
      <trkpt lat="47.76186" lon="3.49467">
        <ele>186</ele>
        <time>2019-12-14T12:19:12Z</time>
      </trkpt>
      <trkpt lat="47.7618" lon="3.49459">
        <ele>185</ele>
        <time>2019-12-14T12:19:18Z</time>
      </trkpt>
      <trkpt lat="47.76176" lon="3.49452">
        <ele>184</ele>
        <time>2019-12-14T12:19:23Z</time>
      </trkpt>
      <trkpt lat="47.76173" lon="3.49444">
        <ele>183</ele>
        <time>2019-12-14T12:19:29Z</time>
      </trkpt>
      <trkpt lat="47.76167" lon="3.49435">
        <ele>185</ele>
        <time>2019-12-14T12:19:34Z</time>
      </trkpt>
      <trkpt lat="47.76165" lon="3.49431">
        <ele>184</ele>
        <time>2019-12-14T12:19:40Z</time>
      </trkpt>
      <trkpt lat="47.76158" lon="3.49422">
        <ele>183</ele>
        <time>2019-12-14T12:19:45Z</time>
      </trkpt>
      <trkpt lat="47.76152" lon="3.49414">
        <ele>182</ele>
        <time>2019-12-14T12:19:51Z</time>
      </trkpt>
      <trkpt lat="47.76151" lon="3.49407">
        <ele>181</ele>
        <time>2019-12-14T12:19:56Z</time>
      </trkpt>
      <trkpt lat="47.76151" lon="3.49405">
        <ele>181</ele>
        <time>2019-12-14T12:20:02Z</time>
      </trkpt>
      <trkpt lat="47.76147" lon="3.49402">
        <ele>183</ele>
        <time>2019-12-14T12:20:07Z</time>
      </trkpt>
      <trkpt lat="47.76143" lon="3.49396">
        <ele>182</ele>
        <time>2019-12-14T12:20:13Z</time>
      </trkpt>
      <trkpt lat="47.76136" lon="3.49388">
        <ele>184</ele>
        <time>2019-12-14T12:20:18Z</time>
      </trkpt>
      <trkpt lat="47.76134" lon="3.49383">
        <ele>184</ele>
        <time>2019-12-14T12:20:23Z</time>
      </trkpt>
      <trkpt lat="47.76126" lon="3.49384">
        <ele>184</ele>
        <time>2019-12-14T12:20:29Z</time>
      </trkpt>
      <trkpt lat="47.76129" lon="3.49386">
        <ele>185</ele>
        <time>2019-12-14T12:20:35Z</time>
      </trkpt>
      <trkpt lat="47.76126" lon="3.49382">
        <ele>183</ele>
        <time>2019-12-14T12:20:40Z</time>
      </trkpt>
      <trkpt lat="47.76122" lon="3.49375">
        <ele>179</ele>
        <time>2019-12-14T12:20:46Z</time>
      </trkpt>
      <trkpt lat="47.76118" lon="3.49371">
        <ele>180</ele>
        <time>2019-12-14T12:20:51Z</time>
      </trkpt>
      <trkpt lat="47.76116" lon="3.49361">
        <ele>179</ele>
        <time>2019-12-14T12:20:56Z</time>
      </trkpt>
      <trkpt lat="47.7611" lon="3.49353">
        <ele>182</ele>
        <time>2019-12-14T12:21:01Z</time>
      </trkpt>
      <trkpt lat="47.76103" lon="3.49345">
        <ele>184</ele>
        <time>2019-12-14T12:21:07Z</time>
      </trkpt>
      <trkpt lat="47.76098" lon="3.49336">
        <ele>184</ele>
        <time>2019-12-14T12:21:12Z</time>
      </trkpt>
      <trkpt lat="47.76095" lon="3.49327">
        <ele>185</ele>
        <time>2019-12-14T12:21:18Z</time>
      </trkpt>
      <trkpt lat="47.76093" lon="3.49319">
        <ele>185</ele>
        <time>2019-12-14T12:21:24Z</time>
      </trkpt>
      <trkpt lat="47.7609" lon="3.49314">
        <ele>182</ele>
        <time>2019-12-14T12:21:30Z</time>
      </trkpt>
      <trkpt lat="47.76085" lon="3.4931">
        <ele>180</ele>
        <time>2019-12-14T12:21:36Z</time>
      </trkpt>
      <trkpt lat="47.76082" lon="3.49306">
        <ele>178</ele>
        <time>2019-12-14T12:21:41Z</time>
      </trkpt>
      <trkpt lat="47.76079" lon="3.493">
        <ele>179</ele>
        <time>2019-12-14T12:21:47Z</time>
      </trkpt>
      <trkpt lat="47.76075" lon="3.49296">
        <ele>181</ele>
        <time>2019-12-14T12:21:53Z</time>
      </trkpt>
      <trkpt lat="47.76073" lon="3.49292">
        <ele>183</ele>
        <time>2019-12-14T12:21:58Z</time>
      </trkpt>
      <trkpt lat="47.76071" lon="3.49287">
        <ele>184</ele>
        <time>2019-12-14T12:22:03Z</time>
      </trkpt>
      <trkpt lat="47.76071" lon="3.49287">
        <ele>185</ele>
        <time>2019-12-14T12:22:08Z</time>
      </trkpt>
      <trkpt lat="47.7607" lon="3.49287">
        <ele>186</ele>
        <time>2019-12-14T12:22:14Z</time>
      </trkpt>
      <trkpt lat="47.76069" lon="3.49284">
        <ele>186</ele>
        <time>2019-12-14T12:22:20Z</time>
      </trkpt>
      <trkpt lat="47.76064" lon="3.49279">
        <ele>184</ele>
        <time>2019-12-14T12:22:26Z</time>
      </trkpt>
      <trkpt lat="47.7606" lon="3.49272">
        <ele>184</ele>
        <time>2019-12-14T12:22:32Z</time>
      </trkpt>
      <trkpt lat="47.76056" lon="3.49263">
        <ele>183</ele>
        <time>2019-12-14T12:22:37Z</time>
      </trkpt>
      <trkpt lat="47.76051" lon="3.49257">
        <ele>183</ele>
        <time>2019-12-14T12:22:42Z</time>
      </trkpt>
      <trkpt lat="47.7605" lon="3.49254">
        <ele>183</ele>
        <time>2019-12-14T12:22:50Z</time>
      </trkpt>
      <trkpt lat="47.76049" lon="3.49254">
        <ele>184</ele>
        <time>2019-12-14T12:22:55Z</time>
      </trkpt>
      <trkpt lat="47.76049" lon="3.49254">
        <ele>184</ele>
        <time>2019-12-14T12:23:00Z</time>
      </trkpt>
      <trkpt lat="47.76048" lon="3.49254">
        <ele>184</ele>
        <time>2019-12-14T12:23:06Z</time>
      </trkpt>
      <trkpt lat="47.76045" lon="3.4925">
        <ele>183</ele>
        <time>2019-12-14T12:23:12Z</time>
      </trkpt>
      <trkpt lat="47.76041" lon="3.49244">
        <ele>184</ele>
        <time>2019-12-14T12:23:17Z</time>
      </trkpt>
      <trkpt lat="47.76036" lon="3.49234">
        <ele>183</ele>
        <time>2019-12-14T12:23:23Z</time>
      </trkpt>
      <trkpt lat="47.76033" lon="3.49228">
        <ele>182</ele>
        <time>2019-12-14T12:23:28Z</time>
      </trkpt>
      <trkpt lat="47.76028" lon="3.49221">
        <ele>183</ele>
        <time>2019-12-14T12:23:34Z</time>
      </trkpt>
      <trkpt lat="47.76024" lon="3.49214">
        <ele>183</ele>
        <time>2019-12-14T12:23:39Z</time>
      </trkpt>
      <trkpt lat="47.76019" lon="3.49207">
        <ele>183</ele>
        <time>2019-12-14T12:23:46Z</time>
      </trkpt>
      <trkpt lat="47.76015" lon="3.49203">
        <ele>184</ele>
        <time>2019-12-14T12:23:51Z</time>
      </trkpt>
      <trkpt lat="47.76009" lon="3.49193">
        <ele>183</ele>
        <time>2019-12-14T12:23:57Z</time>
      </trkpt>
      <trkpt lat="47.76007" lon="3.49184">
        <ele>183</ele>
        <time>2019-12-14T12:24:03Z</time>
      </trkpt>
      <trkpt lat="47.76005" lon="3.49178">
        <ele>183</ele>
        <time>2019-12-14T12:24:08Z</time>
      </trkpt>
      <trkpt lat="47.75999" lon="3.49172">
        <ele>180</ele>
        <time>2019-12-14T12:24:13Z</time>
      </trkpt>
      <trkpt lat="47.75992" lon="3.49162">
        <ele>181</ele>
        <time>2019-12-14T12:24:19Z</time>
      </trkpt>
      <trkpt lat="47.75988" lon="3.49155">
        <ele>180</ele>
        <time>2019-12-14T12:24:25Z</time>
      </trkpt>
      <trkpt lat="47.75984" lon="3.49148">
        <ele>181</ele>
        <time>2019-12-14T12:24:30Z</time>
      </trkpt>
      <trkpt lat="47.75981" lon="3.49142">
        <ele>181</ele>
        <time>2019-12-14T12:24:36Z</time>
      </trkpt>
      <trkpt lat="47.7598" lon="3.49141">
        <ele>182</ele>
        <time>2019-12-14T12:24:41Z</time>
      </trkpt>
      <trkpt lat="47.7598" lon="3.49141">
        <ele>183</ele>
        <time>2019-12-14T12:24:47Z</time>
      </trkpt>
      <trkpt lat="47.75979" lon="3.49142">
        <ele>183</ele>
        <time>2019-12-14T12:24:52Z</time>
      </trkpt>
      <trkpt lat="47.7598" lon="3.4914">
        <ele>182</ele>
        <time>2019-12-14T12:24:58Z</time>
      </trkpt>
      <trkpt lat="47.75979" lon="3.49141">
        <ele>182</ele>
        <time>2019-12-14T12:25:04Z</time>
      </trkpt>
      <trkpt lat="47.75979" lon="3.49141">
        <ele>182</ele>
        <time>2019-12-14T12:25:09Z</time>
      </trkpt>
      <trkpt lat="47.75979" lon="3.49141">
        <ele>182</ele>
        <time>2019-12-14T12:25:14Z</time>
      </trkpt>
      <trkpt lat="47.75979" lon="3.49141">
        <ele>182</ele>
        <time>2019-12-14T12:25:20Z</time>
      </trkpt>
      <trkpt lat="47.75976" lon="3.49137">
        <ele>183</ele>
        <time>2019-12-14T12:25:26Z</time>
      </trkpt>
      <trkpt lat="47.75971" lon="3.49132">
        <ele>184</ele>
        <time>2019-12-14T12:25:32Z</time>
      </trkpt>
      <trkpt lat="47.75968" lon="3.49125">
        <ele>183</ele>
        <time>2019-12-14T12:25:37Z</time>
      </trkpt>
      <trkpt lat="47.75962" lon="3.4912">
        <ele>186</ele>
        <time>2019-12-14T12:25:42Z</time>
      </trkpt>
      <trkpt lat="47.75956" lon="3.49114">
        <ele>184</ele>
        <time>2019-12-14T12:25:48Z</time>
      </trkpt>
      <trkpt lat="47.75952" lon="3.49107">
        <ele>184</ele>
        <time>2019-12-14T12:25:53Z</time>
      </trkpt>
      <trkpt lat="47.75948" lon="3.49096">
        <ele>187</ele>
        <time>2019-12-14T12:25:59Z</time>
      </trkpt>
      <trkpt lat="47.75945" lon="3.49089">
        <ele>188</ele>
        <time>2019-12-14T12:26:04Z</time>
      </trkpt>
      <trkpt lat="47.7594" lon="3.49081">
        <ele>186</ele>
        <time>2019-12-14T12:26:10Z</time>
      </trkpt>
      <trkpt lat="47.75936" lon="3.49075">
        <ele>187</ele>
        <time>2019-12-14T12:26:15Z</time>
      </trkpt>
      <trkpt lat="47.75931" lon="3.49067">
        <ele>183</ele>
        <time>2019-12-14T12:26:21Z</time>
      </trkpt>
      <trkpt lat="47.75926" lon="3.4906">
        <ele>185</ele>
        <time>2019-12-14T12:26:26Z</time>
      </trkpt>
      <trkpt lat="47.75922" lon="3.49056">
        <ele>184</ele>
        <time>2019-12-14T12:26:31Z</time>
      </trkpt>
      <trkpt lat="47.75917" lon="3.49046">
        <ele>183</ele>
        <time>2019-12-14T12:26:37Z</time>
      </trkpt>
      <trkpt lat="47.75912" lon="3.4904">
        <ele>183</ele>
        <time>2019-12-14T12:26:43Z</time>
      </trkpt>
      <trkpt lat="47.75909" lon="3.49033">
        <ele>181</ele>
        <time>2019-12-14T12:26:48Z</time>
      </trkpt>
      <trkpt lat="47.75905" lon="3.49025">
        <ele>180</ele>
        <time>2019-12-14T12:26:54Z</time>
      </trkpt>
      <trkpt lat="47.75898" lon="3.49021">
        <ele>177</ele>
        <time>2019-12-14T12:27:00Z</time>
      </trkpt>
      <trkpt lat="47.75891" lon="3.49015">
        <ele>179</ele>
        <time>2019-12-14T12:27:05Z</time>
      </trkpt>
      <trkpt lat="47.75886" lon="3.49007">
        <ele>181</ele>
        <time>2019-12-14T12:27:11Z</time>
      </trkpt>
      <trkpt lat="47.75882" lon="3.49">
        <ele>182</ele>
        <time>2019-12-14T12:27:16Z</time>
      </trkpt>
      <trkpt lat="47.75877" lon="3.48994">
        <ele>184</ele>
        <time>2019-12-14T12:27:22Z</time>
      </trkpt>
      <trkpt lat="47.75872" lon="3.48988">
        <ele>183</ele>
        <time>2019-12-14T12:27:27Z</time>
      </trkpt>
      <trkpt lat="47.7587" lon="3.4898">
        <ele>184</ele>
        <time>2019-12-14T12:27:32Z</time>
      </trkpt>
      <trkpt lat="47.75864" lon="3.48972">
        <ele>181</ele>
        <time>2019-12-14T12:27:38Z</time>
      </trkpt>
      <trkpt lat="47.75859" lon="3.48963">
        <ele>182</ele>
        <time>2019-12-14T12:27:43Z</time>
      </trkpt>
      <trkpt lat="47.75857" lon="3.48961">
        <ele>182</ele>
        <time>2019-12-14T12:27:49Z</time>
      </trkpt>
      <trkpt lat="47.75853" lon="3.48956">
        <ele>185</ele>
        <time>2019-12-14T12:27:55Z</time>
      </trkpt>
      <trkpt lat="47.75848" lon="3.4895">
        <ele>184</ele>
        <time>2019-12-14T12:28:01Z</time>
      </trkpt>
      <trkpt lat="47.75841" lon="3.48944">
        <ele>185</ele>
        <time>2019-12-14T12:28:06Z</time>
      </trkpt>
      <trkpt lat="47.75837" lon="3.48935">
        <ele>187</ele>
        <time>2019-12-14T12:28:12Z</time>
      </trkpt>
      <trkpt lat="47.75836" lon="3.48928">
        <ele>187</ele>
        <time>2019-12-14T12:28:18Z</time>
      </trkpt>
      <trkpt lat="47.75832" lon="3.48922">
        <ele>186</ele>
        <time>2019-12-14T12:28:23Z</time>
      </trkpt>
      <trkpt lat="47.75827" lon="3.48916">
        <ele>184</ele>
        <time>2019-12-14T12:28:28Z</time>
      </trkpt>
      <trkpt lat="47.75823" lon="3.48909">
        <ele>186</ele>
        <time>2019-12-14T12:28:34Z</time>
      </trkpt>
      <trkpt lat="47.75818" lon="3.48901">
        <ele>187</ele>
        <time>2019-12-14T12:28:40Z</time>
      </trkpt>
      <trkpt lat="47.75814" lon="3.48896">
        <ele>187</ele>
        <time>2019-12-14T12:28:45Z</time>
      </trkpt>
      <trkpt lat="47.75809" lon="3.48891">
        <ele>182</ele>
        <time>2019-12-14T12:28:51Z</time>
      </trkpt>
      <trkpt lat="47.75804" lon="3.48885">
        <ele>182</ele>
        <time>2019-12-14T12:28:56Z</time>
      </trkpt>
      <trkpt lat="47.75804" lon="3.48875">
        <ele>180</ele>
        <time>2019-12-14T12:29:02Z</time>
      </trkpt>
      <trkpt lat="47.75799" lon="3.48871">
        <ele>180</ele>
        <time>2019-12-14T12:29:07Z</time>
      </trkpt>
      <trkpt lat="47.75793" lon="3.48863">
        <ele>181</ele>
        <time>2019-12-14T12:29:13Z</time>
      </trkpt>
      <trkpt lat="47.75789" lon="3.48855">
        <ele>183</ele>
        <time>2019-12-14T12:29:18Z</time>
      </trkpt>
      <trkpt lat="47.75783" lon="3.48849">
        <ele>179</ele>
        <time>2019-12-14T12:29:24Z</time>
      </trkpt>
      <trkpt lat="47.75782" lon="3.4884">
        <ele>180</ele>
        <time>2019-12-14T12:29:30Z</time>
      </trkpt>
      <trkpt lat="47.75782" lon="3.48831">
        <ele>181</ele>
        <time>2019-12-14T12:29:35Z</time>
      </trkpt>
      <trkpt lat="47.75784" lon="3.48827">
        <ele>183</ele>
        <time>2019-12-14T12:29:40Z</time>
      </trkpt>
      <trkpt lat="47.75784" lon="3.48827">
        <ele>184</ele>
        <time>2019-12-14T12:29:46Z</time>
      </trkpt>
      <trkpt lat="47.75784" lon="3.48827">
        <ele>184</ele>
        <time>2019-12-14T12:29:52Z</time>
      </trkpt>
      <trkpt lat="47.75784" lon="3.48826">
        <ele>184</ele>
        <time>2019-12-14T12:29:58Z</time>
      </trkpt>
      <trkpt lat="47.75786" lon="3.48825">
        <ele>183</ele>
        <time>2019-12-14T12:30:04Z</time>
      </trkpt>
      <trkpt lat="47.75786" lon="3.48826">
        <ele>182</ele>
        <time>2019-12-14T12:30:09Z</time>
      </trkpt>
      <trkpt lat="47.75785" lon="3.48826">
        <ele>182</ele>
        <time>2019-12-14T12:30:14Z</time>
      </trkpt>
      <trkpt lat="47.75786" lon="3.48826">
        <ele>182</ele>
        <time>2019-12-14T12:30:19Z</time>
      </trkpt>
      <trkpt lat="47.75786" lon="3.48826">
        <ele>182</ele>
        <time>2019-12-14T12:30:25Z</time>
      </trkpt>
      <trkpt lat="47.75786" lon="3.48826">
        <ele>182</ele>
        <time>2019-12-14T12:30:31Z</time>
      </trkpt>
      <trkpt lat="47.75786" lon="3.48826">
        <ele>182</ele>
        <time>2019-12-14T12:30:37Z</time>
      </trkpt>
      <trkpt lat="47.75786" lon="3.48826">
        <ele>182</ele>
        <time>2019-12-14T12:30:42Z</time>
      </trkpt>
      <trkpt lat="47.75785" lon="3.48825">
        <ele>182</ele>
        <time>2019-12-14T12:30:48Z</time>
      </trkpt>
      <trkpt lat="47.75787" lon="3.48817">
        <ele>182</ele>
        <time>2019-12-14T12:30:53Z</time>
      </trkpt>
      <trkpt lat="47.75792" lon="3.48811">
        <ele>185</ele>
        <time>2019-12-14T12:30:58Z</time>
      </trkpt>
      <trkpt lat="47.75796" lon="3.48805">
        <ele>184</ele>
        <time>2019-12-14T12:31:03Z</time>
      </trkpt>
      <trkpt lat="47.75802" lon="3.488">
        <ele>182</ele>
        <time>2019-12-14T12:31:08Z</time>
      </trkpt>
      <trkpt lat="47.75808" lon="3.48796">
        <ele>181</ele>
        <time>2019-12-14T12:31:14Z</time>
      </trkpt>
      <trkpt lat="47.75813" lon="3.48791">
        <ele>181</ele>
        <time>2019-12-14T12:31:20Z</time>
      </trkpt>
      <trkpt lat="47.7582" lon="3.48785">
        <ele>182</ele>
        <time>2019-12-14T12:31:25Z</time>
      </trkpt>
      <trkpt lat="47.75824" lon="3.48781">
        <ele>181</ele>
        <time>2019-12-14T12:31:30Z</time>
      </trkpt>
      <trkpt lat="47.7583" lon="3.48777">
        <ele>182</ele>
        <time>2019-12-14T12:31:36Z</time>
      </trkpt>
      <trkpt lat="47.75836" lon="3.4877">
        <ele>182</ele>
        <time>2019-12-14T12:31:41Z</time>
      </trkpt>
      <trkpt lat="47.75844" lon="3.48762">
        <ele>183</ele>
        <time>2019-12-14T12:31:48Z</time>
      </trkpt>
      <trkpt lat="47.75847" lon="3.48756">
        <ele>183</ele>
        <time>2019-12-14T12:31:54Z</time>
      </trkpt>
      <trkpt lat="47.75852" lon="3.48751">
        <ele>182</ele>
        <time>2019-12-14T12:31:59Z</time>
      </trkpt>
      <trkpt lat="47.75854" lon="3.48749">
        <ele>179</ele>
        <time>2019-12-14T12:32:04Z</time>
      </trkpt>
      <trkpt lat="47.7586" lon="3.48745">
        <ele>179</ele>
        <time>2019-12-14T12:32:10Z</time>
      </trkpt>
      <trkpt lat="47.75865" lon="3.48738">
        <ele>180</ele>
        <time>2019-12-14T12:32:15Z</time>
      </trkpt>
      <trkpt lat="47.75869" lon="3.48733">
        <ele>178</ele>
        <time>2019-12-14T12:32:20Z</time>
      </trkpt>
      <trkpt lat="47.75873" lon="3.4873">
        <ele>178</ele>
        <time>2019-12-14T12:32:25Z</time>
      </trkpt>
      <trkpt lat="47.75876" lon="3.48723">
        <ele>181</ele>
        <time>2019-12-14T12:32:30Z</time>
      </trkpt>
      <trkpt lat="47.75884" lon="3.48724">
        <ele>182</ele>
        <time>2019-12-14T12:32:36Z</time>
      </trkpt>
      <trkpt lat="47.75894" lon="3.48724">
        <ele>178</ele>
        <time>2019-12-14T12:32:42Z</time>
      </trkpt>
      <trkpt lat="47.75903" lon="3.48723">
        <ele>175</ele>
        <time>2019-12-14T12:32:48Z</time>
      </trkpt>
      <trkpt lat="47.75905" lon="3.48727">
        <ele>177</ele>
        <time>2019-12-14T12:32:53Z</time>
      </trkpt>
      <trkpt lat="47.7591" lon="3.4873">
        <ele>179</ele>
        <time>2019-12-14T12:32:59Z</time>
      </trkpt>
      <trkpt lat="47.75916" lon="3.48731">
        <ele>179</ele>
        <time>2019-12-14T12:33:04Z</time>
      </trkpt>
      <trkpt lat="47.75917" lon="3.48731">
        <ele>180</ele>
        <time>2019-12-14T12:33:09Z</time>
      </trkpt>
      <trkpt lat="47.75924" lon="3.48737">
        <ele>176</ele>
        <time>2019-12-14T12:33:15Z</time>
      </trkpt>
      <trkpt lat="47.75932" lon="3.4874">
        <ele>174</ele>
        <time>2019-12-14T12:33:20Z</time>
      </trkpt>
      <trkpt lat="47.75934" lon="3.48742">
        <ele>177</ele>
        <time>2019-12-14T12:33:25Z</time>
      </trkpt>
      <trkpt lat="47.75936" lon="3.48745">
        <ele>177</ele>
        <time>2019-12-14T12:33:30Z</time>
      </trkpt>
      <trkpt lat="47.75937" lon="3.48746">
        <ele>179</ele>
        <time>2019-12-14T12:33:36Z</time>
      </trkpt>
      <trkpt lat="47.7594" lon="3.48746">
        <ele>180</ele>
        <time>2019-12-14T12:33:41Z</time>
      </trkpt>
      <trkpt lat="47.75948" lon="3.48746">
        <ele>179</ele>
        <time>2019-12-14T12:33:47Z</time>
      </trkpt>
      <trkpt lat="47.75958" lon="3.48745">
        <ele>176</ele>
        <time>2019-12-14T12:33:53Z</time>
      </trkpt>
      <trkpt lat="47.75964" lon="3.48742">
        <ele>175</ele>
        <time>2019-12-14T12:33:59Z</time>
      </trkpt>
      <trkpt lat="47.75967" lon="3.4874">
        <ele>174</ele>
        <time>2019-12-14T12:34:04Z</time>
      </trkpt>
      <trkpt lat="47.75971" lon="3.48734">
        <ele>175</ele>
        <time>2019-12-14T12:34:09Z</time>
      </trkpt>
      <trkpt lat="47.75976" lon="3.48728">
        <ele>176</ele>
        <time>2019-12-14T12:34:15Z</time>
      </trkpt>
      <trkpt lat="47.75981" lon="3.48721">
        <ele>176</ele>
        <time>2019-12-14T12:34:21Z</time>
      </trkpt>
      <trkpt lat="47.75984" lon="3.48715">
        <ele>178</ele>
        <time>2019-12-14T12:34:26Z</time>
      </trkpt>
      <trkpt lat="47.75988" lon="3.48708">
        <ele>178</ele>
        <time>2019-12-14T12:34:31Z</time>
      </trkpt>
      <trkpt lat="47.75996" lon="3.48703">
        <ele>176</ele>
        <time>2019-12-14T12:34:37Z</time>
      </trkpt>
      <trkpt lat="47.76001" lon="3.48695">
        <ele>177</ele>
        <time>2019-12-14T12:34:43Z</time>
      </trkpt>
      <trkpt lat="47.76006" lon="3.48689">
        <ele>178</ele>
        <time>2019-12-14T12:34:49Z</time>
      </trkpt>
      <trkpt lat="47.76007" lon="3.4868">
        <ele>177</ele>
        <time>2019-12-14T12:34:55Z</time>
      </trkpt>
      <trkpt lat="47.76011" lon="3.48673">
        <ele>175</ele>
        <time>2019-12-14T12:35:01Z</time>
      </trkpt>
      <trkpt lat="47.76011" lon="3.48666">
        <ele>177</ele>
        <time>2019-12-14T12:35:06Z</time>
      </trkpt>
      <trkpt lat="47.76013" lon="3.48659">
        <ele>178</ele>
        <time>2019-12-14T12:35:11Z</time>
      </trkpt>
      <trkpt lat="47.76017" lon="3.48651">
        <ele>181</ele>
        <time>2019-12-14T12:35:17Z</time>
      </trkpt>
      <trkpt lat="47.76023" lon="3.48645">
        <ele>177</ele>
        <time>2019-12-14T12:35:23Z</time>
      </trkpt>
      <trkpt lat="47.76027" lon="3.48636">
        <ele>178</ele>
        <time>2019-12-14T12:35:28Z</time>
      </trkpt>
      <trkpt lat="47.76033" lon="3.4863">
        <ele>177</ele>
        <time>2019-12-14T12:35:34Z</time>
      </trkpt>
      <trkpt lat="47.76039" lon="3.48627">
        <ele>178</ele>
        <time>2019-12-14T12:35:40Z</time>
      </trkpt>
      <trkpt lat="47.76042" lon="3.48629">
        <ele>181</ele>
        <time>2019-12-14T12:35:45Z</time>
      </trkpt>
      <trkpt lat="47.76042" lon="3.48631">
        <ele>183</ele>
        <time>2019-12-14T12:35:51Z</time>
      </trkpt>
      <trkpt lat="47.76043" lon="3.48631">
        <ele>183</ele>
        <time>2019-12-14T12:35:56Z</time>
      </trkpt>
      <trkpt lat="47.76044" lon="3.48631">
        <ele>184</ele>
        <time>2019-12-14T12:36:02Z</time>
      </trkpt>
      <trkpt lat="47.76044" lon="3.48631">
        <ele>184</ele>
        <time>2019-12-14T12:36:08Z</time>
      </trkpt>
      <trkpt lat="47.76043" lon="3.48633">
        <ele>182</ele>
        <time>2019-12-14T12:36:14Z</time>
      </trkpt>
      <trkpt lat="47.76043" lon="3.48633">
        <ele>181</ele>
        <time>2019-12-14T12:36:20Z</time>
      </trkpt>
      <trkpt lat="47.76043" lon="3.48633">
        <ele>181</ele>
        <time>2019-12-14T12:36:25Z</time>
      </trkpt>
      <trkpt lat="47.76043" lon="3.48633">
        <ele>181</ele>
        <time>2019-12-14T12:36:31Z</time>
      </trkpt>
      <trkpt lat="47.76045" lon="3.48633">
        <ele>183</ele>
        <time>2019-12-14T12:36:37Z</time>
      </trkpt>
      <trkpt lat="47.76048" lon="3.4864">
        <ele>182</ele>
        <time>2019-12-14T12:36:43Z</time>
      </trkpt>
      <trkpt lat="47.76051" lon="3.48647">
        <ele>181</ele>
        <time>2019-12-14T12:36:48Z</time>
      </trkpt>
      <trkpt lat="47.76051" lon="3.48656">
        <ele>181</ele>
        <time>2019-12-14T12:36:53Z</time>
      </trkpt>
      <trkpt lat="47.76054" lon="3.48664">
        <ele>181</ele>
        <time>2019-12-14T12:36:59Z</time>
      </trkpt>
      <trkpt lat="47.76055" lon="3.48672">
        <ele>179</ele>
        <time>2019-12-14T12:37:04Z</time>
      </trkpt>
      <trkpt lat="47.76057" lon="3.48679">
        <ele>179</ele>
        <time>2019-12-14T12:37:09Z</time>
      </trkpt>
      <trkpt lat="47.76061" lon="3.48687">
        <ele>179</ele>
        <time>2019-12-14T12:37:14Z</time>
      </trkpt>
      <trkpt lat="47.76061" lon="3.48694">
        <ele>178</ele>
        <time>2019-12-14T12:37:19Z</time>
      </trkpt>
      <trkpt lat="47.76061" lon="3.48704">
        <ele>179</ele>
        <time>2019-12-14T12:37:25Z</time>
      </trkpt>
      <trkpt lat="47.76063" lon="3.48709">
        <ele>179</ele>
        <time>2019-12-14T12:37:31Z</time>
      </trkpt>
      <trkpt lat="47.76064" lon="3.48716">
        <ele>178</ele>
        <time>2019-12-14T12:37:36Z</time>
      </trkpt>
      <trkpt lat="47.76068" lon="3.48722">
        <ele>178</ele>
        <time>2019-12-14T12:37:41Z</time>
      </trkpt>
      <trkpt lat="47.76072" lon="3.48726">
        <ele>179</ele>
        <time>2019-12-14T12:37:46Z</time>
      </trkpt>
      <trkpt lat="47.76074" lon="3.4873">
        <ele>178</ele>
        <time>2019-12-14T12:37:51Z</time>
      </trkpt>
      <trkpt lat="47.76081" lon="3.48737">
        <ele>177</ele>
        <time>2019-12-14T12:37:57Z</time>
      </trkpt>
      <trkpt lat="47.76084" lon="3.48741">
        <ele>178</ele>
        <time>2019-12-14T12:38:02Z</time>
      </trkpt>
      <trkpt lat="47.76088" lon="3.48748">
        <ele>180</ele>
        <time>2019-12-14T12:38:08Z</time>
      </trkpt>
      <trkpt lat="47.76089" lon="3.48749">
        <ele>180</ele>
        <time>2019-12-14T12:38:13Z</time>
      </trkpt>
      <trkpt lat="47.76091" lon="3.48751">
        <ele>179</ele>
        <time>2019-12-14T12:38:19Z</time>
      </trkpt>
      <trkpt lat="47.76095" lon="3.48752">
        <ele>178</ele>
        <time>2019-12-14T12:38:24Z</time>
      </trkpt>
      <trkpt lat="47.76101" lon="3.48759">
        <ele>178</ele>
        <time>2019-12-14T12:38:30Z</time>
      </trkpt>
      <trkpt lat="47.76104" lon="3.48763">
        <ele>177</ele>
        <time>2019-12-14T12:38:35Z</time>
      </trkpt>
      <trkpt lat="47.7611" lon="3.4877">
        <ele>178</ele>
        <time>2019-12-14T12:38:41Z</time>
      </trkpt>
      <trkpt lat="47.76111" lon="3.48774">
        <ele>179</ele>
        <time>2019-12-14T12:38:47Z</time>
      </trkpt>
      <trkpt lat="47.76116" lon="3.48776">
        <ele>177</ele>
        <time>2019-12-14T12:38:52Z</time>
      </trkpt>
      <trkpt lat="47.76117" lon="3.48778">
        <ele>177</ele>
        <time>2019-12-14T12:38:58Z</time>
      </trkpt>
      <trkpt lat="47.76118" lon="3.48778">
        <ele>177</ele>
        <time>2019-12-14T12:39:04Z</time>
      </trkpt>
      <trkpt lat="47.76122" lon="3.48781">
        <ele>178</ele>
        <time>2019-12-14T12:39:10Z</time>
      </trkpt>
      <trkpt lat="47.7613" lon="3.48787">
        <ele>180</ele>
        <time>2019-12-14T12:39:15Z</time>
      </trkpt>
      <trkpt lat="47.76135" lon="3.48795">
        <ele>176</ele>
        <time>2019-12-14T12:39:22Z</time>
      </trkpt>
      <trkpt lat="47.76136" lon="3.48796">
        <ele>175</ele>
        <time>2019-12-14T12:39:28Z</time>
      </trkpt>
      <trkpt lat="47.76138" lon="3.48795">
        <ele>176</ele>
        <time>2019-12-14T12:39:34Z</time>
      </trkpt>
      <trkpt lat="47.76141" lon="3.48789">
        <ele>177</ele>
        <time>2019-12-14T12:39:39Z</time>
      </trkpt>
      <trkpt lat="47.76145" lon="3.48788">
        <ele>179</ele>
        <time>2019-12-14T12:39:45Z</time>
      </trkpt>
      <trkpt lat="47.76148" lon="3.48789">
        <ele>180</ele>
        <time>2019-12-14T12:39:50Z</time>
      </trkpt>
      <trkpt lat="47.76148" lon="3.48788">
        <ele>180</ele>
        <time>2019-12-14T12:39:56Z</time>
      </trkpt>
      <trkpt lat="47.76148" lon="3.48788">
        <ele>180</ele>
        <time>2019-12-14T12:40:01Z</time>
      </trkpt>
      <trkpt lat="47.76148" lon="3.48788">
        <ele>180</ele>
        <time>2019-12-14T12:40:07Z</time>
      </trkpt>
      <trkpt lat="47.76148" lon="3.48788">
        <ele>180</ele>
        <time>2019-12-14T12:40:12Z</time>
      </trkpt>
      <trkpt lat="47.76148" lon="3.48788">
        <ele>180</ele>
        <time>2019-12-14T12:40:18Z</time>
      </trkpt>
      <trkpt lat="47.76148" lon="3.48788">
        <ele>180</ele>
        <time>2019-12-14T12:40:23Z</time>
      </trkpt>
      <trkpt lat="47.76148" lon="3.48788">
        <ele>180</ele>
        <time>2019-12-14T12:40:28Z</time>
      </trkpt>
      <trkpt lat="47.76148" lon="3.48788">
        <ele>180</ele>
        <time>2019-12-14T12:40:34Z</time>
      </trkpt>
      <trkpt lat="47.76148" lon="3.48788">
        <ele>180</ele>
        <time>2019-12-14T12:40:39Z</time>
      </trkpt>
      <trkpt lat="47.76148" lon="3.48788">
        <ele>180</ele>
        <time>2019-12-14T12:40:44Z</time>
      </trkpt>
      <trkpt lat="47.76151" lon="3.48791">
        <ele>181</ele>
        <time>2019-12-14T12:40:49Z</time>
      </trkpt>
      <trkpt lat="47.76159" lon="3.48797">
        <ele>181</ele>
        <time>2019-12-14T12:40:55Z</time>
      </trkpt>
      <trkpt lat="47.76165" lon="3.48801">
        <ele>182</ele>
        <time>2019-12-14T12:41:01Z</time>
      </trkpt>
      <trkpt lat="47.76168" lon="3.48803">
        <ele>181</ele>
        <time>2019-12-14T12:41:06Z</time>
      </trkpt>
      <trkpt lat="47.76168" lon="3.48803">
        <ele>181</ele>
        <time>2019-12-14T12:41:12Z</time>
      </trkpt>
      <trkpt lat="47.76168" lon="3.48804">
        <ele>181</ele>
        <time>2019-12-14T12:41:18Z</time>
      </trkpt>
      <trkpt lat="47.7617" lon="3.48811">
        <ele>180</ele>
        <time>2019-12-14T12:41:24Z</time>
      </trkpt>
      <trkpt lat="47.76173" lon="3.48805">
        <ele>178</ele>
        <time>2019-12-14T12:41:30Z</time>
      </trkpt>
      <trkpt lat="47.76173" lon="3.48805">
        <ele>179</ele>
        <time>2019-12-14T12:41:35Z</time>
      </trkpt>
      <trkpt lat="47.76173" lon="3.48806">
        <ele>179</ele>
        <time>2019-12-14T12:41:40Z</time>
      </trkpt>
      <trkpt lat="47.76178" lon="3.48813">
        <ele>176</ele>
        <time>2019-12-14T12:41:45Z</time>
      </trkpt>
      <trkpt lat="47.76183" lon="3.48816">
        <ele>179</ele>
        <time>2019-12-14T12:41:51Z</time>
      </trkpt>
      <trkpt lat="47.7619" lon="3.48821">
        <ele>181</ele>
        <time>2019-12-14T12:41:57Z</time>
      </trkpt>
      <trkpt lat="47.76198" lon="3.48825">
        <ele>181</ele>
        <time>2019-12-14T12:42:03Z</time>
      </trkpt>
      <trkpt lat="47.76201" lon="3.48828">
        <ele>182</ele>
        <time>2019-12-14T12:42:08Z</time>
      </trkpt>
      <trkpt lat="47.7621" lon="3.48834">
        <ele>181</ele>
        <time>2019-12-14T12:42:14Z</time>
      </trkpt>
      <trkpt lat="47.76215" lon="3.48839">
        <ele>181</ele>
        <time>2019-12-14T12:42:19Z</time>
      </trkpt>
      <trkpt lat="47.76221" lon="3.48843">
        <ele>180</ele>
        <time>2019-12-14T12:42:24Z</time>
      </trkpt>
      <trkpt lat="47.76225" lon="3.48849">
        <ele>181</ele>
        <time>2019-12-14T12:42:29Z</time>
      </trkpt>
      <trkpt lat="47.76231" lon="3.48854">
        <ele>182</ele>
        <time>2019-12-14T12:42:35Z</time>
      </trkpt>
      <trkpt lat="47.76235" lon="3.4886">
        <ele>181</ele>
        <time>2019-12-14T12:42:40Z</time>
      </trkpt>
      <trkpt lat="47.7624" lon="3.48863">
        <ele>180</ele>
        <time>2019-12-14T12:42:45Z</time>
      </trkpt>
      <trkpt lat="47.76247" lon="3.48868">
        <ele>178</ele>
        <time>2019-12-14T12:42:51Z</time>
      </trkpt>
      <trkpt lat="47.76254" lon="3.48874">
        <ele>179</ele>
        <time>2019-12-14T12:42:57Z</time>
      </trkpt>
      <trkpt lat="47.76261" lon="3.4888">
        <ele>178</ele>
        <time>2019-12-14T12:43:02Z</time>
      </trkpt>
      <trkpt lat="47.76263" lon="3.48889">
        <ele>178</ele>
        <time>2019-12-14T12:43:08Z</time>
      </trkpt>
      <trkpt lat="47.76271" lon="3.48895">
        <ele>177</ele>
        <time>2019-12-14T12:43:14Z</time>
      </trkpt>
      <trkpt lat="47.76277" lon="3.489">
        <ele>177</ele>
        <time>2019-12-14T12:43:19Z</time>
      </trkpt>
      <trkpt lat="47.76283" lon="3.48903">
        <ele>177</ele>
        <time>2019-12-14T12:43:24Z</time>
      </trkpt>
      <trkpt lat="47.76289" lon="3.48907">
        <ele>176</ele>
        <time>2019-12-14T12:43:29Z</time>
      </trkpt>
      <trkpt lat="47.76293" lon="3.48913">
        <ele>178</ele>
        <time>2019-12-14T12:43:35Z</time>
      </trkpt>
      <trkpt lat="47.76299" lon="3.48919">
        <ele>177</ele>
        <time>2019-12-14T12:43:41Z</time>
      </trkpt>
      <trkpt lat="47.76307" lon="3.48922">
        <ele>177</ele>
        <time>2019-12-14T12:43:46Z</time>
      </trkpt>
      <trkpt lat="47.76313" lon="3.48924">
        <ele>175</ele>
        <time>2019-12-14T12:43:51Z</time>
      </trkpt>
      <trkpt lat="47.76321" lon="3.48928">
        <ele>174</ele>
        <time>2019-12-14T12:43:57Z</time>
      </trkpt>
      <trkpt lat="47.76321" lon="3.48931">
        <ele>175</ele>
        <time>2019-12-14T12:44:03Z</time>
      </trkpt>
      <trkpt lat="47.7632" lon="3.48932">
        <ele>177</ele>
        <time>2019-12-14T12:44:10Z</time>
      </trkpt>
      <trkpt lat="47.76319" lon="3.48932">
        <ele>177</ele>
        <time>2019-12-14T12:44:15Z</time>
      </trkpt>
      <trkpt lat="47.7632" lon="3.48932">
        <ele>177</ele>
        <time>2019-12-14T12:44:20Z</time>
      </trkpt>
      <trkpt lat="47.7632" lon="3.48932">
        <ele>176</ele>
        <time>2019-12-14T12:44:27Z</time>
      </trkpt>
      <trkpt lat="47.7632" lon="3.48932">
        <ele>176</ele>
        <time>2019-12-14T12:44:32Z</time>
      </trkpt>
      <trkpt lat="47.7632" lon="3.48932">
        <ele>176</ele>
        <time>2019-12-14T12:44:37Z</time>
      </trkpt>
      <trkpt lat="47.7632" lon="3.48932">
        <ele>176</ele>
        <time>2019-12-14T12:44:42Z</time>
      </trkpt>
      <trkpt lat="47.7632" lon="3.48932">
        <ele>176</ele>
        <time>2019-12-14T12:44:47Z</time>
      </trkpt>
      <trkpt lat="47.76321" lon="3.48932">
        <ele>176</ele>
        <time>2019-12-14T12:44:52Z</time>
      </trkpt>
      <trkpt lat="47.76321" lon="3.48932">
        <ele>177</ele>
        <time>2019-12-14T12:44:58Z</time>
      </trkpt>
      <trkpt lat="47.7632" lon="3.48934">
        <ele>177</ele>
        <time>2019-12-14T12:45:03Z</time>
      </trkpt>
      <trkpt lat="47.7632" lon="3.48936">
        <ele>179</ele>
        <time>2019-12-14T12:45:09Z</time>
      </trkpt>
      <trkpt lat="47.76323" lon="3.48939">
        <ele>177</ele>
        <time>2019-12-14T12:45:15Z</time>
      </trkpt>
      <trkpt lat="47.76326" lon="3.48939">
        <ele>178</ele>
        <time>2019-12-14T12:45:21Z</time>
      </trkpt>
      <trkpt lat="47.76328" lon="3.4894">
        <ele>179</ele>
        <time>2019-12-14T12:45:27Z</time>
      </trkpt>
      <trkpt lat="47.76331" lon="3.48945">
        <ele>177</ele>
        <time>2019-12-14T12:45:32Z</time>
      </trkpt>
      <trkpt lat="47.76334" lon="3.4895">
        <ele>177</ele>
        <time>2019-12-14T12:45:38Z</time>
      </trkpt>
      <trkpt lat="47.76334" lon="3.4895">
        <ele>178</ele>
        <time>2019-12-14T12:45:43Z</time>
      </trkpt>
      <trkpt lat="47.76335" lon="3.4895">
        <ele>177</ele>
        <time>2019-12-14T12:45:48Z</time>
      </trkpt>
      <trkpt lat="47.76335" lon="3.48949">
        <ele>177</ele>
        <time>2019-12-14T12:45:54Z</time>
      </trkpt>
      <trkpt lat="47.76335" lon="3.48949">
        <ele>177</ele>
        <time>2019-12-14T12:45:59Z</time>
      </trkpt>
      <trkpt lat="47.76335" lon="3.48949">
        <ele>177</ele>
        <time>2019-12-14T12:46:05Z</time>
      </trkpt>
      <trkpt lat="47.76335" lon="3.48949">
        <ele>177</ele>
        <time>2019-12-14T12:46:11Z</time>
      </trkpt>
      <trkpt lat="47.76336" lon="3.48949">
        <ele>177</ele>
        <time>2019-12-14T12:46:16Z</time>
      </trkpt>
      <trkpt lat="47.76344" lon="3.48958">
        <ele>181</ele>
        <time>2019-12-14T12:46:22Z</time>
      </trkpt>
      <trkpt lat="47.76349" lon="3.48962">
        <ele>178</ele>
        <time>2019-12-14T12:46:28Z</time>
      </trkpt>
      <trkpt lat="47.76358" lon="3.48965">
        <ele>177</ele>
        <time>2019-12-14T12:46:33Z</time>
      </trkpt>
      <trkpt lat="47.76359" lon="3.48973">
        <ele>181</ele>
        <time>2019-12-14T12:46:38Z</time>
      </trkpt>
      <trkpt lat="47.76363" lon="3.48978">
        <ele>179</ele>
        <time>2019-12-14T12:46:43Z</time>
      </trkpt>
      <trkpt lat="47.7637" lon="3.48982">
        <ele>178</ele>
        <time>2019-12-14T12:46:49Z</time>
      </trkpt>
      <trkpt lat="47.76375" lon="3.48988">
        <ele>177</ele>
        <time>2019-12-14T12:46:55Z</time>
      </trkpt>
      <trkpt lat="47.76382" lon="3.48993">
        <ele>175</ele>
        <time>2019-12-14T12:47:01Z</time>
      </trkpt>
      <trkpt lat="47.76381" lon="3.48996">
        <ele>176</ele>
        <time>2019-12-14T12:47:06Z</time>
      </trkpt>
      <trkpt lat="47.7639" lon="3.49002">
        <ele>176</ele>
        <time>2019-12-14T12:47:11Z</time>
      </trkpt>
      <trkpt lat="47.76396" lon="3.49009">
        <ele>176</ele>
        <time>2019-12-14T12:47:17Z</time>
      </trkpt>
      <trkpt lat="47.76402" lon="3.49015">
        <ele>178</ele>
        <time>2019-12-14T12:47:23Z</time>
      </trkpt>
      <trkpt lat="47.76404" lon="3.4902">
        <ele>178</ele>
        <time>2019-12-14T12:47:28Z</time>
      </trkpt>
      <trkpt lat="47.76411" lon="3.49027">
        <ele>175</ele>
        <time>2019-12-14T12:47:33Z</time>
      </trkpt>
      <trkpt lat="47.76417" lon="3.49033">
        <ele>177</ele>
        <time>2019-12-14T12:47:39Z</time>
      </trkpt>
      <trkpt lat="47.76424" lon="3.49037">
        <ele>176</ele>
        <time>2019-12-14T12:47:45Z</time>
      </trkpt>
      <trkpt lat="47.76438" lon="3.49049">
        <ele>172</ele>
        <time>2019-12-14T12:47:53Z</time>
      </trkpt>
      <trkpt lat="47.76443" lon="3.49054">
        <ele>173</ele>
        <time>2019-12-14T12:47:59Z</time>
      </trkpt>
      <trkpt lat="47.76445" lon="3.49058">
        <ele>177</ele>
        <time>2019-12-14T12:48:05Z</time>
      </trkpt>
      <trkpt lat="47.76453" lon="3.4906">
        <ele>176</ele>
        <time>2019-12-14T12:48:11Z</time>
      </trkpt>
      <trkpt lat="47.76455" lon="3.49065">
        <ele>177</ele>
        <time>2019-12-14T12:48:16Z</time>
      </trkpt>
      <trkpt lat="47.76458" lon="3.49069">
        <ele>177</ele>
        <time>2019-12-14T12:48:21Z</time>
      </trkpt>
      <trkpt lat="47.76465" lon="3.49071">
        <ele>176</ele>
        <time>2019-12-14T12:48:26Z</time>
      </trkpt>
      <trkpt lat="47.76465" lon="3.4907">
        <ele>178</ele>
        <time>2019-12-14T12:48:31Z</time>
      </trkpt>
      <trkpt lat="47.76466" lon="3.49069">
        <ele>177</ele>
        <time>2019-12-14T12:48:37Z</time>
      </trkpt>
      <trkpt lat="47.76466" lon="3.49069">
        <ele>177</ele>
        <time>2019-12-14T12:48:42Z</time>
      </trkpt>
      <trkpt lat="47.76466" lon="3.49069">
        <ele>177</ele>
        <time>2019-12-14T12:48:47Z</time>
      </trkpt>
      <trkpt lat="47.76466" lon="3.49069">
        <ele>177</ele>
        <time>2019-12-14T12:48:53Z</time>
      </trkpt>
      <trkpt lat="47.76466" lon="3.49069">
        <ele>177</ele>
        <time>2019-12-14T12:48:58Z</time>
      </trkpt>
      <trkpt lat="47.76466" lon="3.49069">
        <ele>177</ele>
        <time>2019-12-14T12:49:03Z</time>
      </trkpt>
      <trkpt lat="47.76466" lon="3.49069">
        <ele>177</ele>
        <time>2019-12-14T12:49:09Z</time>
      </trkpt>
      <trkpt lat="47.76466" lon="3.49069">
        <ele>177</ele>
        <time>2019-12-14T12:49:14Z</time>
      </trkpt>
      <trkpt lat="47.76468" lon="3.49068">
        <ele>176</ele>
        <time>2019-12-14T12:49:20Z</time>
      </trkpt>
      <trkpt lat="47.76468" lon="3.49068">
        <ele>175</ele>
        <time>2019-12-14T12:49:26Z</time>
      </trkpt>
      <trkpt lat="47.7647" lon="3.49071">
        <ele>174</ele>
        <time>2019-12-14T12:49:32Z</time>
      </trkpt>
      <trkpt lat="47.76473" lon="3.49074">
        <ele>175</ele>
        <time>2019-12-14T12:49:37Z</time>
      </trkpt>
      <trkpt lat="47.76478" lon="3.49077">
        <ele>175</ele>
        <time>2019-12-14T12:49:43Z</time>
      </trkpt>
      <trkpt lat="47.76479" lon="3.49079">
        <ele>176</ele>
        <time>2019-12-14T12:49:48Z</time>
      </trkpt>
      <trkpt lat="47.76479" lon="3.49081">
        <ele>175</ele>
        <time>2019-12-14T12:49:54Z</time>
      </trkpt>
      <trkpt lat="47.76481" lon="3.49083">
        <ele>175</ele>
        <time>2019-12-14T12:49:59Z</time>
      </trkpt>
      <trkpt lat="47.76482" lon="3.49083">
        <ele>176</ele>
        <time>2019-12-14T12:50:04Z</time>
      </trkpt>
      <trkpt lat="47.76483" lon="3.49083">
        <ele>177</ele>
        <time>2019-12-14T12:50:09Z</time>
      </trkpt>
      <trkpt lat="47.76486" lon="3.49085">
        <ele>176</ele>
        <time>2019-12-14T12:50:15Z</time>
      </trkpt>
      <trkpt lat="47.76488" lon="3.49088">
        <ele>176</ele>
        <time>2019-12-14T12:50:20Z</time>
      </trkpt>
      <trkpt lat="47.76493" lon="3.4909">
        <ele>176</ele>
        <time>2019-12-14T12:50:25Z</time>
      </trkpt>
      <trkpt lat="47.765" lon="3.49094">
        <ele>177</ele>
        <time>2019-12-14T12:50:31Z</time>
      </trkpt>
      <trkpt lat="47.76504" lon="3.49096">
        <ele>178</ele>
        <time>2019-12-14T12:50:37Z</time>
      </trkpt>
      <trkpt lat="47.76501" lon="3.49096">
        <ele>177</ele>
        <time>2019-12-14T12:50:43Z</time>
      </trkpt>
      <trkpt lat="47.76501" lon="3.49096">
        <ele>176</ele>
        <time>2019-12-14T12:50:49Z</time>
      </trkpt>
      <trkpt lat="47.76505" lon="3.49096">
        <ele>175</ele>
        <time>2019-12-14T12:50:55Z</time>
      </trkpt>
      <trkpt lat="47.76505" lon="3.49096">
        <ele>175</ele>
        <time>2019-12-14T12:51:00Z</time>
      </trkpt>
      <trkpt lat="47.76506" lon="3.49097">
        <ele>174</ele>
        <time>2019-12-14T12:51:05Z</time>
      </trkpt>
      <trkpt lat="47.76506" lon="3.49097">
        <ele>175</ele>
        <time>2019-12-14T12:51:11Z</time>
      </trkpt>
      <trkpt lat="47.76506" lon="3.49097">
        <ele>174</ele>
        <time>2019-12-14T12:51:17Z</time>
      </trkpt>
      <trkpt lat="47.76506" lon="3.49097">
        <ele>174</ele>
        <time>2019-12-14T12:51:22Z</time>
      </trkpt>
      <trkpt lat="47.76506" lon="3.49097">
        <ele>174</ele>
        <time>2019-12-14T12:51:27Z</time>
      </trkpt>
      <trkpt lat="47.76506" lon="3.49097">
        <ele>174</ele>
        <time>2019-12-14T12:51:33Z</time>
      </trkpt>
      <trkpt lat="47.76506" lon="3.49097">
        <ele>174</ele>
        <time>2019-12-14T12:51:38Z</time>
      </trkpt>
      <trkpt lat="47.76506" lon="3.49097">
        <ele>174</ele>
        <time>2019-12-14T12:51:44Z</time>
      </trkpt>
      <trkpt lat="47.76505" lon="3.49097">
        <ele>175</ele>
        <time>2019-12-14T12:51:50Z</time>
      </trkpt>
      <trkpt lat="47.76507" lon="3.49098">
        <ele>173</ele>
        <time>2019-12-14T12:51:56Z</time>
      </trkpt>
      <trkpt lat="47.76507" lon="3.49097">
        <ele>173</ele>
        <time>2019-12-14T12:52:02Z</time>
      </trkpt>
      <trkpt lat="47.76508" lon="3.49097">
        <ele>171</ele>
        <time>2019-12-14T12:52:08Z</time>
      </trkpt>
      <trkpt lat="47.76508" lon="3.49097">
        <ele>171</ele>
        <time>2019-12-14T12:52:14Z</time>
      </trkpt>
      <trkpt lat="47.76508" lon="3.49096">
        <ele>170</ele>
        <time>2019-12-14T12:52:19Z</time>
      </trkpt>
      <trkpt lat="47.76508" lon="3.49097">
        <ele>171</ele>
        <time>2019-12-14T12:52:25Z</time>
      </trkpt>
      <trkpt lat="47.76508" lon="3.49097">
        <ele>171</ele>
        <time>2019-12-14T12:52:30Z</time>
      </trkpt>
      <trkpt lat="47.76508" lon="3.49097">
        <ele>171</ele>
        <time>2019-12-14T12:52:36Z</time>
      </trkpt>
      <trkpt lat="47.76504" lon="3.49098">
        <ele>168</ele>
        <time>2019-12-14T12:52:41Z</time>
      </trkpt>
      <trkpt lat="47.76505" lon="3.49097">
        <ele>169</ele>
        <time>2019-12-14T12:52:47Z</time>
      </trkpt>
      <trkpt lat="47.76506" lon="3.49097">
        <ele>169</ele>
        <time>2019-12-14T12:52:53Z</time>
      </trkpt>
      <trkpt lat="47.76506" lon="3.49097">
        <ele>169</ele>
        <time>2019-12-14T12:52:58Z</time>
      </trkpt>
      <trkpt lat="47.76506" lon="3.49097">
        <ele>169</ele>
        <time>2019-12-14T12:53:03Z</time>
      </trkpt>
      <trkpt lat="47.76506" lon="3.49097">
        <ele>169</ele>
        <time>2019-12-14T12:53:09Z</time>
      </trkpt>
      <trkpt lat="47.76506" lon="3.49097">
        <ele>169</ele>
        <time>2019-12-14T12:53:15Z</time>
      </trkpt>
      <trkpt lat="47.76506" lon="3.49097">
        <ele>169</ele>
        <time>2019-12-14T12:53:21Z</time>
      </trkpt>
      <trkpt lat="47.76504" lon="3.49096">
        <ele>170</ele>
        <time>2019-12-14T12:53:26Z</time>
      </trkpt>
      <trkpt lat="47.76505" lon="3.49097">
        <ele>169</ele>
        <time>2019-12-14T12:53:32Z</time>
      </trkpt>
      <trkpt lat="47.76505" lon="3.49097">
        <ele>169</ele>
        <time>2019-12-14T12:53:38Z</time>
      </trkpt>
      <trkpt lat="47.76504" lon="3.49097">
        <ele>167</ele>
        <time>2019-12-14T12:53:44Z</time>
      </trkpt>
      <trkpt lat="47.76504" lon="3.49098">
        <ele>166</ele>
        <time>2019-12-14T12:53:50Z</time>
      </trkpt>
      <trkpt lat="47.76506" lon="3.49099">
        <ele>165</ele>
        <time>2019-12-14T12:53:56Z</time>
      </trkpt>
      <trkpt lat="47.76512" lon="3.49101">
        <ele>167</ele>
        <time>2019-12-14T12:54:01Z</time>
      </trkpt>
      <trkpt lat="47.76514" lon="3.49103">
        <ele>166</ele>
        <time>2019-12-14T12:54:06Z</time>
      </trkpt>
      <trkpt lat="47.7652" lon="3.49104">
        <ele>170</ele>
        <time>2019-12-14T12:54:12Z</time>
      </trkpt>
      <trkpt lat="47.76524" lon="3.49108">
        <ele>166</ele>
        <time>2019-12-14T12:54:17Z</time>
      </trkpt>
      <trkpt lat="47.76525" lon="3.49106">
        <ele>167</ele>
        <time>2019-12-14T12:54:23Z</time>
      </trkpt>
      <trkpt lat="47.7653" lon="3.49109">
        <ele>169</ele>
        <time>2019-12-14T12:54:29Z</time>
      </trkpt>
      <trkpt lat="47.76539" lon="3.49113">
        <ele>170</ele>
        <time>2019-12-14T12:54:34Z</time>
      </trkpt>
      <trkpt lat="47.76549" lon="3.49115">
        <ele>168</ele>
        <time>2019-12-14T12:54:40Z</time>
      </trkpt>
      <trkpt lat="47.76552" lon="3.4912">
        <ele>168</ele>
        <time>2019-12-14T12:54:46Z</time>
      </trkpt>
      <trkpt lat="47.76559" lon="3.49123">
        <ele>168</ele>
        <time>2019-12-14T12:54:52Z</time>
      </trkpt>
      <trkpt lat="47.76563" lon="3.49129">
        <ele>168</ele>
        <time>2019-12-14T12:54:57Z</time>
      </trkpt>
      <trkpt lat="47.76568" lon="3.49134">
        <ele>169</ele>
        <time>2019-12-14T12:55:03Z</time>
      </trkpt>
      <trkpt lat="47.76571" lon="3.49131">
        <ele>171</ele>
        <time>2019-12-14T12:55:09Z</time>
      </trkpt>
      <trkpt lat="47.76574" lon="3.49133">
        <ele>172</ele>
        <time>2019-12-14T12:55:15Z</time>
      </trkpt>
      <trkpt lat="47.76578" lon="3.49135">
        <ele>172</ele>
        <time>2019-12-14T12:55:20Z</time>
      </trkpt>
      <trkpt lat="47.76578" lon="3.49136">
        <ele>172</ele>
        <time>2019-12-14T12:55:26Z</time>
      </trkpt>
      <trkpt lat="47.76578" lon="3.49136">
        <ele>173</ele>
        <time>2019-12-14T12:55:31Z</time>
      </trkpt>
      <trkpt lat="47.76578" lon="3.49137">
        <ele>173</ele>
        <time>2019-12-14T12:55:36Z</time>
      </trkpt>
      <trkpt lat="47.76587" lon="3.4914">
        <ele>174</ele>
        <time>2019-12-14T12:55:42Z</time>
      </trkpt>
      <trkpt lat="47.76592" lon="3.49145">
        <ele>174</ele>
        <time>2019-12-14T12:55:47Z</time>
      </trkpt>
      <trkpt lat="47.76592" lon="3.49146">
        <ele>174</ele>
        <time>2019-12-14T12:55:53Z</time>
      </trkpt>
      <trkpt lat="47.76591" lon="3.49147">
        <ele>173</ele>
        <time>2019-12-14T12:55:58Z</time>
      </trkpt>
      <trkpt lat="47.76591" lon="3.49147">
        <ele>173</ele>
        <time>2019-12-14T12:56:03Z</time>
      </trkpt>
      <trkpt lat="47.76591" lon="3.49147">
        <ele>173</ele>
        <time>2019-12-14T12:56:09Z</time>
      </trkpt>
      <trkpt lat="47.76591" lon="3.49147">
        <ele>173</ele>
        <time>2019-12-14T12:56:15Z</time>
      </trkpt>
      <trkpt lat="47.76591" lon="3.49147">
        <ele>173</ele>
        <time>2019-12-14T12:56:20Z</time>
      </trkpt>
      <trkpt lat="47.76591" lon="3.49147">
        <ele>173</ele>
        <time>2019-12-14T12:56:25Z</time>
      </trkpt>
      <trkpt lat="47.76591" lon="3.49147">
        <ele>173</ele>
        <time>2019-12-14T12:56:30Z</time>
      </trkpt>
      <trkpt lat="47.76591" lon="3.49147">
        <ele>173</ele>
        <time>2019-12-14T12:56:35Z</time>
      </trkpt>
      <trkpt lat="47.76591" lon="3.49147">
        <ele>173</ele>
        <time>2019-12-14T12:56:41Z</time>
      </trkpt>
      <trkpt lat="47.76591" lon="3.49147">
        <ele>173</ele>
        <time>2019-12-14T12:56:47Z</time>
      </trkpt>
      <trkpt lat="47.76591" lon="3.49147">
        <ele>173</ele>
        <time>2019-12-14T12:56:52Z</time>
      </trkpt>
      <trkpt lat="47.76591" lon="3.49147">
        <ele>173</ele>
        <time>2019-12-14T12:56:57Z</time>
      </trkpt>
      <trkpt lat="47.76591" lon="3.49147">
        <ele>173</ele>
        <time>2019-12-14T12:57:03Z</time>
      </trkpt>
      <trkpt lat="47.76591" lon="3.49147">
        <ele>173</ele>
        <time>2019-12-14T12:57:09Z</time>
      </trkpt>
      <trkpt lat="47.76591" lon="3.49148">
        <ele>174</ele>
        <time>2019-12-14T12:57:14Z</time>
      </trkpt>
      <trkpt lat="47.76591" lon="3.49148">
        <ele>174</ele>
        <time>2019-12-14T12:57:20Z</time>
      </trkpt>
      <trkpt lat="47.76591" lon="3.49148">
        <ele>174</ele>
        <time>2019-12-14T12:57:26Z</time>
      </trkpt>
      <trkpt lat="47.76591" lon="3.49148">
        <ele>174</ele>
        <time>2019-12-14T12:57:32Z</time>
      </trkpt>
      <trkpt lat="47.76591" lon="3.49148">
        <ele>174</ele>
        <time>2019-12-14T12:57:37Z</time>
      </trkpt>
      <trkpt lat="47.76591" lon="3.49148">
        <ele>174</ele>
        <time>2019-12-14T12:57:43Z</time>
      </trkpt>
      <trkpt lat="47.76591" lon="3.49148">
        <ele>174</ele>
        <time>2019-12-14T12:57:48Z</time>
      </trkpt>
      <trkpt lat="47.76591" lon="3.49148">
        <ele>174</ele>
        <time>2019-12-14T12:57:54Z</time>
      </trkpt>
      <trkpt lat="47.76591" lon="3.49148">
        <ele>174</ele>
        <time>2019-12-14T12:58:00Z</time>
      </trkpt>
      <trkpt lat="47.76591" lon="3.49148">
        <ele>174</ele>
        <time>2019-12-14T12:58:06Z</time>
      </trkpt>
      <trkpt lat="47.76591" lon="3.49148">
        <ele>174</ele>
        <time>2019-12-14T12:58:12Z</time>
      </trkpt>
      <trkpt lat="47.76591" lon="3.49148">
        <ele>174</ele>
        <time>2019-12-14T12:58:18Z</time>
      </trkpt>
      <trkpt lat="47.76591" lon="3.49148">
        <ele>174</ele>
        <time>2019-12-14T12:58:23Z</time>
      </trkpt>
      <trkpt lat="47.76591" lon="3.49148">
        <ele>174</ele>
        <time>2019-12-14T12:58:29Z</time>
      </trkpt>
      <trkpt lat="47.76591" lon="3.49148">
        <ele>174</ele>
        <time>2019-12-14T12:58:34Z</time>
      </trkpt>
      <trkpt lat="47.76591" lon="3.49148">
        <ele>174</ele>
        <time>2019-12-14T12:58:40Z</time>
      </trkpt>
      <trkpt lat="47.76591" lon="3.49148">
        <ele>174</ele>
        <time>2019-12-14T12:58:45Z</time>
      </trkpt>
      <trkpt lat="47.76591" lon="3.49147">
        <ele>174</ele>
        <time>2019-12-14T12:58:51Z</time>
      </trkpt>
      <trkpt lat="47.76591" lon="3.49147">
        <ele>174</ele>
        <time>2019-12-14T12:58:57Z</time>
      </trkpt>
      <trkpt lat="47.76591" lon="3.49147">
        <ele>174</ele>
        <time>2019-12-14T12:59:02Z</time>
      </trkpt>
      <trkpt lat="47.76591" lon="3.49147">
        <ele>174</ele>
        <time>2019-12-14T12:59:08Z</time>
      </trkpt>
      <trkpt lat="47.76593" lon="3.4915">
        <ele>174</ele>
        <time>2019-12-14T12:59:13Z</time>
      </trkpt>
      <trkpt lat="47.76596" lon="3.49148">
        <ele>175</ele>
        <time>2019-12-14T12:59:18Z</time>
      </trkpt>
      <trkpt lat="47.76594" lon="3.49144">
        <ele>178</ele>
        <time>2019-12-14T12:59:24Z</time>
      </trkpt>
      <trkpt lat="47.76594" lon="3.49143">
        <ele>179</ele>
        <time>2019-12-14T12:59:29Z</time>
      </trkpt>
      <trkpt lat="47.76593" lon="3.49143">
        <ele>180</ele>
        <time>2019-12-14T12:59:35Z</time>
      </trkpt>
      <trkpt lat="47.76593" lon="3.49143">
        <ele>180</ele>
        <time>2019-12-14T12:59:41Z</time>
      </trkpt>
      <trkpt lat="47.76593" lon="3.49143">
        <ele>180</ele>
        <time>2019-12-14T12:59:47Z</time>
      </trkpt>
      <trkpt lat="47.76593" lon="3.49143">
        <ele>180</ele>
        <time>2019-12-14T12:59:52Z</time>
      </trkpt>
      <trkpt lat="47.76593" lon="3.49143">
        <ele>180</ele>
        <time>2019-12-14T12:59:58Z</time>
      </trkpt>
      <trkpt lat="47.76593" lon="3.49143">
        <ele>180</ele>
        <time>2019-12-14T13:00:03Z</time>
      </trkpt>
      <trkpt lat="47.76598" lon="3.49146">
        <ele>179</ele>
        <time>2019-12-14T13:00:08Z</time>
      </trkpt>
      <trkpt lat="47.76607" lon="3.49151">
        <ele>179</ele>
        <time>2019-12-14T13:00:14Z</time>
      </trkpt>
      <trkpt lat="47.7661" lon="3.49159">
        <ele>176</ele>
        <time>2019-12-14T13:00:19Z</time>
      </trkpt>
      <trkpt lat="47.76616" lon="3.49166">
        <ele>175</ele>
        <time>2019-12-14T13:00:25Z</time>
      </trkpt>
      <trkpt lat="47.76624" lon="3.49172">
        <ele>173</ele>
        <time>2019-12-14T13:00:30Z</time>
      </trkpt>
      <trkpt lat="47.76631" lon="3.49179">
        <ele>172</ele>
        <time>2019-12-14T13:00:36Z</time>
      </trkpt>
      <trkpt lat="47.76636" lon="3.49184">
        <ele>169</ele>
        <time>2019-12-14T13:00:41Z</time>
      </trkpt>
      <trkpt lat="47.76641" lon="3.49187">
        <ele>172</ele>
        <time>2019-12-14T13:00:47Z</time>
      </trkpt>
      <trkpt lat="47.76647" lon="3.49194">
        <ele>172</ele>
        <time>2019-12-14T13:00:54Z</time>
      </trkpt>
      <trkpt lat="47.7665" lon="3.49198">
        <ele>176</ele>
        <time>2019-12-14T13:00:59Z</time>
      </trkpt>
      <trkpt lat="47.76655" lon="3.49203">
        <ele>180</ele>
        <time>2019-12-14T13:01:05Z</time>
      </trkpt>
      <trkpt lat="47.76659" lon="3.49211">
        <ele>178</ele>
        <time>2019-12-14T13:01:10Z</time>
      </trkpt>
      <trkpt lat="47.76665" lon="3.49215">
        <ele>180</ele>
        <time>2019-12-14T13:01:15Z</time>
      </trkpt>
      <trkpt lat="47.76668" lon="3.49224">
        <ele>182</ele>
        <time>2019-12-14T13:01:21Z</time>
      </trkpt>
      <trkpt lat="47.76675" lon="3.49229">
        <ele>180</ele>
        <time>2019-12-14T13:01:27Z</time>
      </trkpt>
      <trkpt lat="47.76682" lon="3.49235">
        <ele>180</ele>
        <time>2019-12-14T13:01:33Z</time>
      </trkpt>
      <trkpt lat="47.76689" lon="3.49243">
        <ele>176</ele>
        <time>2019-12-14T13:01:41Z</time>
      </trkpt>
      <trkpt lat="47.76689" lon="3.49243">
        <ele>175</ele>
        <time>2019-12-14T13:01:47Z</time>
      </trkpt>
      <trkpt lat="47.7669" lon="3.49243">
        <ele>177</ele>
        <time>2019-12-14T13:01:52Z</time>
      </trkpt>
      <trkpt lat="47.76694" lon="3.4924">
        <ele>177</ele>
        <time>2019-12-14T13:01:57Z</time>
      </trkpt>
      <trkpt lat="47.76695" lon="3.4924">
        <ele>177</ele>
        <time>2019-12-14T13:02:03Z</time>
      </trkpt>
      <trkpt lat="47.76695" lon="3.4924">
        <ele>178</ele>
        <time>2019-12-14T13:02:08Z</time>
      </trkpt>
      <trkpt lat="47.76699" lon="3.49239">
        <ele>177</ele>
        <time>2019-12-14T13:02:14Z</time>
      </trkpt>
      <trkpt lat="47.76698" lon="3.49233">
        <ele>178</ele>
        <time>2019-12-14T13:02:19Z</time>
      </trkpt>
      <trkpt lat="47.76698" lon="3.49236">
        <ele>178</ele>
        <time>2019-12-14T13:02:24Z</time>
      </trkpt>
      <trkpt lat="47.76697" lon="3.49235">
        <ele>178</ele>
        <time>2019-12-14T13:02:30Z</time>
      </trkpt>
      <trkpt lat="47.76698" lon="3.49237">
        <ele>177</ele>
        <time>2019-12-14T13:02:36Z</time>
      </trkpt>
      <trkpt lat="47.76702" lon="3.49243">
        <ele>176</ele>
        <time>2019-12-14T13:02:42Z</time>
      </trkpt>
      <trkpt lat="47.76707" lon="3.49252">
        <ele>176</ele>
        <time>2019-12-14T13:02:48Z</time>
      </trkpt>
      <trkpt lat="47.7671" lon="3.49257">
        <ele>178</ele>
        <time>2019-12-14T13:02:53Z</time>
      </trkpt>
      <trkpt lat="47.76715" lon="3.49266">
        <ele>177</ele>
        <time>2019-12-14T13:02:58Z</time>
      </trkpt>
      <trkpt lat="47.76719" lon="3.4927">
        <ele>179</ele>
        <time>2019-12-14T13:03:03Z</time>
      </trkpt>
      <trkpt lat="47.76718" lon="3.4927">
        <ele>180</ele>
        <time>2019-12-14T13:03:08Z</time>
      </trkpt>
      <trkpt lat="47.76719" lon="3.49272">
        <ele>180</ele>
        <time>2019-12-14T13:03:13Z</time>
      </trkpt>
      <trkpt lat="47.76726" lon="3.49278">
        <ele>177</ele>
        <time>2019-12-14T13:03:19Z</time>
      </trkpt>
      <trkpt lat="47.76732" lon="3.49282">
        <ele>175</ele>
        <time>2019-12-14T13:03:24Z</time>
      </trkpt>
      <trkpt lat="47.76736" lon="3.49285">
        <ele>174</ele>
        <time>2019-12-14T13:03:29Z</time>
      </trkpt>
      <trkpt lat="47.76737" lon="3.49288">
        <ele>174</ele>
        <time>2019-12-14T13:03:34Z</time>
      </trkpt>
      <trkpt lat="47.76737" lon="3.49289">
        <ele>175</ele>
        <time>2019-12-14T13:03:40Z</time>
      </trkpt>
      <trkpt lat="47.76736" lon="3.49291">
        <ele>176</ele>
        <time>2019-12-14T13:03:45Z</time>
      </trkpt>
      <trkpt lat="47.76735" lon="3.49292">
        <ele>177</ele>
        <time>2019-12-14T13:03:51Z</time>
      </trkpt>
      <trkpt lat="47.7674" lon="3.49295">
        <ele>178</ele>
        <time>2019-12-14T13:03:57Z</time>
      </trkpt>
      <trkpt lat="47.76741" lon="3.49296">
        <ele>180</ele>
        <time>2019-12-14T13:04:03Z</time>
      </trkpt>
      <trkpt lat="47.76741" lon="3.49297">
        <ele>181</ele>
        <time>2019-12-14T13:04:08Z</time>
      </trkpt>
      <trkpt lat="47.76743" lon="3.49299">
        <ele>180</ele>
        <time>2019-12-14T13:04:13Z</time>
      </trkpt>
      <trkpt lat="47.76748" lon="3.49303">
        <ele>178</ele>
        <time>2019-12-14T13:04:19Z</time>
      </trkpt>
      <trkpt lat="47.7675" lon="3.49301">
        <ele>178</ele>
        <time>2019-12-14T13:04:24Z</time>
      </trkpt>
      <trkpt lat="47.76751" lon="3.49302">
        <ele>180</ele>
        <time>2019-12-14T13:04:30Z</time>
      </trkpt>
      <trkpt lat="47.76756" lon="3.4931">
        <ele>180</ele>
        <time>2019-12-14T13:04:36Z</time>
      </trkpt>
      <trkpt lat="47.76762" lon="3.49316">
        <ele>177</ele>
        <time>2019-12-14T13:04:42Z</time>
      </trkpt>
      <trkpt lat="47.76769" lon="3.49321">
        <ele>175</ele>
        <time>2019-12-14T13:04:47Z</time>
      </trkpt>
      <trkpt lat="47.76775" lon="3.49329">
        <ele>175</ele>
        <time>2019-12-14T13:04:53Z</time>
      </trkpt>
      <trkpt lat="47.76778" lon="3.49334">
        <ele>177</ele>
        <time>2019-12-14T13:04:58Z</time>
      </trkpt>
      <trkpt lat="47.76782" lon="3.49337">
        <ele>177</ele>
        <time>2019-12-14T13:05:03Z</time>
      </trkpt>
      <trkpt lat="47.76781" lon="3.49334">
        <ele>180</ele>
        <time>2019-12-14T13:05:08Z</time>
      </trkpt>
      <trkpt lat="47.76782" lon="3.49338">
        <ele>180</ele>
        <time>2019-12-14T13:05:13Z</time>
      </trkpt>
      <trkpt lat="47.76786" lon="3.49346">
        <ele>179</ele>
        <time>2019-12-14T13:05:19Z</time>
      </trkpt>
      <trkpt lat="47.76793" lon="3.49354">
        <ele>178</ele>
        <time>2019-12-14T13:05:24Z</time>
      </trkpt>
      <trkpt lat="47.76794" lon="3.49355">
        <ele>179</ele>
        <time>2019-12-14T13:05:30Z</time>
      </trkpt>
      <trkpt lat="47.76797" lon="3.49358">
        <ele>176</ele>
        <time>2019-12-14T13:05:35Z</time>
      </trkpt>
      <trkpt lat="47.76801" lon="3.49365">
        <ele>176</ele>
        <time>2019-12-14T13:05:40Z</time>
      </trkpt>
      <trkpt lat="47.76809" lon="3.49376">
        <ele>172</ele>
        <time>2019-12-14T13:05:46Z</time>
      </trkpt>
      <trkpt lat="47.76813" lon="3.49383">
        <ele>171</ele>
        <time>2019-12-14T13:05:51Z</time>
      </trkpt>
      <trkpt lat="47.76817" lon="3.49391">
        <ele>170</ele>
        <time>2019-12-14T13:05:56Z</time>
      </trkpt>
      <trkpt lat="47.76823" lon="3.49398">
        <ele>171</ele>
        <time>2019-12-14T13:06:02Z</time>
      </trkpt>
      <trkpt lat="47.76825" lon="3.49403">
        <ele>172</ele>
        <time>2019-12-14T13:06:07Z</time>
      </trkpt>
      <trkpt lat="47.76831" lon="3.4941">
        <ele>174</ele>
        <time>2019-12-14T13:06:13Z</time>
      </trkpt>
      <trkpt lat="47.76835" lon="3.49418">
        <ele>172</ele>
        <time>2019-12-14T13:06:18Z</time>
      </trkpt>
      <trkpt lat="47.76838" lon="3.49421">
        <ele>173</ele>
        <time>2019-12-14T13:06:23Z</time>
      </trkpt>
      <trkpt lat="47.76844" lon="3.49432">
        <ele>172</ele>
        <time>2019-12-14T13:06:29Z</time>
      </trkpt>
      <trkpt lat="47.76848" lon="3.49436">
        <ele>171</ele>
        <time>2019-12-14T13:06:34Z</time>
      </trkpt>
      <trkpt lat="47.76853" lon="3.49443">
        <ele>172</ele>
        <time>2019-12-14T13:06:40Z</time>
      </trkpt>
      <trkpt lat="47.76857" lon="3.49448">
        <ele>172</ele>
        <time>2019-12-14T13:06:45Z</time>
      </trkpt>
      <trkpt lat="47.76859" lon="3.49452">
        <ele>173</ele>
        <time>2019-12-14T13:06:51Z</time>
      </trkpt>
      <trkpt lat="47.76864" lon="3.49464">
        <ele>171</ele>
        <time>2019-12-14T13:06:57Z</time>
      </trkpt>
      <trkpt lat="47.76868" lon="3.49469">
        <ele>171</ele>
        <time>2019-12-14T13:07:02Z</time>
      </trkpt>
      <trkpt lat="47.76874" lon="3.49476">
        <ele>170</ele>
        <time>2019-12-14T13:07:08Z</time>
      </trkpt>
      <trkpt lat="47.76874" lon="3.49475">
        <ele>171</ele>
        <time>2019-12-14T13:07:14Z</time>
      </trkpt>
      <trkpt lat="47.76872" lon="3.49474">
        <ele>172</ele>
        <time>2019-12-14T13:07:19Z</time>
      </trkpt>
      <trkpt lat="47.76872" lon="3.49474">
        <ele>172</ele>
        <time>2019-12-14T13:07:25Z</time>
      </trkpt>
      <trkpt lat="47.76875" lon="3.49477">
        <ele>173</ele>
        <time>2019-12-14T13:07:30Z</time>
      </trkpt>
      <trkpt lat="47.76878" lon="3.49484">
        <ele>173</ele>
        <time>2019-12-14T13:07:35Z</time>
      </trkpt>
      <trkpt lat="47.76882" lon="3.49491">
        <ele>171</ele>
        <time>2019-12-14T13:07:40Z</time>
      </trkpt>
      <trkpt lat="47.76888" lon="3.49501">
        <ele>172</ele>
        <time>2019-12-14T13:07:46Z</time>
      </trkpt>
      <trkpt lat="47.76894" lon="3.49509">
        <ele>170</ele>
        <time>2019-12-14T13:07:52Z</time>
      </trkpt>
      <trkpt lat="47.76898" lon="3.49517">
        <ele>171</ele>
        <time>2019-12-14T13:07:58Z</time>
      </trkpt>
      <trkpt lat="47.76901" lon="3.49524">
        <ele>170</ele>
        <time>2019-12-14T13:08:03Z</time>
      </trkpt>
      <trkpt lat="47.76908" lon="3.49533">
        <ele>169</ele>
        <time>2019-12-14T13:08:09Z</time>
      </trkpt>
      <trkpt lat="47.76911" lon="3.49541">
        <ele>171</ele>
        <time>2019-12-14T13:08:14Z</time>
      </trkpt>
      <trkpt lat="47.76914" lon="3.49548">
        <ele>173</ele>
        <time>2019-12-14T13:08:20Z</time>
      </trkpt>
      <trkpt lat="47.76917" lon="3.49556">
        <ele>173</ele>
        <time>2019-12-14T13:08:26Z</time>
      </trkpt>
      <trkpt lat="47.7692" lon="3.49567">
        <ele>170</ele>
        <time>2019-12-14T13:08:31Z</time>
      </trkpt>
      <trkpt lat="47.76925" lon="3.49578">
        <ele>172</ele>
        <time>2019-12-14T13:08:37Z</time>
      </trkpt>
      <trkpt lat="47.7693" lon="3.49587">
        <ele>172</ele>
        <time>2019-12-14T13:08:44Z</time>
      </trkpt>
      <trkpt lat="47.76931" lon="3.49592">
        <ele>176</ele>
        <time>2019-12-14T13:08:49Z</time>
      </trkpt>
      <trkpt lat="47.76934" lon="3.496">
        <ele>177</ele>
        <time>2019-12-14T13:08:55Z</time>
      </trkpt>
      <trkpt lat="47.76936" lon="3.49606">
        <ele>177</ele>
        <time>2019-12-14T13:09:00Z</time>
      </trkpt>
      <trkpt lat="47.7694" lon="3.49614">
        <ele>178</ele>
        <time>2019-12-14T13:09:06Z</time>
      </trkpt>
      <trkpt lat="47.76944" lon="3.49622">
        <ele>177</ele>
        <time>2019-12-14T13:09:12Z</time>
      </trkpt>
      <trkpt lat="47.76948" lon="3.49627">
        <ele>177</ele>
        <time>2019-12-14T13:09:17Z</time>
      </trkpt>
      <trkpt lat="47.76951" lon="3.49635">
        <ele>174</ele>
        <time>2019-12-14T13:09:23Z</time>
      </trkpt>
      <trkpt lat="47.76947" lon="3.49633">
        <ele>174</ele>
        <time>2019-12-14T13:09:28Z</time>
      </trkpt>
      <trkpt lat="47.76948" lon="3.49634">
        <ele>176</ele>
        <time>2019-12-14T13:09:33Z</time>
      </trkpt>
      <trkpt lat="47.76948" lon="3.49633">
        <ele>177</ele>
        <time>2019-12-14T13:09:41Z</time>
      </trkpt>
      <trkpt lat="47.76948" lon="3.49633">
        <ele>177</ele>
        <time>2019-12-14T13:09:46Z</time>
      </trkpt>
      <trkpt lat="47.76948" lon="3.49633">
        <ele>177</ele>
        <time>2019-12-14T13:09:51Z</time>
      </trkpt>
      <trkpt lat="47.76946" lon="3.49632">
        <ele>178</ele>
        <time>2019-12-14T13:09:56Z</time>
      </trkpt>
      <trkpt lat="47.76947" lon="3.49633">
        <ele>179</ele>
        <time>2019-12-14T13:10:01Z</time>
      </trkpt>
      <trkpt lat="47.76949" lon="3.49632">
        <ele>176</ele>
        <time>2019-12-14T13:10:07Z</time>
      </trkpt>
      <trkpt lat="47.76955" lon="3.49639">
        <ele>176</ele>
        <time>2019-12-14T13:10:12Z</time>
      </trkpt>
      <trkpt lat="47.76961" lon="3.49645">
        <ele>177</ele>
        <time>2019-12-14T13:10:17Z</time>
      </trkpt>
      <trkpt lat="47.76969" lon="3.49655">
        <ele>177</ele>
        <time>2019-12-14T13:10:23Z</time>
      </trkpt>
      <trkpt lat="47.76977" lon="3.4966">
        <ele>177</ele>
        <time>2019-12-14T13:10:29Z</time>
      </trkpt>
      <trkpt lat="47.76983" lon="3.49666">
        <ele>176</ele>
        <time>2019-12-14T13:10:34Z</time>
      </trkpt>
      <trkpt lat="47.76986" lon="3.49674">
        <ele>177</ele>
        <time>2019-12-14T13:10:39Z</time>
      </trkpt>
      <trkpt lat="47.76992" lon="3.4968">
        <ele>179</ele>
        <time>2019-12-14T13:10:45Z</time>
      </trkpt>
      <trkpt lat="47.76998" lon="3.49687">
        <ele>178</ele>
        <time>2019-12-14T13:10:51Z</time>
      </trkpt>
      <trkpt lat="47.77001" lon="3.49692">
        <ele>177</ele>
        <time>2019-12-14T13:10:57Z</time>
      </trkpt>
      <trkpt lat="47.77006" lon="3.497">
        <ele>179</ele>
        <time>2019-12-14T13:11:02Z</time>
      </trkpt>
      <trkpt lat="47.77009" lon="3.49706">
        <ele>180</ele>
        <time>2019-12-14T13:11:07Z</time>
      </trkpt>
      <trkpt lat="47.77014" lon="3.49713">
        <ele>181</ele>
        <time>2019-12-14T13:11:12Z</time>
      </trkpt>
      <trkpt lat="47.77015" lon="3.49719">
        <ele>183</ele>
        <time>2019-12-14T13:11:17Z</time>
      </trkpt>
      <trkpt lat="47.77019" lon="3.49721">
        <ele>179</ele>
        <time>2019-12-14T13:11:22Z</time>
      </trkpt>
      <trkpt lat="47.77025" lon="3.49726">
        <ele>178</ele>
        <time>2019-12-14T13:11:28Z</time>
      </trkpt>
      <trkpt lat="47.77029" lon="3.49731">
        <ele>182</ele>
        <time>2019-12-14T13:11:34Z</time>
      </trkpt>
      <trkpt lat="47.77029" lon="3.4973">
        <ele>182</ele>
        <time>2019-12-14T13:11:40Z</time>
      </trkpt>
      <trkpt lat="47.7703" lon="3.49732">
        <ele>179</ele>
        <time>2019-12-14T13:11:45Z</time>
      </trkpt>
      <trkpt lat="47.7703" lon="3.49732">
        <ele>179</ele>
        <time>2019-12-14T13:11:51Z</time>
      </trkpt>
      <trkpt lat="47.7703" lon="3.49733">
        <ele>179</ele>
        <time>2019-12-14T13:11:56Z</time>
      </trkpt>
      <trkpt lat="47.77036" lon="3.49736">
        <ele>178</ele>
        <time>2019-12-14T13:12:01Z</time>
      </trkpt>
      <trkpt lat="47.77043" lon="3.4974">
        <ele>177</ele>
        <time>2019-12-14T13:12:07Z</time>
      </trkpt>
      <trkpt lat="47.77049" lon="3.49745">
        <ele>179</ele>
        <time>2019-12-14T13:12:13Z</time>
      </trkpt>
      <trkpt lat="47.77054" lon="3.49746">
        <ele>176</ele>
        <time>2019-12-14T13:12:18Z</time>
      </trkpt>
      <trkpt lat="47.77053" lon="3.49746">
        <ele>176</ele>
        <time>2019-12-14T13:12:23Z</time>
      </trkpt>
      <trkpt lat="47.77053" lon="3.49746">
        <ele>177</ele>
        <time>2019-12-14T13:12:29Z</time>
      </trkpt>
      <trkpt lat="47.77057" lon="3.49748">
        <ele>175</ele>
        <time>2019-12-14T13:12:34Z</time>
      </trkpt>
      <trkpt lat="47.77064" lon="3.4975">
        <ele>174</ele>
        <time>2019-12-14T13:12:39Z</time>
      </trkpt>
      <trkpt lat="47.77068" lon="3.49755">
        <ele>174</ele>
        <time>2019-12-14T13:12:44Z</time>
      </trkpt>
      <trkpt lat="47.77075" lon="3.49759">
        <ele>174</ele>
        <time>2019-12-14T13:12:50Z</time>
      </trkpt>
      <trkpt lat="47.77075" lon="3.49761">
        <ele>174</ele>
        <time>2019-12-14T13:12:55Z</time>
      </trkpt>
      <trkpt lat="47.77078" lon="3.49764">
        <ele>174</ele>
        <time>2019-12-14T13:13:01Z</time>
      </trkpt>
      <trkpt lat="47.77085" lon="3.49768">
        <ele>175</ele>
        <time>2019-12-14T13:13:07Z</time>
      </trkpt>
      <trkpt lat="47.77092" lon="3.49773">
        <ele>175</ele>
        <time>2019-12-14T13:13:13Z</time>
      </trkpt>
      <trkpt lat="47.77098" lon="3.49777">
        <ele>175</ele>
        <time>2019-12-14T13:13:18Z</time>
      </trkpt>
      <trkpt lat="47.77101" lon="3.49784">
        <ele>176</ele>
        <time>2019-12-14T13:13:23Z</time>
      </trkpt>
      <trkpt lat="47.77108" lon="3.49785">
        <ele>179</ele>
        <time>2019-12-14T13:13:29Z</time>
      </trkpt>
      <trkpt lat="47.77113" lon="3.4979">
        <ele>178</ele>
        <time>2019-12-14T13:13:35Z</time>
      </trkpt>
      <trkpt lat="47.77114" lon="3.49789">
        <ele>177</ele>
        <time>2019-12-14T13:13:41Z</time>
      </trkpt>
      <trkpt lat="47.77115" lon="3.4979">
        <ele>178</ele>
        <time>2019-12-14T13:13:46Z</time>
      </trkpt>
      <trkpt lat="47.77118" lon="3.49793">
        <ele>175</ele>
        <time>2019-12-14T13:13:52Z</time>
      </trkpt>
      <trkpt lat="47.77119" lon="3.49794">
        <ele>176</ele>
        <time>2019-12-14T13:13:57Z</time>
      </trkpt>
      <trkpt lat="47.77121" lon="3.49793">
        <ele>179</ele>
        <time>2019-12-14T13:14:03Z</time>
      </trkpt>
      <trkpt lat="47.77122" lon="3.49792">
        <ele>180</ele>
        <time>2019-12-14T13:14:08Z</time>
      </trkpt>
      <trkpt lat="47.77126" lon="3.49793">
        <ele>179</ele>
        <time>2019-12-14T13:14:14Z</time>
      </trkpt>
      <trkpt lat="47.7713" lon="3.49794">
        <ele>176</ele>
        <time>2019-12-14T13:14:19Z</time>
      </trkpt>
      <trkpt lat="47.7714" lon="3.49797">
        <ele>175</ele>
        <time>2019-12-14T13:14:25Z</time>
      </trkpt>
      <trkpt lat="47.77142" lon="3.498">
        <ele>174</ele>
        <time>2019-12-14T13:14:30Z</time>
      </trkpt>
      <trkpt lat="47.77142" lon="3.49803">
        <ele>173</ele>
        <time>2019-12-14T13:14:36Z</time>
      </trkpt>
      <trkpt lat="47.77147" lon="3.49807">
        <ele>173</ele>
        <time>2019-12-14T13:14:41Z</time>
      </trkpt>
      <trkpt lat="47.77155" lon="3.49807">
        <ele>172</ele>
        <time>2019-12-14T13:14:46Z</time>
      </trkpt>
      <trkpt lat="47.77162" lon="3.49811">
        <ele>174</ele>
        <time>2019-12-14T13:14:52Z</time>
      </trkpt>
      <trkpt lat="47.77167" lon="3.49814">
        <ele>175</ele>
        <time>2019-12-14T13:14:57Z</time>
      </trkpt>
      <trkpt lat="47.77172" lon="3.49818">
        <ele>172</ele>
        <time>2019-12-14T13:15:03Z</time>
      </trkpt>
      <trkpt lat="47.77178" lon="3.4982">
        <ele>170</ele>
        <time>2019-12-14T13:15:08Z</time>
      </trkpt>
      <trkpt lat="47.77182" lon="3.49824">
        <ele>168</ele>
        <time>2019-12-14T13:15:14Z</time>
      </trkpt>
      <trkpt lat="47.77187" lon="3.49829">
        <ele>171</ele>
        <time>2019-12-14T13:15:19Z</time>
      </trkpt>
      <trkpt lat="47.77193" lon="3.49832">
        <ele>169</ele>
        <time>2019-12-14T13:15:25Z</time>
      </trkpt>
      <trkpt lat="47.77194" lon="3.49833">
        <ele>172</ele>
        <time>2019-12-14T13:15:31Z</time>
      </trkpt>
      <trkpt lat="47.772" lon="3.49836">
        <ele>173</ele>
        <time>2019-12-14T13:15:37Z</time>
      </trkpt>
      <trkpt lat="47.77205" lon="3.49843">
        <ele>173</ele>
        <time>2019-12-14T13:15:42Z</time>
      </trkpt>
      <trkpt lat="47.77215" lon="3.49847">
        <ele>172</ele>
        <time>2019-12-14T13:15:48Z</time>
      </trkpt>
      <trkpt lat="47.77216" lon="3.4985">
        <ele>174</ele>
        <time>2019-12-14T13:15:53Z</time>
      </trkpt>
      <trkpt lat="47.77221" lon="3.49858">
        <ele>174</ele>
        <time>2019-12-14T13:15:59Z</time>
      </trkpt>
      <trkpt lat="47.77226" lon="3.49865">
        <ele>173</ele>
        <time>2019-12-14T13:16:05Z</time>
      </trkpt>
      <trkpt lat="47.77231" lon="3.49872">
        <ele>172</ele>
        <time>2019-12-14T13:16:11Z</time>
      </trkpt>
      <trkpt lat="47.77232" lon="3.4988">
        <ele>171</ele>
        <time>2019-12-14T13:16:16Z</time>
      </trkpt>
      <trkpt lat="47.77232" lon="3.49888">
        <ele>171</ele>
        <time>2019-12-14T13:16:21Z</time>
      </trkpt>
      <trkpt lat="47.77232" lon="3.4989">
        <ele>173</ele>
        <time>2019-12-14T13:16:27Z</time>
      </trkpt>
      <trkpt lat="47.77235" lon="3.49895">
        <ele>173</ele>
        <time>2019-12-14T13:16:32Z</time>
      </trkpt>
      <trkpt lat="47.77238" lon="3.49898">
        <ele>172</ele>
        <time>2019-12-14T13:16:38Z</time>
      </trkpt>
      <trkpt lat="47.77238" lon="3.49898">
        <ele>171</ele>
        <time>2019-12-14T13:16:43Z</time>
      </trkpt>
      <trkpt lat="47.77238" lon="3.49898">
        <ele>171</ele>
        <time>2019-12-14T13:16:48Z</time>
      </trkpt>
      <trkpt lat="47.77237" lon="3.49898">
        <ele>170</ele>
        <time>2019-12-14T13:16:54Z</time>
      </trkpt>
      <trkpt lat="47.77237" lon="3.49899">
        <ele>170</ele>
        <time>2019-12-14T13:16:59Z</time>
      </trkpt>
      <trkpt lat="47.77238" lon="3.49898">
        <ele>170</ele>
        <time>2019-12-14T13:17:04Z</time>
      </trkpt>
      <trkpt lat="47.77237" lon="3.49903">
        <ele>171</ele>
        <time>2019-12-14T13:17:10Z</time>
      </trkpt>
      <trkpt lat="47.77241" lon="3.49907">
        <ele>173</ele>
        <time>2019-12-14T13:17:16Z</time>
      </trkpt>
      <trkpt lat="47.77245" lon="3.49914">
        <ele>173</ele>
        <time>2019-12-14T13:17:22Z</time>
      </trkpt>
      <trkpt lat="47.77247" lon="3.49921">
        <ele>172</ele>
        <time>2019-12-14T13:17:27Z</time>
      </trkpt>
      <trkpt lat="47.7725" lon="3.49927">
        <ele>172</ele>
        <time>2019-12-14T13:17:33Z</time>
      </trkpt>
      <trkpt lat="47.77256" lon="3.49934">
        <ele>173</ele>
        <time>2019-12-14T13:17:39Z</time>
      </trkpt>
      <trkpt lat="47.7726" lon="3.49942">
        <ele>176</ele>
        <time>2019-12-14T13:17:44Z</time>
      </trkpt>
      <trkpt lat="47.77265" lon="3.49951">
        <ele>173</ele>
        <time>2019-12-14T13:17:50Z</time>
      </trkpt>
      <trkpt lat="47.77268" lon="3.4996">
        <ele>174</ele>
        <time>2019-12-14T13:17:56Z</time>
      </trkpt>
      <trkpt lat="47.7727" lon="3.49967">
        <ele>176</ele>
        <time>2019-12-14T13:18:02Z</time>
      </trkpt>
      <trkpt lat="47.77274" lon="3.49977">
        <ele>174</ele>
        <time>2019-12-14T13:18:08Z</time>
      </trkpt>
      <trkpt lat="47.77278" lon="3.49981">
        <ele>173</ele>
        <time>2019-12-14T13:18:13Z</time>
      </trkpt>
      <trkpt lat="47.77282" lon="3.4999">
        <ele>176</ele>
        <time>2019-12-14T13:18:19Z</time>
      </trkpt>
      <trkpt lat="47.77288" lon="3.49992">
        <ele>175</ele>
        <time>2019-12-14T13:18:25Z</time>
      </trkpt>
      <trkpt lat="47.77294" lon="3.49996">
        <ele>172</ele>
        <time>2019-12-14T13:18:30Z</time>
      </trkpt>
      <trkpt lat="47.77299" lon="3.50001">
        <ele>171</ele>
        <time>2019-12-14T13:18:36Z</time>
      </trkpt>
      <trkpt lat="47.77302" lon="3.50006">
        <ele>172</ele>
        <time>2019-12-14T13:18:41Z</time>
      </trkpt>
      <trkpt lat="47.77301" lon="3.50006">
        <ele>173</ele>
        <time>2019-12-14T13:18:47Z</time>
      </trkpt>
      <trkpt lat="47.77302" lon="3.50007">
        <ele>172</ele>
        <time>2019-12-14T13:18:52Z</time>
      </trkpt>
      <trkpt lat="47.77303" lon="3.50009">
        <ele>173</ele>
        <time>2019-12-14T13:18:57Z</time>
      </trkpt>
      <trkpt lat="47.77302" lon="3.5001">
        <ele>175</ele>
        <time>2019-12-14T13:19:03Z</time>
      </trkpt>
      <trkpt lat="47.77301" lon="3.5001">
        <ele>175</ele>
        <time>2019-12-14T13:19:08Z</time>
      </trkpt>
      <trkpt lat="47.77303" lon="3.50011">
        <ele>176</ele>
        <time>2019-12-14T13:19:14Z</time>
      </trkpt>
      <trkpt lat="47.7731" lon="3.50014">
        <ele>176</ele>
        <time>2019-12-14T13:19:19Z</time>
      </trkpt>
      <trkpt lat="47.77315" lon="3.5002">
        <ele>176</ele>
        <time>2019-12-14T13:19:24Z</time>
      </trkpt>
      <trkpt lat="47.77322" lon="3.50028">
        <ele>175</ele>
        <time>2019-12-14T13:19:31Z</time>
      </trkpt>
      <trkpt lat="47.77331" lon="3.50031">
        <ele>174</ele>
        <time>2019-12-14T13:19:37Z</time>
      </trkpt>
      <trkpt lat="47.77335" lon="3.50033">
        <ele>173</ele>
        <time>2019-12-14T13:19:43Z</time>
      </trkpt>
      <trkpt lat="47.77335" lon="3.50033">
        <ele>170</ele>
        <time>2019-12-14T13:19:48Z</time>
      </trkpt>
      <trkpt lat="47.77335" lon="3.50037">
        <ele>171</ele>
        <time>2019-12-14T13:19:53Z</time>
      </trkpt>
      <trkpt lat="47.77341" lon="3.50044">
        <ele>170</ele>
        <time>2019-12-14T13:19:59Z</time>
      </trkpt>
      <trkpt lat="47.77347" lon="3.5005">
        <ele>172</ele>
        <time>2019-12-14T13:20:05Z</time>
      </trkpt>
      <trkpt lat="47.77351" lon="3.50058">
        <ele>174</ele>
        <time>2019-12-14T13:20:11Z</time>
      </trkpt>
      <trkpt lat="47.77356" lon="3.50066">
        <ele>171</ele>
        <time>2019-12-14T13:20:17Z</time>
      </trkpt>
      <trkpt lat="47.77358" lon="3.50071">
        <ele>172</ele>
        <time>2019-12-14T13:20:22Z</time>
      </trkpt>
      <trkpt lat="47.77364" lon="3.50079">
        <ele>171</ele>
        <time>2019-12-14T13:20:28Z</time>
      </trkpt>
      <trkpt lat="47.77367" lon="3.50087">
        <ele>173</ele>
        <time>2019-12-14T13:20:33Z</time>
      </trkpt>
      <trkpt lat="47.77372" lon="3.50092">
        <ele>174</ele>
        <time>2019-12-14T13:20:39Z</time>
      </trkpt>
      <trkpt lat="47.77374" lon="3.501">
        <ele>173</ele>
        <time>2019-12-14T13:20:44Z</time>
      </trkpt>
      <trkpt lat="47.77376" lon="3.5011">
        <ele>175</ele>
        <time>2019-12-14T13:20:50Z</time>
      </trkpt>
      <trkpt lat="47.77379" lon="3.50117">
        <ele>170</ele>
        <time>2019-12-14T13:20:55Z</time>
      </trkpt>
      <trkpt lat="47.77378" lon="3.50124">
        <ele>169</ele>
        <time>2019-12-14T13:21:00Z</time>
      </trkpt>
      <trkpt lat="47.7738" lon="3.50134">
        <ele>168</ele>
        <time>2019-12-14T13:21:05Z</time>
      </trkpt>
      <trkpt lat="47.77385" lon="3.50142">
        <ele>169</ele>
        <time>2019-12-14T13:21:10Z</time>
      </trkpt>
      <trkpt lat="47.77383" lon="3.50146">
        <ele>170</ele>
        <time>2019-12-14T13:21:16Z</time>
      </trkpt>
      <trkpt lat="47.77384" lon="3.50155">
        <ele>170</ele>
        <time>2019-12-14T13:21:21Z</time>
      </trkpt>
      <trkpt lat="47.77386" lon="3.50161">
        <ele>173</ele>
        <time>2019-12-14T13:21:27Z</time>
      </trkpt>
      <trkpt lat="47.77385" lon="3.50162">
        <ele>174</ele>
        <time>2019-12-14T13:21:33Z</time>
      </trkpt>
      <trkpt lat="47.77386" lon="3.50161">
        <ele>173</ele>
        <time>2019-12-14T13:21:38Z</time>
      </trkpt>
      <trkpt lat="47.77387" lon="3.50162">
        <ele>174</ele>
        <time>2019-12-14T13:21:43Z</time>
      </trkpt>
      <trkpt lat="47.77387" lon="3.50162">
        <ele>174</ele>
        <time>2019-12-14T13:21:49Z</time>
      </trkpt>
      <trkpt lat="47.77387" lon="3.50162">
        <ele>174</ele>
        <time>2019-12-14T13:21:54Z</time>
      </trkpt>
      <trkpt lat="47.77387" lon="3.50162">
        <ele>174</ele>
        <time>2019-12-14T13:21:59Z</time>
      </trkpt>
      <trkpt lat="47.77387" lon="3.50162">
        <ele>174</ele>
        <time>2019-12-14T13:22:05Z</time>
      </trkpt>
      <trkpt lat="47.77387" lon="3.50162">
        <ele>174</ele>
        <time>2019-12-14T13:22:10Z</time>
      </trkpt>
      <trkpt lat="47.77387" lon="3.50162">
        <ele>173</ele>
        <time>2019-12-14T13:22:16Z</time>
      </trkpt>
      <trkpt lat="47.77387" lon="3.50162">
        <ele>173</ele>
        <time>2019-12-14T13:22:22Z</time>
      </trkpt>
      <trkpt lat="47.77387" lon="3.50162">
        <ele>173</ele>
        <time>2019-12-14T13:22:27Z</time>
      </trkpt>
      <trkpt lat="47.77387" lon="3.5016">
        <ele>173</ele>
        <time>2019-12-14T13:22:33Z</time>
      </trkpt>
      <trkpt lat="47.7739" lon="3.50154">
        <ele>172</ele>
        <time>2019-12-14T13:22:38Z</time>
      </trkpt>
      <trkpt lat="47.77389" lon="3.50155">
        <ele>171</ele>
        <time>2019-12-14T13:22:44Z</time>
      </trkpt>
      <trkpt lat="47.7739" lon="3.50158">
        <ele>172</ele>
        <time>2019-12-14T13:22:50Z</time>
      </trkpt>
      <trkpt lat="47.77392" lon="3.5016">
        <ele>174</ele>
        <time>2019-12-14T13:22:56Z</time>
      </trkpt>
      <trkpt lat="47.77392" lon="3.5016">
        <ele>174</ele>
        <time>2019-12-14T13:23:02Z</time>
      </trkpt>
      <trkpt lat="47.77392" lon="3.5016">
        <ele>174</ele>
        <time>2019-12-14T13:23:08Z</time>
      </trkpt>
      <trkpt lat="47.77393" lon="3.50161">
        <ele>173</ele>
        <time>2019-12-14T13:23:14Z</time>
      </trkpt>
      <trkpt lat="47.77391" lon="3.5016">
        <ele>175</ele>
        <time>2019-12-14T13:23:20Z</time>
      </trkpt>
      <trkpt lat="47.77392" lon="3.50163">
        <ele>173</ele>
        <time>2019-12-14T13:23:25Z</time>
      </trkpt>
      <trkpt lat="47.77392" lon="3.50164">
        <ele>172</ele>
        <time>2019-12-14T13:23:31Z</time>
      </trkpt>
      <trkpt lat="47.77392" lon="3.50164">
        <ele>172</ele>
        <time>2019-12-14T13:23:36Z</time>
      </trkpt>
      <trkpt lat="47.77392" lon="3.50164">
        <ele>171</ele>
        <time>2019-12-14T13:23:41Z</time>
      </trkpt>
      <trkpt lat="47.77392" lon="3.50164">
        <ele>172</ele>
        <time>2019-12-14T13:23:47Z</time>
      </trkpt>
      <trkpt lat="47.77388" lon="3.50165">
        <ele>169</ele>
        <time>2019-12-14T13:23:53Z</time>
      </trkpt>
      <trkpt lat="47.77391" lon="3.50165">
        <ele>170</ele>
        <time>2019-12-14T13:23:58Z</time>
      </trkpt>
      <trkpt lat="47.77391" lon="3.50165">
        <ele>172</ele>
        <time>2019-12-14T13:24:03Z</time>
      </trkpt>
      <trkpt lat="47.77393" lon="3.50165">
        <ele>173</ele>
        <time>2019-12-14T13:24:08Z</time>
      </trkpt>
      <trkpt lat="47.77395" lon="3.50164">
        <ele>174</ele>
        <time>2019-12-14T13:24:14Z</time>
      </trkpt>
      <trkpt lat="47.77395" lon="3.50164">
        <ele>174</ele>
        <time>2019-12-14T13:24:19Z</time>
      </trkpt>
      <trkpt lat="47.77395" lon="3.50164">
        <ele>174</ele>
        <time>2019-12-14T13:24:25Z</time>
      </trkpt>
      <trkpt lat="47.77395" lon="3.50164">
        <ele>174</ele>
        <time>2019-12-14T13:24:30Z</time>
      </trkpt>
      <trkpt lat="47.77395" lon="3.50164">
        <ele>174</ele>
        <time>2019-12-14T13:24:35Z</time>
      </trkpt>
      <trkpt lat="47.77395" lon="3.50164">
        <ele>174</ele>
        <time>2019-12-14T13:24:41Z</time>
      </trkpt>
      <trkpt lat="47.77395" lon="3.50164">
        <ele>174</ele>
        <time>2019-12-14T13:24:46Z</time>
      </trkpt>
      <trkpt lat="47.77395" lon="3.50164">
        <ele>174</ele>
        <time>2019-12-14T13:24:52Z</time>
      </trkpt>
      <trkpt lat="47.77395" lon="3.50164">
        <ele>174</ele>
        <time>2019-12-14T13:24:58Z</time>
      </trkpt>
      <trkpt lat="47.77395" lon="3.50164">
        <ele>174</ele>
        <time>2019-12-14T13:25:03Z</time>
      </trkpt>
      <trkpt lat="47.77394" lon="3.50164">
        <ele>175</ele>
        <time>2019-12-14T13:25:09Z</time>
      </trkpt>
      <trkpt lat="47.77394" lon="3.50163">
        <ele>177</ele>
        <time>2019-12-14T13:25:15Z</time>
      </trkpt>
      <trkpt lat="47.77393" lon="3.50163">
        <ele>177</ele>
        <time>2019-12-14T13:25:20Z</time>
      </trkpt>
      <trkpt lat="47.77393" lon="3.50163">
        <ele>177</ele>
        <time>2019-12-14T13:25:26Z</time>
      </trkpt>
      <trkpt lat="47.77393" lon="3.50163">
        <ele>177</ele>
        <time>2019-12-14T13:25:32Z</time>
      </trkpt>
      <trkpt lat="47.77393" lon="3.50163">
        <ele>177</ele>
        <time>2019-12-14T13:25:37Z</time>
      </trkpt>
      <trkpt lat="47.77393" lon="3.50163">
        <ele>177</ele>
        <time>2019-12-14T13:25:43Z</time>
      </trkpt>
      <trkpt lat="47.77393" lon="3.50163">
        <ele>177</ele>
        <time>2019-12-14T13:25:49Z</time>
      </trkpt>
      <trkpt lat="47.77393" lon="3.50163">
        <ele>177</ele>
        <time>2019-12-14T13:25:54Z</time>
      </trkpt>
      <trkpt lat="47.77393" lon="3.50163">
        <ele>176</ele>
        <time>2019-12-14T13:26:00Z</time>
      </trkpt>
      <trkpt lat="47.77392" lon="3.50164">
        <ele>176</ele>
        <time>2019-12-14T13:26:05Z</time>
      </trkpt>
      <trkpt lat="47.77393" lon="3.50172">
        <ele>175</ele>
        <time>2019-12-14T13:26:10Z</time>
      </trkpt>
      <trkpt lat="47.77393" lon="3.50181">
        <ele>174</ele>
        <time>2019-12-14T13:26:16Z</time>
      </trkpt>
      <trkpt lat="47.77394" lon="3.50189">
        <ele>173</ele>
        <time>2019-12-14T13:26:21Z</time>
      </trkpt>
      <trkpt lat="47.77395" lon="3.50199">
        <ele>175</ele>
        <time>2019-12-14T13:26:27Z</time>
      </trkpt>
      <trkpt lat="47.77395" lon="3.50209">
        <ele>174</ele>
        <time>2019-12-14T13:26:32Z</time>
      </trkpt>
      <trkpt lat="47.77397" lon="3.50218">
        <ele>173</ele>
        <time>2019-12-14T13:26:38Z</time>
      </trkpt>
      <trkpt lat="47.774" lon="3.50227">
        <ele>175</ele>
        <time>2019-12-14T13:26:44Z</time>
      </trkpt>
      <trkpt lat="47.77401" lon="3.50231">
        <ele>174</ele>
        <time>2019-12-14T13:26:49Z</time>
      </trkpt>
      <trkpt lat="47.77402" lon="3.50231">
        <ele>175</ele>
        <time>2019-12-14T13:26:55Z</time>
      </trkpt>
      <trkpt lat="47.77402" lon="3.50231">
        <ele>176</ele>
        <time>2019-12-14T13:27:01Z</time>
      </trkpt>
      <trkpt lat="47.77402" lon="3.50231">
        <ele>176</ele>
        <time>2019-12-14T13:27:07Z</time>
      </trkpt>
      <trkpt lat="47.77402" lon="3.5023">
        <ele>176</ele>
        <time>2019-12-14T13:27:13Z</time>
      </trkpt>
      <trkpt lat="47.77402" lon="3.50231">
        <ele>176</ele>
        <time>2019-12-14T13:27:19Z</time>
      </trkpt>
      <trkpt lat="47.77401" lon="3.50231">
        <ele>175</ele>
        <time>2019-12-14T13:27:24Z</time>
      </trkpt>
      <trkpt lat="47.77398" lon="3.50231">
        <ele>175</ele>
        <time>2019-12-14T13:27:30Z</time>
      </trkpt>
      <trkpt lat="47.77397" lon="3.50231">
        <ele>175</ele>
        <time>2019-12-14T13:27:35Z</time>
      </trkpt>
      <trkpt lat="47.77397" lon="3.50231">
        <ele>175</ele>
        <time>2019-12-14T13:27:41Z</time>
      </trkpt>
      <trkpt lat="47.77398" lon="3.50235">
        <ele>175</ele>
        <time>2019-12-14T13:27:47Z</time>
      </trkpt>
      <trkpt lat="47.77397" lon="3.50241">
        <ele>176</ele>
        <time>2019-12-14T13:27:53Z</time>
      </trkpt>
      <trkpt lat="47.77398" lon="3.50247">
        <ele>178</ele>
        <time>2019-12-14T13:27:58Z</time>
      </trkpt>
      <trkpt lat="47.77395" lon="3.50256">
        <ele>177</ele>
        <time>2019-12-14T13:28:04Z</time>
      </trkpt>
      <trkpt lat="47.77394" lon="3.50264">
        <ele>175</ele>
        <time>2019-12-14T13:28:09Z</time>
      </trkpt>
      <trkpt lat="47.77396" lon="3.50263">
        <ele>176</ele>
        <time>2019-12-14T13:28:15Z</time>
      </trkpt>
      <trkpt lat="47.77396" lon="3.50263">
        <ele>175</ele>
        <time>2019-12-14T13:28:20Z</time>
      </trkpt>
      <trkpt lat="47.77396" lon="3.50263">
        <ele>175</ele>
        <time>2019-12-14T13:28:26Z</time>
      </trkpt>
      <trkpt lat="47.77396" lon="3.50263">
        <ele>175</ele>
        <time>2019-12-14T13:28:31Z</time>
      </trkpt>
      <trkpt lat="47.77396" lon="3.50265">
        <ele>175</ele>
        <time>2019-12-14T13:28:37Z</time>
      </trkpt>
      <trkpt lat="47.77395" lon="3.50264">
        <ele>175</ele>
        <time>2019-12-14T13:28:43Z</time>
      </trkpt>
      <trkpt lat="47.77394" lon="3.50264">
        <ele>176</ele>
        <time>2019-12-14T13:28:48Z</time>
      </trkpt>
      <trkpt lat="47.77394" lon="3.50264">
        <ele>176</ele>
        <time>2019-12-14T13:28:53Z</time>
      </trkpt>
      <trkpt lat="47.77394" lon="3.50264">
        <ele>176</ele>
        <time>2019-12-14T13:28:59Z</time>
      </trkpt>
      <trkpt lat="47.77395" lon="3.50265">
        <ele>176</ele>
        <time>2019-12-14T13:29:05Z</time>
      </trkpt>
      <trkpt lat="47.77391" lon="3.50265">
        <ele>177</ele>
        <time>2019-12-14T13:29:11Z</time>
      </trkpt>
      <trkpt lat="47.77389" lon="3.50265">
        <ele>175</ele>
        <time>2019-12-14T13:29:17Z</time>
      </trkpt>
      <trkpt lat="47.77388" lon="3.50264">
        <ele>175</ele>
        <time>2019-12-14T13:29:23Z</time>
      </trkpt>
      <trkpt lat="47.77388" lon="3.50264">
        <ele>175</ele>
        <time>2019-12-14T13:29:28Z</time>
      </trkpt>
      <trkpt lat="47.77388" lon="3.50264">
        <ele>175</ele>
        <time>2019-12-14T13:29:34Z</time>
      </trkpt>
      <trkpt lat="47.77388" lon="3.50263">
        <ele>173</ele>
        <time>2019-12-14T13:29:40Z</time>
      </trkpt>
      <trkpt lat="47.77388" lon="3.50264">
        <ele>175</ele>
        <time>2019-12-14T13:29:45Z</time>
      </trkpt>
      <trkpt lat="47.77388" lon="3.50264">
        <ele>177</ele>
        <time>2019-12-14T13:29:51Z</time>
      </trkpt>
      <trkpt lat="47.77388" lon="3.50264">
        <ele>177</ele>
        <time>2019-12-14T13:29:57Z</time>
      </trkpt>
      <trkpt lat="47.77388" lon="3.50264">
        <ele>177</ele>
        <time>2019-12-14T13:30:03Z</time>
      </trkpt>
      <trkpt lat="47.77388" lon="3.50264">
        <ele>177</ele>
        <time>2019-12-14T13:30:09Z</time>
      </trkpt>
      <trkpt lat="47.77388" lon="3.50264">
        <ele>177</ele>
        <time>2019-12-14T13:30:14Z</time>
      </trkpt>
      <trkpt lat="47.77388" lon="3.50264">
        <ele>177</ele>
        <time>2019-12-14T13:30:20Z</time>
      </trkpt>
      <trkpt lat="47.77388" lon="3.50264">
        <ele>177</ele>
        <time>2019-12-14T13:30:25Z</time>
      </trkpt>
      <trkpt lat="47.77388" lon="3.50265">
        <ele>173</ele>
        <time>2019-12-14T13:30:30Z</time>
      </trkpt>
      <trkpt lat="47.77387" lon="3.50263">
        <ele>172</ele>
        <time>2019-12-14T13:30:35Z</time>
      </trkpt>
      <trkpt lat="47.77387" lon="3.50263">
        <ele>173</ele>
        <time>2019-12-14T13:30:41Z</time>
      </trkpt>
      <trkpt lat="47.77387" lon="3.50263">
        <ele>173</ele>
        <time>2019-12-14T13:30:46Z</time>
      </trkpt>
      <trkpt lat="47.77387" lon="3.50263">
        <ele>173</ele>
        <time>2019-12-14T13:30:52Z</time>
      </trkpt>
      <trkpt lat="47.77387" lon="3.50263">
        <ele>173</ele>
        <time>2019-12-14T13:30:57Z</time>
      </trkpt>
      <trkpt lat="47.77387" lon="3.50263">
        <ele>173</ele>
        <time>2019-12-14T13:31:02Z</time>
      </trkpt>
      <trkpt lat="47.77387" lon="3.50263">
        <ele>173</ele>
        <time>2019-12-14T13:31:08Z</time>
      </trkpt>
      <trkpt lat="47.77387" lon="3.50263">
        <ele>173</ele>
        <time>2019-12-14T13:31:14Z</time>
      </trkpt>
      <trkpt lat="47.77386" lon="3.50269">
        <ele>173</ele>
        <time>2019-12-14T13:31:19Z</time>
      </trkpt>
      <trkpt lat="47.7738" lon="3.50281">
        <ele>172</ele>
        <time>2019-12-14T13:31:25Z</time>
      </trkpt>
      <trkpt lat="47.77376" lon="3.50291">
        <ele>168</ele>
        <time>2019-12-14T13:31:30Z</time>
      </trkpt>
      <trkpt lat="47.77372" lon="3.50298">
        <ele>167</ele>
        <time>2019-12-14T13:31:35Z</time>
      </trkpt>
      <trkpt lat="47.77369" lon="3.50306">
        <ele>168</ele>
        <time>2019-12-14T13:31:40Z</time>
      </trkpt>
      <trkpt lat="47.77363" lon="3.50314">
        <ele>167</ele>
        <time>2019-12-14T13:31:46Z</time>
      </trkpt>
      <trkpt lat="47.77361" lon="3.50319">
        <ele>170</ele>
        <time>2019-12-14T13:31:51Z</time>
      </trkpt>
      <trkpt lat="47.77356" lon="3.50325">
        <ele>168</ele>
        <time>2019-12-14T13:31:57Z</time>
      </trkpt>
      <trkpt lat="47.77353" lon="3.50332">
        <ele>171</ele>
        <time>2019-12-14T13:32:02Z</time>
      </trkpt>
      <trkpt lat="47.77348" lon="3.50337">
        <ele>172</ele>
        <time>2019-12-14T13:32:07Z</time>
      </trkpt>
      <trkpt lat="47.77344" lon="3.50342">
        <ele>172</ele>
        <time>2019-12-14T13:32:13Z</time>
      </trkpt>
      <trkpt lat="47.77335" lon="3.50347">
        <ele>171</ele>
        <time>2019-12-14T13:32:19Z</time>
      </trkpt>
      <trkpt lat="47.77334" lon="3.50351">
        <ele>170</ele>
        <time>2019-12-14T13:32:24Z</time>
      </trkpt>
      <trkpt lat="47.77324" lon="3.50352">
        <ele>169</ele>
        <time>2019-12-14T13:32:32Z</time>
      </trkpt>
      <trkpt lat="47.77315" lon="3.50346">
        <ele>170</ele>
        <time>2019-12-14T13:32:38Z</time>
      </trkpt>
      <trkpt lat="47.77306" lon="3.50346">
        <ele>167</ele>
        <time>2019-12-14T13:32:43Z</time>
      </trkpt>
      <trkpt lat="47.773" lon="3.50349">
        <ele>169</ele>
        <time>2019-12-14T13:32:48Z</time>
      </trkpt>
      <trkpt lat="47.77293" lon="3.50347">
        <ele>169</ele>
        <time>2019-12-14T13:32:54Z</time>
      </trkpt>
      <trkpt lat="47.7729" lon="3.5035">
        <ele>165</ele>
        <time>2019-12-14T13:33:00Z</time>
      </trkpt>
      <trkpt lat="47.7729" lon="3.50348">
        <ele>165</ele>
        <time>2019-12-14T13:33:05Z</time>
      </trkpt>
      <trkpt lat="47.7729" lon="3.50349">
        <ele>167</ele>
        <time>2019-12-14T13:33:10Z</time>
      </trkpt>
      <trkpt lat="47.7729" lon="3.5035">
        <ele>169</ele>
        <time>2019-12-14T13:33:15Z</time>
      </trkpt>
      <trkpt lat="47.77285" lon="3.5035">
        <ele>168</ele>
        <time>2019-12-14T13:33:20Z</time>
      </trkpt>
      <trkpt lat="47.77279" lon="3.50349">
        <ele>171</ele>
        <time>2019-12-14T13:33:26Z</time>
      </trkpt>
      <trkpt lat="47.77272" lon="3.50346">
        <ele>173</ele>
        <time>2019-12-14T13:33:32Z</time>
      </trkpt>
      <trkpt lat="47.77262" lon="3.50343">
        <ele>170</ele>
        <time>2019-12-14T13:33:37Z</time>
      </trkpt>
      <trkpt lat="47.77254" lon="3.50341">
        <ele>168</ele>
        <time>2019-12-14T13:33:43Z</time>
      </trkpt>
      <trkpt lat="47.7725" lon="3.50341">
        <ele>169</ele>
        <time>2019-12-14T13:33:48Z</time>
      </trkpt>
      <trkpt lat="47.77249" lon="3.50342">
        <ele>171</ele>
        <time>2019-12-14T13:33:54Z</time>
      </trkpt>
      <trkpt lat="47.77241" lon="3.50344">
        <ele>172</ele>
        <time>2019-12-14T13:33:59Z</time>
      </trkpt>
      <trkpt lat="47.77234" lon="3.50345">
        <ele>171</ele>
        <time>2019-12-14T13:34:05Z</time>
      </trkpt>
      <trkpt lat="47.77225" lon="3.50349">
        <ele>168</ele>
        <time>2019-12-14T13:34:11Z</time>
      </trkpt>
      <trkpt lat="47.77218" lon="3.50353">
        <ele>170</ele>
        <time>2019-12-14T13:34:17Z</time>
      </trkpt>
      <trkpt lat="47.77213" lon="3.50358">
        <ele>169</ele>
        <time>2019-12-14T13:34:23Z</time>
      </trkpt>
      <trkpt lat="47.7721" lon="3.50362">
        <ele>169</ele>
        <time>2019-12-14T13:34:28Z</time>
      </trkpt>
      <trkpt lat="47.77205" lon="3.50369">
        <ele>172</ele>
        <time>2019-12-14T13:34:34Z</time>
      </trkpt>
      <trkpt lat="47.77201" lon="3.50376">
        <ele>171</ele>
        <time>2019-12-14T13:34:39Z</time>
      </trkpt>
      <trkpt lat="47.77195" lon="3.50381">
        <ele>172</ele>
        <time>2019-12-14T13:34:44Z</time>
      </trkpt>
      <trkpt lat="47.77193" lon="3.50388">
        <ele>173</ele>
        <time>2019-12-14T13:34:49Z</time>
      </trkpt>
      <trkpt lat="47.77187" lon="3.50395">
        <ele>174</ele>
        <time>2019-12-14T13:34:55Z</time>
      </trkpt>
      <trkpt lat="47.77184" lon="3.50399">
        <ele>175</ele>
        <time>2019-12-14T13:35:00Z</time>
      </trkpt>
      <trkpt lat="47.77177" lon="3.50406">
        <ele>174</ele>
        <time>2019-12-14T13:35:06Z</time>
      </trkpt>
      <trkpt lat="47.77173" lon="3.50414">
        <ele>174</ele>
        <time>2019-12-14T13:35:12Z</time>
      </trkpt>
      <trkpt lat="47.77168" lon="3.50422">
        <ele>175</ele>
        <time>2019-12-14T13:35:18Z</time>
      </trkpt>
      <trkpt lat="47.77163" lon="3.50428">
        <ele>175</ele>
        <time>2019-12-14T13:35:24Z</time>
      </trkpt>
      <trkpt lat="47.77159" lon="3.50433">
        <ele>176</ele>
        <time>2019-12-14T13:35:29Z</time>
      </trkpt>
      <trkpt lat="47.77153" lon="3.50438">
        <ele>176</ele>
        <time>2019-12-14T13:35:34Z</time>
      </trkpt>
      <trkpt lat="47.77151" lon="3.50443">
        <ele>179</ele>
        <time>2019-12-14T13:35:39Z</time>
      </trkpt>
      <trkpt lat="47.77142" lon="3.50452">
        <ele>177</ele>
        <time>2019-12-14T13:35:45Z</time>
      </trkpt>
      <trkpt lat="47.77136" lon="3.50458">
        <ele>177</ele>
        <time>2019-12-14T13:35:51Z</time>
      </trkpt>
      <trkpt lat="47.77131" lon="3.50464">
        <ele>178</ele>
        <time>2019-12-14T13:35:56Z</time>
      </trkpt>
      <trkpt lat="47.77126" lon="3.5047">
        <ele>176</ele>
        <time>2019-12-14T13:36:01Z</time>
      </trkpt>
      <trkpt lat="47.7712" lon="3.50476">
        <ele>174</ele>
        <time>2019-12-14T13:36:06Z</time>
      </trkpt>
      <trkpt lat="47.77115" lon="3.50482">
        <ele>175</ele>
        <time>2019-12-14T13:36:12Z</time>
      </trkpt>
      <trkpt lat="47.77108" lon="3.50489">
        <ele>173</ele>
        <time>2019-12-14T13:36:18Z</time>
      </trkpt>
      <trkpt lat="47.77103" lon="3.50494">
        <ele>175</ele>
        <time>2019-12-14T13:36:24Z</time>
      </trkpt>
      <trkpt lat="47.7709" lon="3.50502">
        <ele>167</ele>
        <time>2019-12-14T13:36:30Z</time>
      </trkpt>
      <trkpt lat="47.77088" lon="3.50507">
        <ele>168</ele>
        <time>2019-12-14T13:36:35Z</time>
      </trkpt>
      <trkpt lat="47.77084" lon="3.50512">
        <ele>168</ele>
        <time>2019-12-14T13:36:40Z</time>
      </trkpt>
      <trkpt lat="47.77078" lon="3.50517">
        <ele>167</ele>
        <time>2019-12-14T13:36:45Z</time>
      </trkpt>
      <trkpt lat="47.77074" lon="3.50522">
        <ele>170</ele>
        <time>2019-12-14T13:36:51Z</time>
      </trkpt>
      <trkpt lat="47.77069" lon="3.50526">
        <ele>172</ele>
        <time>2019-12-14T13:36:57Z</time>
      </trkpt>
      <trkpt lat="47.77064" lon="3.50529">
        <ele>173</ele>
        <time>2019-12-14T13:37:05Z</time>
      </trkpt>
      <trkpt lat="47.77057" lon="3.50535">
        <ele>174</ele>
        <time>2019-12-14T13:37:12Z</time>
      </trkpt>
      <trkpt lat="47.77052" lon="3.50537">
        <ele>175</ele>
        <time>2019-12-14T13:37:17Z</time>
      </trkpt>
      <trkpt lat="47.77047" lon="3.50539">
        <ele>174</ele>
        <time>2019-12-14T13:37:22Z</time>
      </trkpt>
      <trkpt lat="47.7704" lon="3.50542">
        <ele>176</ele>
        <time>2019-12-14T13:37:28Z</time>
      </trkpt>
      <trkpt lat="47.77034" lon="3.50549">
        <ele>177</ele>
        <time>2019-12-14T13:37:34Z</time>
      </trkpt>
      <trkpt lat="47.77026" lon="3.50551">
        <ele>176</ele>
        <time>2019-12-14T13:37:40Z</time>
      </trkpt>
      <trkpt lat="47.77023" lon="3.50556">
        <ele>175</ele>
        <time>2019-12-14T13:37:45Z</time>
      </trkpt>
      <trkpt lat="47.77018" lon="3.50559">
        <ele>176</ele>
        <time>2019-12-14T13:37:50Z</time>
      </trkpt>
      <trkpt lat="47.77011" lon="3.5056">
        <ele>175</ele>
        <time>2019-12-14T13:37:56Z</time>
      </trkpt>
      <trkpt lat="47.77003" lon="3.50562">
        <ele>176</ele>
        <time>2019-12-14T13:38:02Z</time>
      </trkpt>
      <trkpt lat="47.76996" lon="3.50562">
        <ele>176</ele>
        <time>2019-12-14T13:38:08Z</time>
      </trkpt>
      <trkpt lat="47.76987" lon="3.50564">
        <ele>176</ele>
        <time>2019-12-14T13:38:14Z</time>
      </trkpt>
      <trkpt lat="47.76981" lon="3.50564">
        <ele>174</ele>
        <time>2019-12-14T13:38:20Z</time>
      </trkpt>
      <trkpt lat="47.76975" lon="3.50565">
        <ele>176</ele>
        <time>2019-12-14T13:38:26Z</time>
      </trkpt>
      <trkpt lat="47.76971" lon="3.5056">
        <ele>174</ele>
        <time>2019-12-14T13:38:31Z</time>
      </trkpt>
      <trkpt lat="47.76964" lon="3.50561">
        <ele>175</ele>
        <time>2019-12-14T13:38:37Z</time>
      </trkpt>
      <trkpt lat="47.76956" lon="3.50562">
        <ele>171</ele>
        <time>2019-12-14T13:38:43Z</time>
      </trkpt>
      <trkpt lat="47.76951" lon="3.50562">
        <ele>175</ele>
        <time>2019-12-14T13:38:48Z</time>
      </trkpt>
      <trkpt lat="47.76945" lon="3.50562">
        <ele>178</ele>
        <time>2019-12-14T13:38:54Z</time>
      </trkpt>
      <trkpt lat="47.76941" lon="3.50559">
        <ele>180</ele>
        <time>2019-12-14T13:38:59Z</time>
      </trkpt>
      <trkpt lat="47.76936" lon="3.5056">
        <ele>184</ele>
        <time>2019-12-14T13:39:04Z</time>
      </trkpt>
      <trkpt lat="47.76929" lon="3.5056">
        <ele>187</ele>
        <time>2019-12-14T13:39:10Z</time>
      </trkpt>
      <trkpt lat="47.76922" lon="3.50559">
        <ele>188</ele>
        <time>2019-12-14T13:39:16Z</time>
      </trkpt>
      <trkpt lat="47.76915" lon="3.50555">
        <ele>184</ele>
        <time>2019-12-14T13:39:21Z</time>
      </trkpt>
      <trkpt lat="47.76909" lon="3.50554">
        <ele>180</ele>
        <time>2019-12-14T13:39:27Z</time>
      </trkpt>
      <trkpt lat="47.76903" lon="3.50552">
        <ele>183</ele>
        <time>2019-12-14T13:39:33Z</time>
      </trkpt>
      <trkpt lat="47.76895" lon="3.5055">
        <ele>183</ele>
        <time>2019-12-14T13:39:39Z</time>
      </trkpt>
      <trkpt lat="47.76888" lon="3.50549">
        <ele>181</ele>
        <time>2019-12-14T13:39:45Z</time>
      </trkpt>
      <trkpt lat="47.76883" lon="3.50546">
        <ele>182</ele>
        <time>2019-12-14T13:39:51Z</time>
      </trkpt>
      <trkpt lat="47.76877" lon="3.50545">
        <ele>181</ele>
        <time>2019-12-14T13:39:57Z</time>
      </trkpt>
      <trkpt lat="47.7687" lon="3.50546">
        <ele>182</ele>
        <time>2019-12-14T13:40:03Z</time>
      </trkpt>
      <trkpt lat="47.76871" lon="3.50547">
        <ele>184</ele>
        <time>2019-12-14T13:40:11Z</time>
      </trkpt>
      <trkpt lat="47.76872" lon="3.50547">
        <ele>186</ele>
        <time>2019-12-14T13:40:16Z</time>
      </trkpt>
      <trkpt lat="47.76872" lon="3.50547">
        <ele>186</ele>
        <time>2019-12-14T13:40:22Z</time>
      </trkpt>
      <trkpt lat="47.76872" lon="3.50547">
        <ele>186</ele>
        <time>2019-12-14T13:40:27Z</time>
      </trkpt>
      <trkpt lat="47.76872" lon="3.50547">
        <ele>186</ele>
        <time>2019-12-14T13:40:33Z</time>
      </trkpt>
      <trkpt lat="47.76872" lon="3.50546">
        <ele>186</ele>
        <time>2019-12-14T13:40:39Z</time>
      </trkpt>
      <trkpt lat="47.76871" lon="3.50546">
        <ele>187</ele>
        <time>2019-12-14T13:40:45Z</time>
      </trkpt>
      <trkpt lat="47.76871" lon="3.50545">
        <ele>188</ele>
        <time>2019-12-14T13:40:50Z</time>
      </trkpt>
      <trkpt lat="47.76872" lon="3.50546">
        <ele>189</ele>
        <time>2019-12-14T13:40:56Z</time>
      </trkpt>
      <trkpt lat="47.76869" lon="3.50543">
        <ele>188</ele>
        <time>2019-12-14T13:41:01Z</time>
      </trkpt>
      <trkpt lat="47.76862" lon="3.50537">
        <ele>189</ele>
        <time>2019-12-14T13:41:07Z</time>
      </trkpt>
      <trkpt lat="47.7686" lon="3.50528">
        <ele>190</ele>
        <time>2019-12-14T13:41:12Z</time>
      </trkpt>
      <trkpt lat="47.76857" lon="3.50521">
        <ele>191</ele>
        <time>2019-12-14T13:41:18Z</time>
      </trkpt>
      <trkpt lat="47.76855" lon="3.50516">
        <ele>191</ele>
        <time>2019-12-14T13:41:23Z</time>
      </trkpt>
      <trkpt lat="47.76851" lon="3.50508">
        <ele>190</ele>
        <time>2019-12-14T13:41:28Z</time>
      </trkpt>
      <trkpt lat="47.76846" lon="3.50499">
        <ele>189</ele>
        <time>2019-12-14T13:41:33Z</time>
      </trkpt>
      <trkpt lat="47.76843" lon="3.50493">
        <ele>191</ele>
        <time>2019-12-14T13:41:38Z</time>
      </trkpt>
      <trkpt lat="47.7684" lon="3.50488">
        <ele>189</ele>
        <time>2019-12-14T13:41:44Z</time>
      </trkpt>
      <trkpt lat="47.76835" lon="3.50481">
        <ele>184</ele>
        <time>2019-12-14T13:41:49Z</time>
      </trkpt>
      <trkpt lat="47.76833" lon="3.50477">
        <ele>186</ele>
        <time>2019-12-14T13:41:54Z</time>
      </trkpt>
      <trkpt lat="47.76829" lon="3.50472">
        <ele>188</ele>
        <time>2019-12-14T13:41:59Z</time>
      </trkpt>
      <trkpt lat="47.76826" lon="3.50466">
        <ele>188</ele>
        <time>2019-12-14T13:42:04Z</time>
      </trkpt>
      <trkpt lat="47.76821" lon="3.50459">
        <ele>188</ele>
        <time>2019-12-14T13:42:10Z</time>
      </trkpt>
      <trkpt lat="47.76818" lon="3.5045">
        <ele>186</ele>
        <time>2019-12-14T13:42:16Z</time>
      </trkpt>
      <trkpt lat="47.76814" lon="3.50441">
        <ele>187</ele>
        <time>2019-12-14T13:42:22Z</time>
      </trkpt>
      <trkpt lat="47.76809" lon="3.50436">
        <ele>187</ele>
        <time>2019-12-14T13:42:27Z</time>
      </trkpt>
      <trkpt lat="47.76805" lon="3.50429">
        <ele>187</ele>
        <time>2019-12-14T13:42:33Z</time>
      </trkpt>
      <trkpt lat="47.768" lon="3.5042">
        <ele>187</ele>
        <time>2019-12-14T13:42:39Z</time>
      </trkpt>
      <trkpt lat="47.76798" lon="3.50417">
        <ele>189</ele>
        <time>2019-12-14T13:42:44Z</time>
      </trkpt>
      <trkpt lat="47.76792" lon="3.50408">
        <ele>188</ele>
        <time>2019-12-14T13:42:50Z</time>
      </trkpt>
      <trkpt lat="47.76791" lon="3.50402">
        <ele>186</ele>
        <time>2019-12-14T13:42:56Z</time>
      </trkpt>
      <trkpt lat="47.76786" lon="3.50396">
        <ele>186</ele>
        <time>2019-12-14T13:43:03Z</time>
      </trkpt>
      <trkpt lat="47.76783" lon="3.50393">
        <ele>186</ele>
        <time>2019-12-14T13:43:09Z</time>
      </trkpt>
      <trkpt lat="47.76778" lon="3.50384">
        <ele>184</ele>
        <time>2019-12-14T13:43:15Z</time>
      </trkpt>
      <trkpt lat="47.76775" lon="3.50376">
        <ele>186</ele>
        <time>2019-12-14T13:43:21Z</time>
      </trkpt>
      <trkpt lat="47.7677" lon="3.50369">
        <ele>186</ele>
        <time>2019-12-14T13:43:27Z</time>
      </trkpt>
      <trkpt lat="47.76765" lon="3.50361">
        <ele>187</ele>
        <time>2019-12-14T13:43:33Z</time>
      </trkpt>
      <trkpt lat="47.76763" lon="3.50356">
        <ele>189</ele>
        <time>2019-12-14T13:43:39Z</time>
      </trkpt>
      <trkpt lat="47.76759" lon="3.50355">
        <ele>190</ele>
        <time>2019-12-14T13:43:44Z</time>
      </trkpt>
      <trkpt lat="47.76753" lon="3.50359">
        <ele>190</ele>
        <time>2019-12-14T13:43:50Z</time>
      </trkpt>
      <trkpt lat="47.7675" lon="3.50362">
        <ele>191</ele>
        <time>2019-12-14T13:43:55Z</time>
      </trkpt>
      <trkpt lat="47.76751" lon="3.50362">
        <ele>188</ele>
        <time>2019-12-14T13:44:01Z</time>
      </trkpt>
      <trkpt lat="47.76749" lon="3.50363">
        <ele>187</ele>
        <time>2019-12-14T13:44:06Z</time>
      </trkpt>
      <trkpt lat="47.76749" lon="3.50363">
        <ele>187</ele>
        <time>2019-12-14T13:44:12Z</time>
      </trkpt>
      <trkpt lat="47.76749" lon="3.50364">
        <ele>188</ele>
        <time>2019-12-14T13:44:17Z</time>
      </trkpt>
      <trkpt lat="47.76749" lon="3.50364">
        <ele>188</ele>
        <time>2019-12-14T13:44:23Z</time>
      </trkpt>
      <trkpt lat="47.76749" lon="3.50364">
        <ele>188</ele>
        <time>2019-12-14T13:44:29Z</time>
      </trkpt>
      <trkpt lat="47.76749" lon="3.50364">
        <ele>188</ele>
        <time>2019-12-14T13:44:35Z</time>
      </trkpt>
      <trkpt lat="47.76749" lon="3.50364">
        <ele>185</ele>
        <time>2019-12-14T13:44:41Z</time>
      </trkpt>
      <trkpt lat="47.76749" lon="3.50364">
        <ele>185</ele>
        <time>2019-12-14T13:44:46Z</time>
      </trkpt>
      <trkpt lat="47.7675" lon="3.50364">
        <ele>185</ele>
        <time>2019-12-14T13:44:51Z</time>
      </trkpt>
      <trkpt lat="47.7675" lon="3.50364">
        <ele>186</ele>
        <time>2019-12-14T13:44:57Z</time>
      </trkpt>
      <trkpt lat="47.7675" lon="3.50364">
        <ele>187</ele>
        <time>2019-12-14T13:45:02Z</time>
      </trkpt>
      <trkpt lat="47.76744" lon="3.50367">
        <ele>189</ele>
        <time>2019-12-14T13:45:08Z</time>
      </trkpt>
      <trkpt lat="47.76744" lon="3.50367">
        <ele>191</ele>
        <time>2019-12-14T13:45:14Z</time>
      </trkpt>
      <trkpt lat="47.76744" lon="3.50367">
        <ele>191</ele>
        <time>2019-12-14T13:45:19Z</time>
      </trkpt>
      <trkpt lat="47.76745" lon="3.50368">
        <ele>190</ele>
        <time>2019-12-14T13:45:24Z</time>
      </trkpt>
      <trkpt lat="47.76745" lon="3.5037">
        <ele>186</ele>
        <time>2019-12-14T13:45:30Z</time>
      </trkpt>
      <trkpt lat="47.76746" lon="3.50371">
        <ele>190</ele>
        <time>2019-12-14T13:45:36Z</time>
      </trkpt>
      <trkpt lat="47.76747" lon="3.50373">
        <ele>191</ele>
        <time>2019-12-14T13:45:41Z</time>
      </trkpt>
      <trkpt lat="47.76748" lon="3.50373">
        <ele>191</ele>
        <time>2019-12-14T13:45:47Z</time>
      </trkpt>
      <trkpt lat="47.76748" lon="3.50373">
        <ele>191</ele>
        <time>2019-12-14T13:45:52Z</time>
      </trkpt>
      <trkpt lat="47.76748" lon="3.50373">
        <ele>191</ele>
        <time>2019-12-14T13:45:58Z</time>
      </trkpt>
      <trkpt lat="47.76747" lon="3.50373">
        <ele>191</ele>
        <time>2019-12-14T13:46:03Z</time>
      </trkpt>
      <trkpt lat="47.76747" lon="3.50373">
        <ele>191</ele>
        <time>2019-12-14T13:46:08Z</time>
      </trkpt>
      <trkpt lat="47.76745" lon="3.50377">
        <ele>191</ele>
        <time>2019-12-14T13:46:14Z</time>
      </trkpt>
      <trkpt lat="47.76748" lon="3.50376">
        <ele>193</ele>
        <time>2019-12-14T13:46:20Z</time>
      </trkpt>
      <trkpt lat="47.76749" lon="3.50376">
        <ele>193</ele>
        <time>2019-12-14T13:46:25Z</time>
      </trkpt>
      <trkpt lat="47.76749" lon="3.50376">
        <ele>193</ele>
        <time>2019-12-14T13:46:30Z</time>
      </trkpt>
      <trkpt lat="47.76749" lon="3.50376">
        <ele>193</ele>
        <time>2019-12-14T13:46:36Z</time>
      </trkpt>
      <trkpt lat="47.76749" lon="3.50376">
        <ele>193</ele>
        <time>2019-12-14T13:46:41Z</time>
      </trkpt>
      <trkpt lat="47.76748" lon="3.50379">
        <ele>188</ele>
        <time>2019-12-14T13:46:47Z</time>
      </trkpt>
      <trkpt lat="47.76746" lon="3.5038">
        <ele>187</ele>
        <time>2019-12-14T13:46:53Z</time>
      </trkpt>
      <trkpt lat="47.76741" lon="3.50389">
        <ele>186</ele>
        <time>2019-12-14T13:46:58Z</time>
      </trkpt>
      <trkpt lat="47.7674" lon="3.50397">
        <ele>185</ele>
        <time>2019-12-14T13:47:04Z</time>
      </trkpt>
      <trkpt lat="47.76736" lon="3.50406">
        <ele>184</ele>
        <time>2019-12-14T13:47:09Z</time>
      </trkpt>
      <trkpt lat="47.7673" lon="3.50414">
        <ele>183</ele>
        <time>2019-12-14T13:47:15Z</time>
      </trkpt>
      <trkpt lat="47.76729" lon="3.50417">
        <ele>183</ele>
        <time>2019-12-14T13:47:20Z</time>
      </trkpt>
      <trkpt lat="47.76724" lon="3.50425">
        <ele>185</ele>
        <time>2019-12-14T13:47:26Z</time>
      </trkpt>
      <trkpt lat="47.76722" lon="3.50434">
        <ele>183</ele>
        <time>2019-12-14T13:47:32Z</time>
      </trkpt>
      <trkpt lat="47.76718" lon="3.50439">
        <ele>182</ele>
        <time>2019-12-14T13:47:37Z</time>
      </trkpt>
      <trkpt lat="47.76715" lon="3.50441">
        <ele>183</ele>
        <time>2019-12-14T13:47:43Z</time>
      </trkpt>
      <trkpt lat="47.76712" lon="3.50451">
        <ele>185</ele>
        <time>2019-12-14T13:47:49Z</time>
      </trkpt>
      <trkpt lat="47.76706" lon="3.50456">
        <ele>182</ele>
        <time>2019-12-14T13:47:54Z</time>
      </trkpt>
      <trkpt lat="47.76702" lon="3.50466">
        <ele>185</ele>
        <time>2019-12-14T13:48:00Z</time>
      </trkpt>
      <trkpt lat="47.76699" lon="3.50473">
        <ele>185</ele>
        <time>2019-12-14T13:48:05Z</time>
      </trkpt>
      <trkpt lat="47.76695" lon="3.50483">
        <ele>181</ele>
        <time>2019-12-14T13:48:11Z</time>
      </trkpt>
      <trkpt lat="47.76692" lon="3.5049">
        <ele>183</ele>
        <time>2019-12-14T13:48:16Z</time>
      </trkpt>
      <trkpt lat="47.76689" lon="3.50496">
        <ele>187</ele>
        <time>2019-12-14T13:48:22Z</time>
      </trkpt>
      <trkpt lat="47.76687" lon="3.50502">
        <ele>191</ele>
        <time>2019-12-14T13:48:28Z</time>
      </trkpt>
      <trkpt lat="47.76682" lon="3.50512">
        <ele>191</ele>
        <time>2019-12-14T13:48:34Z</time>
      </trkpt>
      <trkpt lat="47.76678" lon="3.50519">
        <ele>190</ele>
        <time>2019-12-14T13:48:40Z</time>
      </trkpt>
      <trkpt lat="47.76675" lon="3.50527">
        <ele>191</ele>
        <time>2019-12-14T13:48:46Z</time>
      </trkpt>
      <trkpt lat="47.76671" lon="3.50536">
        <ele>193</ele>
        <time>2019-12-14T13:48:52Z</time>
      </trkpt>
      <trkpt lat="47.76667" lon="3.50544">
        <ele>192</ele>
        <time>2019-12-14T13:48:58Z</time>
      </trkpt>
      <trkpt lat="47.76665" lon="3.5055">
        <ele>194</ele>
        <time>2019-12-14T13:49:03Z</time>
      </trkpt>
      <trkpt lat="47.76663" lon="3.50555">
        <ele>194</ele>
        <time>2019-12-14T13:49:08Z</time>
      </trkpt>
      <trkpt lat="47.76659" lon="3.50561">
        <ele>195</ele>
        <time>2019-12-14T13:49:13Z</time>
      </trkpt>
      <trkpt lat="47.76654" lon="3.50572">
        <ele>194</ele>
        <time>2019-12-14T13:49:19Z</time>
      </trkpt>
      <trkpt lat="47.7665" lon="3.50574">
        <ele>193</ele>
        <time>2019-12-14T13:49:24Z</time>
      </trkpt>
      <trkpt lat="47.7665" lon="3.50582">
        <ele>196</ele>
        <time>2019-12-14T13:49:30Z</time>
      </trkpt>
      <trkpt lat="47.76646" lon="3.5059">
        <ele>195</ele>
        <time>2019-12-14T13:49:35Z</time>
      </trkpt>
      <trkpt lat="47.76642" lon="3.50595">
        <ele>195</ele>
        <time>2019-12-14T13:49:40Z</time>
      </trkpt>
      <trkpt lat="47.76638" lon="3.50598">
        <ele>198</ele>
        <time>2019-12-14T13:49:45Z</time>
      </trkpt>
      <trkpt lat="47.76637" lon="3.506">
        <ele>197</ele>
        <time>2019-12-14T13:49:50Z</time>
      </trkpt>
      <trkpt lat="47.76637" lon="3.506">
        <ele>197</ele>
        <time>2019-12-14T13:49:56Z</time>
      </trkpt>
      <trkpt lat="47.76637" lon="3.506">
        <ele>198</ele>
        <time>2019-12-14T13:50:01Z</time>
      </trkpt>
      <trkpt lat="47.76637" lon="3.506">
        <ele>198</ele>
        <time>2019-12-14T13:50:07Z</time>
      </trkpt>
      <trkpt lat="47.76637" lon="3.506">
        <ele>198</ele>
        <time>2019-12-14T13:50:13Z</time>
      </trkpt>
      <trkpt lat="47.76637" lon="3.506">
        <ele>198</ele>
        <time>2019-12-14T13:50:18Z</time>
      </trkpt>
      <trkpt lat="47.76637" lon="3.506">
        <ele>198</ele>
        <time>2019-12-14T13:50:24Z</time>
      </trkpt>
      <trkpt lat="47.76631" lon="3.50597">
        <ele>198</ele>
        <time>2019-12-14T13:50:30Z</time>
      </trkpt>
      <trkpt lat="47.76626" lon="3.50593">
        <ele>196</ele>
        <time>2019-12-14T13:50:36Z</time>
      </trkpt>
      <trkpt lat="47.76623" lon="3.5059">
        <ele>198</ele>
        <time>2019-12-14T13:50:41Z</time>
      </trkpt>
      <trkpt lat="47.76618" lon="3.50587">
        <ele>197</ele>
        <time>2019-12-14T13:50:46Z</time>
      </trkpt>
      <trkpt lat="47.76613" lon="3.50582">
        <ele>198</ele>
        <time>2019-12-14T13:50:52Z</time>
      </trkpt>
      <trkpt lat="47.76608" lon="3.50578">
        <ele>201</ele>
        <time>2019-12-14T13:50:57Z</time>
      </trkpt>
      <trkpt lat="47.76602" lon="3.50576">
        <ele>201</ele>
        <time>2019-12-14T13:51:03Z</time>
      </trkpt>
      <trkpt lat="47.76596" lon="3.50571">
        <ele>203</ele>
        <time>2019-12-14T13:51:08Z</time>
      </trkpt>
      <trkpt lat="47.76588" lon="3.50564">
        <ele>201</ele>
        <time>2019-12-14T13:51:14Z</time>
      </trkpt>
      <trkpt lat="47.76582" lon="3.5056">
        <ele>202</ele>
        <time>2019-12-14T13:51:20Z</time>
      </trkpt>
      <trkpt lat="47.76575" lon="3.50556">
        <ele>200</ele>
        <time>2019-12-14T13:51:25Z</time>
      </trkpt>
      <trkpt lat="47.76567" lon="3.50552">
        <ele>200</ele>
        <time>2019-12-14T13:51:30Z</time>
      </trkpt>
      <trkpt lat="47.76563" lon="3.50549">
        <ele>200</ele>
        <time>2019-12-14T13:51:36Z</time>
      </trkpt>
      <trkpt lat="47.7656" lon="3.50548">
        <ele>200</ele>
        <time>2019-12-14T13:51:41Z</time>
      </trkpt>
      <trkpt lat="47.76552" lon="3.50539">
        <ele>198</ele>
        <time>2019-12-14T13:51:47Z</time>
      </trkpt>
      <trkpt lat="47.76541" lon="3.50532">
        <ele>201</ele>
        <time>2019-12-14T13:51:55Z</time>
      </trkpt>
      <trkpt lat="47.76537" lon="3.50526">
        <ele>200</ele>
        <time>2019-12-14T13:52:00Z</time>
      </trkpt>
      <trkpt lat="47.76532" lon="3.50522">
        <ele>201</ele>
        <time>2019-12-14T13:52:05Z</time>
      </trkpt>
      <trkpt lat="47.76529" lon="3.50517">
        <ele>201</ele>
        <time>2019-12-14T13:52:10Z</time>
      </trkpt>
      <trkpt lat="47.76528" lon="3.50517">
        <ele>200</ele>
        <time>2019-12-14T13:52:15Z</time>
      </trkpt>
      <trkpt lat="47.76523" lon="3.50513">
        <ele>200</ele>
        <time>2019-12-14T13:52:20Z</time>
      </trkpt>
      <trkpt lat="47.76516" lon="3.5051">
        <ele>198</ele>
        <time>2019-12-14T13:52:26Z</time>
      </trkpt>
      <trkpt lat="47.76509" lon="3.50502">
        <ele>200</ele>
        <time>2019-12-14T13:52:32Z</time>
      </trkpt>
      <trkpt lat="47.76504" lon="3.50498">
        <ele>201</ele>
        <time>2019-12-14T13:52:38Z</time>
      </trkpt>
      <trkpt lat="47.76498" lon="3.50493">
        <ele>202</ele>
        <time>2019-12-14T13:52:44Z</time>
      </trkpt>
      <trkpt lat="47.76491" lon="3.50492">
        <ele>201</ele>
        <time>2019-12-14T13:52:49Z</time>
      </trkpt>
      <trkpt lat="47.76488" lon="3.50487">
        <ele>205</ele>
        <time>2019-12-14T13:52:55Z</time>
      </trkpt>
      <trkpt lat="47.76482" lon="3.5048">
        <ele>206</ele>
        <time>2019-12-14T13:53:01Z</time>
      </trkpt>
      <trkpt lat="47.76477" lon="3.50472">
        <ele>204</ele>
        <time>2019-12-14T13:53:06Z</time>
      </trkpt>
      <trkpt lat="47.76475" lon="3.50468">
        <ele>203</ele>
        <time>2019-12-14T13:53:11Z</time>
      </trkpt>
      <trkpt lat="47.76476" lon="3.50467">
        <ele>205</ele>
        <time>2019-12-14T13:53:16Z</time>
      </trkpt>
      <trkpt lat="47.76475" lon="3.50467">
        <ele>204</ele>
        <time>2019-12-14T13:53:22Z</time>
      </trkpt>
      <trkpt lat="47.76475" lon="3.50466">
        <ele>204</ele>
        <time>2019-12-14T13:53:28Z</time>
      </trkpt>
      <trkpt lat="47.76475" lon="3.50466">
        <ele>204</ele>
        <time>2019-12-14T13:53:33Z</time>
      </trkpt>
      <trkpt lat="47.76474" lon="3.50466">
        <ele>203</ele>
        <time>2019-12-14T13:53:39Z</time>
      </trkpt>
      <trkpt lat="47.76471" lon="3.50463">
        <ele>202</ele>
        <time>2019-12-14T13:53:44Z</time>
      </trkpt>
      <trkpt lat="47.76464" lon="3.50458">
        <ele>203</ele>
        <time>2019-12-14T13:53:50Z</time>
      </trkpt>
      <trkpt lat="47.7646" lon="3.50453">
        <ele>202</ele>
        <time>2019-12-14T13:53:55Z</time>
      </trkpt>
      <trkpt lat="47.76455" lon="3.50449">
        <ele>202</ele>
        <time>2019-12-14T13:54:00Z</time>
      </trkpt>
      <trkpt lat="47.76449" lon="3.50443">
        <ele>203</ele>
        <time>2019-12-14T13:54:06Z</time>
      </trkpt>
      <trkpt lat="47.76445" lon="3.50437">
        <ele>201</ele>
        <time>2019-12-14T13:54:11Z</time>
      </trkpt>
      <trkpt lat="47.76439" lon="3.5043">
        <ele>203</ele>
        <time>2019-12-14T13:54:17Z</time>
      </trkpt>
      <trkpt lat="47.76435" lon="3.50426">
        <ele>204</ele>
        <time>2019-12-14T13:54:22Z</time>
      </trkpt>
      <trkpt lat="47.76431" lon="3.50422">
        <ele>206</ele>
        <time>2019-12-14T13:54:28Z</time>
      </trkpt>
      <trkpt lat="47.76431" lon="3.50421">
        <ele>205</ele>
        <time>2019-12-14T13:54:33Z</time>
      </trkpt>
      <trkpt lat="47.76431" lon="3.50421">
        <ele>207</ele>
        <time>2019-12-14T13:54:39Z</time>
      </trkpt>
      <trkpt lat="47.76429" lon="3.50418">
        <ele>207</ele>
        <time>2019-12-14T13:54:45Z</time>
      </trkpt>
      <trkpt lat="47.76424" lon="3.50412">
        <ele>206</ele>
        <time>2019-12-14T13:54:51Z</time>
      </trkpt>
      <trkpt lat="47.76421" lon="3.50404">
        <ele>204</ele>
        <time>2019-12-14T13:54:56Z</time>
      </trkpt>
      <trkpt lat="47.76417" lon="3.504">
        <ele>204</ele>
        <time>2019-12-14T13:55:02Z</time>
      </trkpt>
      <trkpt lat="47.76417" lon="3.50398">
        <ele>204</ele>
        <time>2019-12-14T13:55:07Z</time>
      </trkpt>
      <trkpt lat="47.76417" lon="3.50396">
        <ele>204</ele>
        <time>2019-12-14T13:55:12Z</time>
      </trkpt>
      <trkpt lat="47.76416" lon="3.50395">
        <ele>204</ele>
        <time>2019-12-14T13:55:17Z</time>
      </trkpt>
      <trkpt lat="47.7641" lon="3.50392">
        <ele>204</ele>
        <time>2019-12-14T13:55:23Z</time>
      </trkpt>
      <trkpt lat="47.76404" lon="3.50386">
        <ele>203</ele>
        <time>2019-12-14T13:55:29Z</time>
      </trkpt>
      <trkpt lat="47.76402" lon="3.50382">
        <ele>201</ele>
        <time>2019-12-14T13:55:35Z</time>
      </trkpt>
      <trkpt lat="47.76403" lon="3.50384">
        <ele>203</ele>
        <time>2019-12-14T13:55:40Z</time>
      </trkpt>
      <trkpt lat="47.76404" lon="3.50385">
        <ele>204</ele>
        <time>2019-12-14T13:55:46Z</time>
      </trkpt>
      <trkpt lat="47.76404" lon="3.50385">
        <ele>204</ele>
        <time>2019-12-14T13:55:51Z</time>
      </trkpt>
      <trkpt lat="47.76403" lon="3.50385">
        <ele>204</ele>
        <time>2019-12-14T13:55:57Z</time>
      </trkpt>
      <trkpt lat="47.76402" lon="3.50384">
        <ele>203</ele>
        <time>2019-12-14T13:56:03Z</time>
      </trkpt>
      <trkpt lat="47.764" lon="3.50383">
        <ele>202</ele>
        <time>2019-12-14T13:56:09Z</time>
      </trkpt>
      <trkpt lat="47.76401" lon="3.50382">
        <ele>202</ele>
        <time>2019-12-14T13:56:15Z</time>
      </trkpt>
      <trkpt lat="47.76401" lon="3.50383">
        <ele>201</ele>
        <time>2019-12-14T13:56:21Z</time>
      </trkpt>
      <trkpt lat="47.76401" lon="3.50384">
        <ele>202</ele>
        <time>2019-12-14T13:56:26Z</time>
      </trkpt>
      <trkpt lat="47.76402" lon="3.50386">
        <ele>205</ele>
        <time>2019-12-14T13:56:32Z</time>
      </trkpt>
      <trkpt lat="47.76402" lon="3.50386">
        <ele>205</ele>
        <time>2019-12-14T13:56:38Z</time>
      </trkpt>
      <trkpt lat="47.76403" lon="3.50385">
        <ele>206</ele>
        <time>2019-12-14T13:56:43Z</time>
      </trkpt>
      <trkpt lat="47.76401" lon="3.50385">
        <ele>204</ele>
        <time>2019-12-14T13:56:49Z</time>
      </trkpt>
      <trkpt lat="47.76397" lon="3.5038">
        <ele>203</ele>
        <time>2019-12-14T13:56:55Z</time>
      </trkpt>
      <trkpt lat="47.76392" lon="3.50375">
        <ele>203</ele>
        <time>2019-12-14T13:57:00Z</time>
      </trkpt>
      <trkpt lat="47.76386" lon="3.50367">
        <ele>205</ele>
        <time>2019-12-14T13:57:08Z</time>
      </trkpt>
      <trkpt lat="47.76384" lon="3.50363">
        <ele>204</ele>
        <time>2019-12-14T13:57:13Z</time>
      </trkpt>
      <trkpt lat="47.76378" lon="3.50356">
        <ele>204</ele>
        <time>2019-12-14T13:57:19Z</time>
      </trkpt>
      <trkpt lat="47.76372" lon="3.50351">
        <ele>203</ele>
        <time>2019-12-14T13:57:24Z</time>
      </trkpt>
      <trkpt lat="47.76368" lon="3.50343">
        <ele>205</ele>
        <time>2019-12-14T13:57:30Z</time>
      </trkpt>
      <trkpt lat="47.7636" lon="3.50338">
        <ele>205</ele>
        <time>2019-12-14T13:57:36Z</time>
      </trkpt>
      <trkpt lat="47.76357" lon="3.50333">
        <ele>203</ele>
        <time>2019-12-14T13:57:41Z</time>
      </trkpt>
      <trkpt lat="47.76354" lon="3.50329">
        <ele>205</ele>
        <time>2019-12-14T13:57:47Z</time>
      </trkpt>
      <trkpt lat="47.76349" lon="3.50321">
        <ele>202</ele>
        <time>2019-12-14T13:57:53Z</time>
      </trkpt>
      <trkpt lat="47.76343" lon="3.50317">
        <ele>202</ele>
        <time>2019-12-14T13:57:59Z</time>
      </trkpt>
      <trkpt lat="47.76339" lon="3.50309">
        <ele>204</ele>
        <time>2019-12-14T13:58:04Z</time>
      </trkpt>
      <trkpt lat="47.76333" lon="3.50302">
        <ele>204</ele>
        <time>2019-12-14T13:58:10Z</time>
      </trkpt>
      <trkpt lat="47.76329" lon="3.50299">
        <ele>206</ele>
        <time>2019-12-14T13:58:15Z</time>
      </trkpt>
      <trkpt lat="47.76323" lon="3.50294">
        <ele>207</ele>
        <time>2019-12-14T13:58:21Z</time>
      </trkpt>
      <trkpt lat="47.76319" lon="3.50289">
        <ele>209</ele>
        <time>2019-12-14T13:58:26Z</time>
      </trkpt>
      <trkpt lat="47.76316" lon="3.50284">
        <ele>206</ele>
        <time>2019-12-14T13:58:32Z</time>
      </trkpt>
      <trkpt lat="47.76313" lon="3.50282">
        <ele>205</ele>
        <time>2019-12-14T13:58:37Z</time>
      </trkpt>
      <trkpt lat="47.76313" lon="3.50281">
        <ele>205</ele>
        <time>2019-12-14T13:58:43Z</time>
      </trkpt>
      <trkpt lat="47.76313" lon="3.5028">
        <ele>205</ele>
        <time>2019-12-14T13:58:49Z</time>
      </trkpt>
      <trkpt lat="47.76313" lon="3.5028">
        <ele>202</ele>
        <time>2019-12-14T13:58:55Z</time>
      </trkpt>
      <trkpt lat="47.76312" lon="3.50281">
        <ele>202</ele>
        <time>2019-12-14T13:59:00Z</time>
      </trkpt>
      <trkpt lat="47.76313" lon="3.5028">
        <ele>204</ele>
        <time>2019-12-14T13:59:06Z</time>
      </trkpt>
      <trkpt lat="47.76313" lon="3.50279">
        <ele>203</ele>
        <time>2019-12-14T13:59:12Z</time>
      </trkpt>
      <trkpt lat="47.76312" lon="3.50279">
        <ele>203</ele>
        <time>2019-12-14T13:59:18Z</time>
      </trkpt>
      <trkpt lat="47.76313" lon="3.5028">
        <ele>204</ele>
        <time>2019-12-14T13:59:24Z</time>
      </trkpt>
      <trkpt lat="47.76313" lon="3.5028">
        <ele>204</ele>
        <time>2019-12-14T13:59:31Z</time>
      </trkpt>
      <trkpt lat="47.7631" lon="3.50279">
        <ele>204</ele>
        <time>2019-12-14T13:59:37Z</time>
      </trkpt>
      <trkpt lat="47.76304" lon="3.50275">
        <ele>205</ele>
        <time>2019-12-14T13:59:42Z</time>
      </trkpt>
      <trkpt lat="47.76298" lon="3.50269">
        <ele>207</ele>
        <time>2019-12-14T13:59:47Z</time>
      </trkpt>
      <trkpt lat="47.76293" lon="3.50263">
        <ele>208</ele>
        <time>2019-12-14T13:59:53Z</time>
      </trkpt>
      <trkpt lat="47.7629" lon="3.50256">
        <ele>205</ele>
        <time>2019-12-14T13:59:59Z</time>
      </trkpt>
      <trkpt lat="47.76282" lon="3.50252">
        <ele>204</ele>
        <time>2019-12-14T14:00:05Z</time>
      </trkpt>
      <trkpt lat="47.76277" lon="3.50249">
        <ele>205</ele>
        <time>2019-12-14T14:00:10Z</time>
      </trkpt>
      <trkpt lat="47.76274" lon="3.50244">
        <ele>206</ele>
        <time>2019-12-14T14:00:15Z</time>
      </trkpt>
      <trkpt lat="47.76269" lon="3.50239">
        <ele>205</ele>
        <time>2019-12-14T14:00:21Z</time>
      </trkpt>
      <trkpt lat="47.76261" lon="3.50234">
        <ele>205</ele>
        <time>2019-12-14T14:00:27Z</time>
      </trkpt>
      <trkpt lat="47.76256" lon="3.50229">
        <ele>206</ele>
        <time>2019-12-14T14:00:33Z</time>
      </trkpt>
      <trkpt lat="47.76249" lon="3.50229">
        <ele>208</ele>
        <time>2019-12-14T14:00:39Z</time>
      </trkpt>
      <trkpt lat="47.76244" lon="3.50231">
        <ele>210</ele>
        <time>2019-12-14T14:00:45Z</time>
      </trkpt>
      <trkpt lat="47.76239" lon="3.50227">
        <ele>211</ele>
        <time>2019-12-14T14:00:50Z</time>
      </trkpt>
      <trkpt lat="47.76233" lon="3.50221">
        <ele>213</ele>
        <time>2019-12-14T14:00:56Z</time>
      </trkpt>
      <trkpt lat="47.76226" lon="3.50216">
        <ele>213</ele>
        <time>2019-12-14T14:01:01Z</time>
      </trkpt>
      <trkpt lat="47.76222" lon="3.50214">
        <ele>211</ele>
        <time>2019-12-14T14:01:06Z</time>
      </trkpt>
      <trkpt lat="47.76213" lon="3.50213">
        <ele>210</ele>
        <time>2019-12-14T14:01:12Z</time>
      </trkpt>
      <trkpt lat="47.76209" lon="3.50207">
        <ele>211</ele>
        <time>2019-12-14T14:01:18Z</time>
      </trkpt>
      <trkpt lat="47.76203" lon="3.50203">
        <ele>212</ele>
        <time>2019-12-14T14:01:23Z</time>
      </trkpt>
      <trkpt lat="47.76195" lon="3.502">
        <ele>212</ele>
        <time>2019-12-14T14:01:29Z</time>
      </trkpt>
      <trkpt lat="47.76192" lon="3.50196">
        <ele>211</ele>
        <time>2019-12-14T14:01:34Z</time>
      </trkpt>
      <trkpt lat="47.76187" lon="3.50196">
        <ele>214</ele>
        <time>2019-12-14T14:01:40Z</time>
      </trkpt>
      <trkpt lat="47.76178" lon="3.50195">
        <ele>214</ele>
        <time>2019-12-14T14:01:46Z</time>
      </trkpt>
      <trkpt lat="47.76171" lon="3.50196">
        <ele>209</ele>
        <time>2019-12-14T14:01:51Z</time>
      </trkpt>
      <trkpt lat="47.76167" lon="3.5019">
        <ele>208</ele>
        <time>2019-12-14T14:01:57Z</time>
      </trkpt>
      <trkpt lat="47.76161" lon="3.50193">
        <ele>208</ele>
        <time>2019-12-14T14:02:02Z</time>
      </trkpt>
      <trkpt lat="47.76152" lon="3.5019">
        <ele>204</ele>
        <time>2019-12-14T14:02:08Z</time>
      </trkpt>
      <trkpt lat="47.76145" lon="3.50189">
        <ele>198</ele>
        <time>2019-12-14T14:02:13Z</time>
      </trkpt>
      <trkpt lat="47.76143" lon="3.50185">
        <ele>205</ele>
        <time>2019-12-14T14:02:18Z</time>
      </trkpt>
      <trkpt lat="47.76137" lon="3.5018">
        <ele>208</ele>
        <time>2019-12-14T14:02:24Z</time>
      </trkpt>
      <trkpt lat="47.76129" lon="3.50188">
        <ele>209</ele>
        <time>2019-12-14T14:02:30Z</time>
      </trkpt>
      <trkpt lat="47.7613" lon="3.50187">
        <ele>210</ele>
        <time>2019-12-14T14:02:36Z</time>
      </trkpt>
      <trkpt lat="47.7613" lon="3.50187">
        <ele>212</ele>
        <time>2019-12-14T14:02:42Z</time>
      </trkpt>
      <trkpt lat="47.7613" lon="3.50186">
        <ele>212</ele>
        <time>2019-12-14T14:02:48Z</time>
      </trkpt>
      <trkpt lat="47.76131" lon="3.50187">
        <ele>212</ele>
        <time>2019-12-14T14:02:54Z</time>
      </trkpt>
      <trkpt lat="47.76131" lon="3.50187">
        <ele>212</ele>
        <time>2019-12-14T14:03:00Z</time>
      </trkpt>
      <trkpt lat="47.7613" lon="3.50186">
        <ele>212</ele>
        <time>2019-12-14T14:03:05Z</time>
      </trkpt>
      <trkpt lat="47.76128" lon="3.50182">
        <ele>215</ele>
        <time>2019-12-14T14:03:11Z</time>
      </trkpt>
      <trkpt lat="47.76128" lon="3.50182">
        <ele>214</ele>
        <time>2019-12-14T14:03:16Z</time>
      </trkpt>
      <trkpt lat="47.76128" lon="3.50182">
        <ele>214</ele>
        <time>2019-12-14T14:03:21Z</time>
      </trkpt>
      <trkpt lat="47.76124" lon="3.50177">
        <ele>215</ele>
        <time>2019-12-14T14:03:26Z</time>
      </trkpt>
      <trkpt lat="47.76117" lon="3.50169">
        <ele>213</ele>
        <time>2019-12-14T14:03:31Z</time>
      </trkpt>
      <trkpt lat="47.76111" lon="3.50164">
        <ele>212</ele>
        <time>2019-12-14T14:03:37Z</time>
      </trkpt>
      <trkpt lat="47.76105" lon="3.50164">
        <ele>212</ele>
        <time>2019-12-14T14:03:42Z</time>
      </trkpt>
      <trkpt lat="48.89795" lon="2.34339">
        <ele>51</ele>
        <time>2019-12-14T14:03:50Z</time>
      </trkpt>
      <trkpt lat="47.761" lon="3.50164">
        <ele>212</ele>
        <time>2019-12-14T14:03:55Z</time>
      </trkpt>
      <trkpt lat="47.761" lon="3.50164">
        <ele>212</ele>
        <time>2019-12-14T14:04:00Z</time>
      </trkpt>
      <trkpt lat="47.761" lon="3.50164">
        <ele>212</ele>
        <time>2019-12-14T14:04:05Z</time>
      </trkpt>
      <trkpt lat="47.76099" lon="3.50164">
        <ele>214</ele>
        <time>2019-12-14T14:04:11Z</time>
      </trkpt>
      <trkpt lat="47.76101" lon="3.50164">
        <ele>214</ele>
        <time>2019-12-14T14:04:16Z</time>
      </trkpt>
      <trkpt lat="47.76101" lon="3.50164">
        <ele>213</ele>
        <time>2019-12-14T14:04:22Z</time>
      </trkpt>
      <trkpt lat="47.76101" lon="3.50164">
        <ele>213</ele>
        <time>2019-12-14T14:04:28Z</time>
      </trkpt>
      <trkpt lat="47.76101" lon="3.50164">
        <ele>213</ele>
        <time>2019-12-14T14:04:33Z</time>
      </trkpt>
      <trkpt lat="47.76101" lon="3.50164">
        <ele>212</ele>
        <time>2019-12-14T14:04:38Z</time>
      </trkpt>
      <trkpt lat="47.76101" lon="3.50164">
        <ele>212</ele>
        <time>2019-12-14T14:04:44Z</time>
      </trkpt>
      <trkpt lat="47.76101" lon="3.50164">
        <ele>212</ele>
        <time>2019-12-14T14:04:49Z</time>
      </trkpt>
      <trkpt lat="47.76101" lon="3.50164">
        <ele>212</ele>
        <time>2019-12-14T14:04:55Z</time>
      </trkpt>
      <trkpt lat="47.76101" lon="3.50164">
        <ele>212</ele>
        <time>2019-12-14T14:05:00Z</time>
      </trkpt>
      <trkpt lat="47.76101" lon="3.50165">
        <ele>213</ele>
        <time>2019-12-14T14:05:05Z</time>
      </trkpt>
      <trkpt lat="47.761" lon="3.50163">
        <ele>213</ele>
        <time>2019-12-14T14:05:14Z</time>
      </trkpt>
      <trkpt lat="47.76096" lon="3.50164">
        <ele>218</ele>
        <time>2019-12-14T14:05:19Z</time>
      </trkpt>
      <trkpt lat="47.76096" lon="3.50163">
        <ele>216</ele>
        <time>2019-12-14T14:05:25Z</time>
      </trkpt>
      <trkpt lat="47.76095" lon="3.50163">
        <ele>218</ele>
        <time>2019-12-14T14:05:31Z</time>
      </trkpt>
      <trkpt lat="47.76095" lon="3.50163">
        <ele>219</ele>
        <time>2019-12-14T14:05:37Z</time>
      </trkpt>
      <trkpt lat="47.76095" lon="3.50163">
        <ele>219</ele>
        <time>2019-12-14T14:05:43Z</time>
      </trkpt>
      <trkpt lat="47.76095" lon="3.50163">
        <ele>219</ele>
        <time>2019-12-14T14:05:48Z</time>
      </trkpt>
      <trkpt lat="47.76096" lon="3.5017">
        <ele>214</ele>
        <time>2019-12-14T14:05:54Z</time>
      </trkpt>
      <trkpt lat="47.76095" lon="3.50179">
        <ele>214</ele>
        <time>2019-12-14T14:05:59Z</time>
      </trkpt>
      <trkpt lat="47.76095" lon="3.50188">
        <ele>218</ele>
        <time>2019-12-14T14:06:05Z</time>
      </trkpt>
      <trkpt lat="47.76095" lon="3.50198">
        <ele>220</ele>
        <time>2019-12-14T14:06:12Z</time>
      </trkpt>
      <trkpt lat="47.76094" lon="3.50206">
        <ele>222</ele>
        <time>2019-12-14T14:06:17Z</time>
      </trkpt>
      <trkpt lat="47.76094" lon="3.50214">
        <ele>223</ele>
        <time>2019-12-14T14:06:22Z</time>
      </trkpt>
      <trkpt lat="47.76093" lon="3.50225">
        <ele>223</ele>
        <time>2019-12-14T14:06:28Z</time>
      </trkpt>
      <trkpt lat="47.76093" lon="3.50234">
        <ele>225</ele>
        <time>2019-12-14T14:06:33Z</time>
      </trkpt>
      <trkpt lat="47.76093" lon="3.50244">
        <ele>222</ele>
        <time>2019-12-14T14:06:39Z</time>
      </trkpt>
      <trkpt lat="47.76091" lon="3.50259">
        <ele>216</ele>
        <time>2019-12-14T14:06:47Z</time>
      </trkpt>
      <trkpt lat="47.76091" lon="3.50267">
        <ele>216</ele>
        <time>2019-12-14T14:06:52Z</time>
      </trkpt>
      <trkpt lat="47.76089" lon="3.50275">
        <ele>213</ele>
        <time>2019-12-14T14:06:58Z</time>
      </trkpt>
      <trkpt lat="47.76088" lon="3.50283">
        <ele>213</ele>
        <time>2019-12-14T14:07:03Z</time>
      </trkpt>
      <trkpt lat="47.76089" lon="3.50287">
        <ele>212</ele>
        <time>2019-12-14T14:07:10Z</time>
      </trkpt>
      <trkpt lat="47.7609" lon="3.50291">
        <ele>213</ele>
        <time>2019-12-14T14:07:15Z</time>
      </trkpt>
      <trkpt lat="47.76089" lon="3.5029">
        <ele>213</ele>
        <time>2019-12-14T14:07:21Z</time>
      </trkpt>
      <trkpt lat="47.76088" lon="3.5029">
        <ele>213</ele>
        <time>2019-12-14T14:07:26Z</time>
      </trkpt>
      <trkpt lat="47.76086" lon="3.50292">
        <ele>212</ele>
        <time>2019-12-14T14:07:32Z</time>
      </trkpt>
      <trkpt lat="47.76086" lon="3.50299">
        <ele>212</ele>
        <time>2019-12-14T14:07:37Z</time>
      </trkpt>
      <trkpt lat="47.76085" lon="3.50307">
        <ele>211</ele>
        <time>2019-12-14T14:07:43Z</time>
      </trkpt>
      <trkpt lat="47.76085" lon="3.5031">
        <ele>211</ele>
        <time>2019-12-14T14:07:49Z</time>
      </trkpt>
      <trkpt lat="47.76085" lon="3.50311">
        <ele>212</ele>
        <time>2019-12-14T14:07:55Z</time>
      </trkpt>
      <trkpt lat="47.76084" lon="3.50319">
        <ele>211</ele>
        <time>2019-12-14T14:08:00Z</time>
      </trkpt>
      <trkpt lat="47.76083" lon="3.50327">
        <ele>213</ele>
        <time>2019-12-14T14:08:06Z</time>
      </trkpt>
      <trkpt lat="47.76081" lon="3.50335">
        <ele>214</ele>
        <time>2019-12-14T14:08:12Z</time>
      </trkpt>
      <trkpt lat="47.7608" lon="3.50347">
        <ele>215</ele>
        <time>2019-12-14T14:08:18Z</time>
      </trkpt>
      <trkpt lat="47.76079" lon="3.50354">
        <ele>215</ele>
        <time>2019-12-14T14:08:26Z</time>
      </trkpt>
      <trkpt lat="47.7608" lon="3.50355">
        <ele>215</ele>
        <time>2019-12-14T14:08:31Z</time>
      </trkpt>
      <trkpt lat="47.7608" lon="3.50357">
        <ele>215</ele>
        <time>2019-12-14T14:08:36Z</time>
      </trkpt>
      <trkpt lat="47.76079" lon="3.50358">
        <ele>214</ele>
        <time>2019-12-14T14:08:42Z</time>
      </trkpt>
      <trkpt lat="47.76079" lon="3.5037">
        <ele>212</ele>
        <time>2019-12-14T14:08:48Z</time>
      </trkpt>
      <trkpt lat="47.76076" lon="3.5038">
        <ele>213</ele>
        <time>2019-12-14T14:08:53Z</time>
      </trkpt>
      <trkpt lat="47.76076" lon="3.50388">
        <ele>213</ele>
        <time>2019-12-14T14:08:58Z</time>
      </trkpt>
      <trkpt lat="47.76074" lon="3.50396">
        <ele>211</ele>
        <time>2019-12-14T14:09:03Z</time>
      </trkpt>
      <trkpt lat="47.76073" lon="3.50405">
        <ele>220</ele>
        <time>2019-12-14T14:09:09Z</time>
      </trkpt>
      <trkpt lat="47.76073" lon="3.50414">
        <ele>219</ele>
        <time>2019-12-14T14:09:15Z</time>
      </trkpt>
      <trkpt lat="47.76071" lon="3.50426">
        <ele>219</ele>
        <time>2019-12-14T14:09:21Z</time>
      </trkpt>
      <trkpt lat="47.76069" lon="3.50435">
        <ele>220</ele>
        <time>2019-12-14T14:09:27Z</time>
      </trkpt>
      <trkpt lat="47.76067" lon="3.50445">
        <ele>222</ele>
        <time>2019-12-14T14:09:32Z</time>
      </trkpt>
      <trkpt lat="47.76064" lon="3.50453">
        <ele>222</ele>
        <time>2019-12-14T14:09:37Z</time>
      </trkpt>
      <trkpt lat="47.76063" lon="3.50461">
        <ele>219</ele>
        <time>2019-12-14T14:09:43Z</time>
      </trkpt>
      <trkpt lat="47.76062" lon="3.50471">
        <ele>220</ele>
        <time>2019-12-14T14:09:49Z</time>
      </trkpt>
      <trkpt lat="47.76062" lon="3.5048">
        <ele>221</ele>
        <time>2019-12-14T14:09:54Z</time>
      </trkpt>
      <trkpt lat="47.7606" lon="3.5049">
        <ele>224</ele>
        <time>2019-12-14T14:10:00Z</time>
      </trkpt>
      <trkpt lat="47.76058" lon="3.50501">
        <ele>225</ele>
        <time>2019-12-14T14:10:07Z</time>
      </trkpt>
      <trkpt lat="47.76058" lon="3.50511">
        <ele>225</ele>
        <time>2019-12-14T14:10:12Z</time>
      </trkpt>
      <trkpt lat="47.76056" lon="3.50519">
        <ele>223</ele>
        <time>2019-12-14T14:10:18Z</time>
      </trkpt>
      <trkpt lat="47.76056" lon="3.5052">
        <ele>219</ele>
        <time>2019-12-14T14:10:23Z</time>
      </trkpt>
      <trkpt lat="47.76055" lon="3.50521">
        <ele>217</ele>
        <time>2019-12-14T14:10:28Z</time>
      </trkpt>
      <trkpt lat="47.76056" lon="3.50521">
        <ele>217</ele>
        <time>2019-12-14T14:10:34Z</time>
      </trkpt>
      <trkpt lat="47.76056" lon="3.50521">
        <ele>217</ele>
        <time>2019-12-14T14:10:39Z</time>
      </trkpt>
      <trkpt lat="47.76056" lon="3.50521">
        <ele>217</ele>
        <time>2019-12-14T14:10:45Z</time>
      </trkpt>
      <trkpt lat="47.76056" lon="3.50521">
        <ele>217</ele>
        <time>2019-12-14T14:10:50Z</time>
      </trkpt>
      <trkpt lat="47.76056" lon="3.50521">
        <ele>217</ele>
        <time>2019-12-14T14:10:56Z</time>
      </trkpt>
      <trkpt lat="47.76056" lon="3.50521">
        <ele>217</ele>
        <time>2019-12-14T14:11:01Z</time>
      </trkpt>
      <trkpt lat="47.76056" lon="3.50521">
        <ele>217</ele>
        <time>2019-12-14T14:11:06Z</time>
      </trkpt>
      <trkpt lat="47.76056" lon="3.50521">
        <ele>217</ele>
        <time>2019-12-14T14:11:12Z</time>
      </trkpt>
      <trkpt lat="47.76056" lon="3.50521">
        <ele>217</ele>
        <time>2019-12-14T14:11:18Z</time>
      </trkpt>
      <trkpt lat="47.76056" lon="3.50521">
        <ele>217</ele>
        <time>2019-12-14T14:11:24Z</time>
      </trkpt>
      <trkpt lat="47.76056" lon="3.50521">
        <ele>217</ele>
        <time>2019-12-14T14:11:30Z</time>
      </trkpt>
      <trkpt lat="47.76056" lon="3.50521">
        <ele>217</ele>
        <time>2019-12-14T14:11:35Z</time>
      </trkpt>
      <trkpt lat="47.76056" lon="3.50521">
        <ele>217</ele>
        <time>2019-12-14T14:11:40Z</time>
      </trkpt>
      <trkpt lat="47.76056" lon="3.50521">
        <ele>217</ele>
        <time>2019-12-14T14:11:45Z</time>
      </trkpt>
      <trkpt lat="47.76055" lon="3.50522">
        <ele>217</ele>
        <time>2019-12-14T14:11:51Z</time>
      </trkpt>
      <trkpt lat="47.76055" lon="3.50522">
        <ele>218</ele>
        <time>2019-12-14T14:11:56Z</time>
      </trkpt>
      <trkpt lat="47.76055" lon="3.50523">
        <ele>218</ele>
        <time>2019-12-14T14:12:02Z</time>
      </trkpt>
      <trkpt lat="47.76055" lon="3.50523">
        <ele>217</ele>
        <time>2019-12-14T14:12:07Z</time>
      </trkpt>
      <trkpt lat="47.76055" lon="3.50523">
        <ele>216</ele>
        <time>2019-12-14T14:12:12Z</time>
      </trkpt>
      <trkpt lat="47.76055" lon="3.50523">
        <ele>216</ele>
        <time>2019-12-14T14:12:18Z</time>
      </trkpt>
      <trkpt lat="47.76055" lon="3.50523">
        <ele>216</ele>
        <time>2019-12-14T14:12:24Z</time>
      </trkpt>
      <trkpt lat="47.76055" lon="3.50523">
        <ele>216</ele>
        <time>2019-12-14T14:12:30Z</time>
      </trkpt>
      <trkpt lat="47.76055" lon="3.50523">
        <ele>216</ele>
        <time>2019-12-14T14:12:35Z</time>
      </trkpt>
      <trkpt lat="47.76055" lon="3.50523">
        <ele>216</ele>
        <time>2019-12-14T14:12:40Z</time>
      </trkpt>
      <trkpt lat="47.76055" lon="3.50523">
        <ele>216</ele>
        <time>2019-12-14T14:12:46Z</time>
      </trkpt>
      <trkpt lat="47.76055" lon="3.50523">
        <ele>216</ele>
        <time>2019-12-14T14:12:52Z</time>
      </trkpt>
      <trkpt lat="47.76055" lon="3.50523">
        <ele>216</ele>
        <time>2019-12-14T14:12:57Z</time>
      </trkpt>
      <trkpt lat="47.76055" lon="3.50523">
        <ele>216</ele>
        <time>2019-12-14T14:13:03Z</time>
      </trkpt>
      <trkpt lat="47.76055" lon="3.50523">
        <ele>216</ele>
        <time>2019-12-14T14:13:09Z</time>
      </trkpt>
      <trkpt lat="47.76055" lon="3.50523">
        <ele>216</ele>
        <time>2019-12-14T14:13:14Z</time>
      </trkpt>
      <trkpt lat="47.76055" lon="3.50523">
        <ele>216</ele>
        <time>2019-12-14T14:13:20Z</time>
      </trkpt>
      <trkpt lat="47.76055" lon="3.50523">
        <ele>216</ele>
        <time>2019-12-14T14:13:26Z</time>
      </trkpt>
      <trkpt lat="47.76055" lon="3.50523">
        <ele>216</ele>
        <time>2019-12-14T14:13:31Z</time>
      </trkpt>
      <trkpt lat="47.76055" lon="3.50523">
        <ele>216</ele>
        <time>2019-12-14T14:13:36Z</time>
      </trkpt>
      <trkpt lat="47.76055" lon="3.50523">
        <ele>216</ele>
        <time>2019-12-14T14:13:41Z</time>
      </trkpt>
      <trkpt lat="47.76055" lon="3.50523">
        <ele>216</ele>
        <time>2019-12-14T14:13:46Z</time>
      </trkpt>
      <trkpt lat="47.76055" lon="3.50523">
        <ele>216</ele>
        <time>2019-12-14T14:13:52Z</time>
      </trkpt>
      <trkpt lat="47.76058" lon="3.50527">
        <ele>214</ele>
        <time>2019-12-14T14:13:58Z</time>
      </trkpt>
      <trkpt lat="47.76064" lon="3.50533">
        <ele>214</ele>
        <time>2019-12-14T14:14:04Z</time>
      </trkpt>
      <trkpt lat="47.7607" lon="3.5053">
        <ele>213</ele>
        <time>2019-12-14T14:14:09Z</time>
      </trkpt>
      <trkpt lat="47.76076" lon="3.5053">
        <ele>212</ele>
        <time>2019-12-14T14:14:14Z</time>
      </trkpt>
      <trkpt lat="47.76082" lon="3.50534">
        <ele>214</ele>
        <time>2019-12-14T14:14:20Z</time>
      </trkpt>
      <trkpt lat="47.76089" lon="3.50535">
        <ele>214</ele>
        <time>2019-12-14T14:14:25Z</time>
      </trkpt>
      <trkpt lat="47.76096" lon="3.50536">
        <ele>213</ele>
        <time>2019-12-14T14:14:31Z</time>
      </trkpt>
      <trkpt lat="47.761" lon="3.50539">
        <ele>214</ele>
        <time>2019-12-14T14:14:36Z</time>
      </trkpt>
      <trkpt lat="47.76107" lon="3.5054">
        <ele>215</ele>
        <time>2019-12-14T14:14:41Z</time>
      </trkpt>
      <trkpt lat="47.76114" lon="3.50541">
        <ele>215</ele>
        <time>2019-12-14T14:14:46Z</time>
      </trkpt>
      <trkpt lat="47.7612" lon="3.50543">
        <ele>216</ele>
        <time>2019-12-14T14:14:53Z</time>
      </trkpt>
      <trkpt lat="47.76131" lon="3.50551">
        <ele>219</ele>
        <time>2019-12-14T14:15:00Z</time>
      </trkpt>
      <trkpt lat="47.76136" lon="3.5055">
        <ele>218</ele>
        <time>2019-12-14T14:15:05Z</time>
      </trkpt>
      <trkpt lat="47.76142" lon="3.50552">
        <ele>216</ele>
        <time>2019-12-14T14:15:10Z</time>
      </trkpt>
      <trkpt lat="47.76149" lon="3.50552">
        <ele>218</ele>
        <time>2019-12-14T14:15:15Z</time>
      </trkpt>
      <trkpt lat="47.76154" lon="3.50553">
        <ele>215</ele>
        <time>2019-12-14T14:15:21Z</time>
      </trkpt>
      <trkpt lat="47.76159" lon="3.50557">
        <ele>216</ele>
        <time>2019-12-14T14:15:26Z</time>
      </trkpt>
      <trkpt lat="47.76164" lon="3.50563">
        <ele>214</ele>
        <time>2019-12-14T14:15:32Z</time>
      </trkpt>
      <trkpt lat="47.76173" lon="3.50563">
        <ele>215</ele>
        <time>2019-12-14T14:15:39Z</time>
      </trkpt>
      <trkpt lat="47.76179" lon="3.50563">
        <ele>216</ele>
        <time>2019-12-14T14:15:44Z</time>
      </trkpt>
      <trkpt lat="47.76183" lon="3.50568">
        <ele>216</ele>
        <time>2019-12-14T14:15:50Z</time>
      </trkpt>
      <trkpt lat="47.7619" lon="3.50571">
        <ele>216</ele>
        <time>2019-12-14T14:15:56Z</time>
      </trkpt>
      <trkpt lat="47.76194" lon="3.50574">
        <ele>217</ele>
        <time>2019-12-14T14:16:01Z</time>
      </trkpt>
      <trkpt lat="47.76199" lon="3.50579">
        <ele>218</ele>
        <time>2019-12-14T14:16:07Z</time>
      </trkpt>
      <trkpt lat="47.76209" lon="3.50582">
        <ele>221</ele>
        <time>2019-12-14T14:16:13Z</time>
      </trkpt>
      <trkpt lat="47.76214" lon="3.50584">
        <ele>217</ele>
        <time>2019-12-14T14:16:18Z</time>
      </trkpt>
      <trkpt lat="47.76219" lon="3.50586">
        <ele>215</ele>
        <time>2019-12-14T14:16:23Z</time>
      </trkpt>
      <trkpt lat="47.76227" lon="3.5059">
        <ele>215</ele>
        <time>2019-12-14T14:16:29Z</time>
      </trkpt>
      <trkpt lat="47.76228" lon="3.50591">
        <ele>217</ele>
        <time>2019-12-14T14:16:36Z</time>
      </trkpt>
      <trkpt lat="47.76229" lon="3.5059">
        <ele>217</ele>
        <time>2019-12-14T14:16:42Z</time>
      </trkpt>
      <trkpt lat="47.76232" lon="3.50585">
        <ele>215</ele>
        <time>2019-12-14T14:16:47Z</time>
      </trkpt>
      <trkpt lat="47.76235" lon="3.5058">
        <ele>214</ele>
        <time>2019-12-14T14:16:52Z</time>
      </trkpt>
      <trkpt lat="47.76237" lon="3.50577">
        <ele>214</ele>
        <time>2019-12-14T14:16:57Z</time>
      </trkpt>
      <trkpt lat="47.76236" lon="3.50576">
        <ele>210</ele>
        <time>2019-12-14T14:17:02Z</time>
      </trkpt>
      <trkpt lat="47.76236" lon="3.50576">
        <ele>210</ele>
        <time>2019-12-14T14:17:08Z</time>
      </trkpt>
      <trkpt lat="47.76236" lon="3.50576">
        <ele>210</ele>
        <time>2019-12-14T14:17:13Z</time>
      </trkpt>
      <trkpt lat="47.76236" lon="3.50576">
        <ele>210</ele>
        <time>2019-12-14T14:17:19Z</time>
      </trkpt>
      <trkpt lat="47.76236" lon="3.50576">
        <ele>210</ele>
        <time>2019-12-14T14:17:25Z</time>
      </trkpt>
      <trkpt lat="47.76236" lon="3.50576">
        <ele>210</ele>
        <time>2019-12-14T14:17:31Z</time>
      </trkpt>
      <trkpt lat="47.76236" lon="3.50576">
        <ele>210</ele>
        <time>2019-12-14T14:17:37Z</time>
      </trkpt>
      <trkpt lat="47.76236" lon="3.50576">
        <ele>210</ele>
        <time>2019-12-14T14:17:42Z</time>
      </trkpt>
      <trkpt lat="47.76236" lon="3.50576">
        <ele>210</ele>
        <time>2019-12-14T14:17:47Z</time>
      </trkpt>
      <trkpt lat="47.76236" lon="3.50576">
        <ele>210</ele>
        <time>2019-12-14T14:17:52Z</time>
      </trkpt>
      <trkpt lat="47.76236" lon="3.50576">
        <ele>210</ele>
        <time>2019-12-14T14:17:58Z</time>
      </trkpt>
      <trkpt lat="47.76236" lon="3.50576">
        <ele>210</ele>
        <time>2019-12-14T14:18:03Z</time>
      </trkpt>
      <trkpt lat="47.76236" lon="3.50576">
        <ele>210</ele>
        <time>2019-12-14T14:18:08Z</time>
      </trkpt>
      <trkpt lat="47.76236" lon="3.50576">
        <ele>210</ele>
        <time>2019-12-14T14:18:14Z</time>
      </trkpt>
      <trkpt lat="47.76236" lon="3.50577">
        <ele>206</ele>
        <time>2019-12-14T14:18:20Z</time>
      </trkpt>
      <trkpt lat="47.76236" lon="3.50577">
        <ele>207</ele>
        <time>2019-12-14T14:18:25Z</time>
      </trkpt>
      <trkpt lat="47.76236" lon="3.50577">
        <ele>206</ele>
        <time>2019-12-14T14:18:30Z</time>
      </trkpt>
      <trkpt lat="47.76237" lon="3.50576">
        <ele>204</ele>
        <time>2019-12-14T14:18:35Z</time>
      </trkpt>
      <trkpt lat="47.76241" lon="3.50581">
        <ele>203</ele>
        <time>2019-12-14T14:18:41Z</time>
      </trkpt>
      <trkpt lat="47.76246" lon="3.50582">
        <ele>203</ele>
        <time>2019-12-14T14:18:46Z</time>
      </trkpt>
      <trkpt lat="47.76245" lon="3.50581">
        <ele>205</ele>
        <time>2019-12-14T14:18:51Z</time>
      </trkpt>
      <trkpt lat="47.76245" lon="3.5058">
        <ele>204</ele>
        <time>2019-12-14T14:18:56Z</time>
      </trkpt>
      <trkpt lat="47.76245" lon="3.5058">
        <ele>205</ele>
        <time>2019-12-14T14:19:02Z</time>
      </trkpt>
      <trkpt lat="47.76245" lon="3.5058">
        <ele>205</ele>
        <time>2019-12-14T14:19:08Z</time>
      </trkpt>
      <trkpt lat="47.76245" lon="3.5058">
        <ele>205</ele>
        <time>2019-12-14T14:19:14Z</time>
      </trkpt>
      <trkpt lat="47.76245" lon="3.5058">
        <ele>205</ele>
        <time>2019-12-14T14:19:19Z</time>
      </trkpt>
      <trkpt lat="47.76245" lon="3.5058">
        <ele>205</ele>
        <time>2019-12-14T14:19:25Z</time>
      </trkpt>
      <trkpt lat="47.76245" lon="3.5058">
        <ele>205</ele>
        <time>2019-12-14T14:19:30Z</time>
      </trkpt>
      <trkpt lat="47.76245" lon="3.5058">
        <ele>205</ele>
        <time>2019-12-14T14:19:36Z</time>
      </trkpt>
      <trkpt lat="47.76245" lon="3.5058">
        <ele>205</ele>
        <time>2019-12-14T14:19:41Z</time>
      </trkpt>
      <trkpt lat="47.76245" lon="3.5058">
        <ele>205</ele>
        <time>2019-12-14T14:19:46Z</time>
      </trkpt>
      <trkpt lat="47.76245" lon="3.5058">
        <ele>205</ele>
        <time>2019-12-14T14:19:52Z</time>
      </trkpt>
      <trkpt lat="47.76245" lon="3.5058">
        <ele>205</ele>
        <time>2019-12-14T14:19:58Z</time>
      </trkpt>
      <trkpt lat="47.76245" lon="3.5058">
        <ele>205</ele>
        <time>2019-12-14T14:20:04Z</time>
      </trkpt>
      <trkpt lat="47.76245" lon="3.5058">
        <ele>205</ele>
        <time>2019-12-14T14:20:09Z</time>
      </trkpt>
      <trkpt lat="47.76245" lon="3.5058">
        <ele>205</ele>
        <time>2019-12-14T14:20:14Z</time>
      </trkpt>
      <trkpt lat="47.76245" lon="3.5058">
        <ele>205</ele>
        <time>2019-12-14T14:20:20Z</time>
      </trkpt>
      <trkpt lat="47.76245" lon="3.5058">
        <ele>205</ele>
        <time>2019-12-14T14:20:26Z</time>
      </trkpt>
      <trkpt lat="47.76245" lon="3.5058">
        <ele>205</ele>
        <time>2019-12-14T14:20:31Z</time>
      </trkpt>
      <trkpt lat="47.76245" lon="3.5058">
        <ele>205</ele>
        <time>2019-12-14T14:20:37Z</time>
      </trkpt>
      <trkpt lat="47.76245" lon="3.5058">
        <ele>205</ele>
        <time>2019-12-14T14:20:42Z</time>
      </trkpt>
      <trkpt lat="47.76245" lon="3.5058">
        <ele>205</ele>
        <time>2019-12-14T14:20:47Z</time>
      </trkpt>
      <trkpt lat="47.76245" lon="3.5058">
        <ele>205</ele>
        <time>2019-12-14T14:20:53Z</time>
      </trkpt>
      <trkpt lat="47.76245" lon="3.5058">
        <ele>205</ele>
        <time>2019-12-14T14:20:58Z</time>
      </trkpt>
      <trkpt lat="47.76245" lon="3.5058">
        <ele>205</ele>
        <time>2019-12-14T14:21:03Z</time>
      </trkpt>
      <trkpt lat="47.76245" lon="3.5058">
        <ele>205</ele>
        <time>2019-12-14T14:21:09Z</time>
      </trkpt>
      <trkpt lat="47.76245" lon="3.5058">
        <ele>205</ele>
        <time>2019-12-14T14:21:14Z</time>
      </trkpt>
      <trkpt lat="47.76245" lon="3.5058">
        <ele>205</ele>
        <time>2019-12-14T14:21:20Z</time>
      </trkpt>
      <trkpt lat="47.76245" lon="3.5058">
        <ele>205</ele>
        <time>2019-12-14T14:21:25Z</time>
      </trkpt>
      <trkpt lat="47.76245" lon="3.5058">
        <ele>205</ele>
        <time>2019-12-14T14:21:30Z</time>
      </trkpt>
      <trkpt lat="47.76245" lon="3.5058">
        <ele>205</ele>
        <time>2019-12-14T14:21:36Z</time>
      </trkpt>
      <trkpt lat="47.76245" lon="3.5058">
        <ele>205</ele>
        <time>2019-12-14T14:21:41Z</time>
      </trkpt>
      <trkpt lat="47.76245" lon="3.5058">
        <ele>205</ele>
        <time>2019-12-14T14:21:46Z</time>
      </trkpt>
      <trkpt lat="47.76245" lon="3.5058">
        <ele>205</ele>
        <time>2019-12-14T14:22:34Z</time>
      </trkpt>
      <trkpt lat="47.76245" lon="3.5058">
        <ele>205</ele>
        <time>2019-12-14T14:22:39Z</time>
      </trkpt>
      <trkpt lat="47.76245" lon="3.5058">
        <ele>205</ele>
        <time>2019-12-14T14:22:44Z</time>
      </trkpt>
      <trkpt lat="47.76245" lon="3.5058">
        <ele>205</ele>
        <time>2019-12-14T14:22:50Z</time>
      </trkpt>
      <trkpt lat="47.76245" lon="3.5058">
        <ele>205</ele>
        <time>2019-12-14T14:22:55Z</time>
      </trkpt>
      <trkpt lat="47.76245" lon="3.5058">
        <ele>205</ele>
        <time>2019-12-14T14:23:00Z</time>
      </trkpt>
      <trkpt lat="47.76245" lon="3.5058">
        <ele>205</ele>
        <time>2019-12-14T14:23:05Z</time>
      </trkpt>
      <trkpt lat="47.76245" lon="3.5058">
        <ele>205</ele>
        <time>2019-12-14T14:23:11Z</time>
      </trkpt>
      <trkpt lat="47.76245" lon="3.5058">
        <ele>205</ele>
        <time>2019-12-14T14:23:17Z</time>
      </trkpt>
      <trkpt lat="47.76245" lon="3.5058">
        <ele>205</ele>
        <time>2019-12-14T14:23:22Z</time>
      </trkpt>
      <trkpt lat="47.76245" lon="3.5058">
        <ele>205</ele>
        <time>2019-12-14T14:23:28Z</time>
      </trkpt>
      <trkpt lat="47.76245" lon="3.5058">
        <ele>205</ele>
        <time>2019-12-14T14:23:33Z</time>
      </trkpt>
      <trkpt lat="47.76245" lon="3.5058">
        <ele>205</ele>
        <time>2019-12-14T14:23:38Z</time>
      </trkpt>
      <trkpt lat="47.76245" lon="3.5058">
        <ele>205</ele>
        <time>2019-12-14T14:23:44Z</time>
      </trkpt>
      <trkpt lat="47.76245" lon="3.5058">
        <ele>205</ele>
        <time>2019-12-14T14:23:49Z</time>
      </trkpt>
      <trkpt lat="47.76245" lon="3.5058">
        <ele>205</ele>
        <time>2019-12-14T14:23:54Z</time>
      </trkpt>
      <trkpt lat="47.76245" lon="3.5058">
        <ele>205</ele>
        <time>2019-12-14T14:23:59Z</time>
      </trkpt>
      <trkpt lat="47.76245" lon="3.5058">
        <ele>205</ele>
        <time>2019-12-14T14:24:04Z</time>
      </trkpt>
      <trkpt lat="47.76245" lon="3.5058">
        <ele>205</ele>
        <time>2019-12-14T14:24:10Z</time>
      </trkpt>
      <trkpt lat="47.76245" lon="3.5058">
        <ele>205</ele>
        <time>2019-12-14T14:24:16Z</time>
      </trkpt>
      <trkpt lat="47.76245" lon="3.5058">
        <ele>205</ele>
        <time>2019-12-14T14:24:22Z</time>
      </trkpt>
      <trkpt lat="47.76245" lon="3.5058">
        <ele>205</ele>
        <time>2019-12-14T14:24:27Z</time>
      </trkpt>
      <trkpt lat="47.76245" lon="3.5058">
        <ele>205</ele>
        <time>2019-12-14T14:24:32Z</time>
      </trkpt>
      <trkpt lat="47.76245" lon="3.5058">
        <ele>205</ele>
        <time>2019-12-14T14:24:38Z</time>
      </trkpt>
      <trkpt lat="47.76245" lon="3.5058">
        <ele>205</ele>
        <time>2019-12-14T14:24:44Z</time>
      </trkpt>
      <trkpt lat="47.76245" lon="3.5058">
        <ele>205</ele>
        <time>2019-12-14T14:24:49Z</time>
      </trkpt>
      <trkpt lat="47.76245" lon="3.5058">
        <ele>205</ele>
        <time>2019-12-14T14:24:54Z</time>
      </trkpt>
      <trkpt lat="47.76245" lon="3.5058">
        <ele>205</ele>
        <time>2019-12-14T14:24:59Z</time>
      </trkpt>
      <trkpt lat="47.76245" lon="3.5058">
        <ele>205</ele>
        <time>2019-12-14T14:25:04Z</time>
      </trkpt>
      <trkpt lat="47.76245" lon="3.5058">
        <ele>205</ele>
        <time>2019-12-14T14:25:10Z</time>
      </trkpt>
      <trkpt lat="47.76245" lon="3.5058">
        <ele>205</ele>
        <time>2019-12-14T14:25:16Z</time>
      </trkpt>
      <trkpt lat="47.76245" lon="3.5058">
        <ele>205</ele>
        <time>2019-12-14T14:25:21Z</time>
      </trkpt>
      <trkpt lat="47.76245" lon="3.5058">
        <ele>205</ele>
        <time>2019-12-14T14:25:27Z</time>
      </trkpt>
      <trkpt lat="47.76245" lon="3.5058">
        <ele>205</ele>
        <time>2019-12-14T14:25:32Z</time>
      </trkpt>
      <trkpt lat="47.76245" lon="3.5058">
        <ele>205</ele>
        <time>2019-12-14T14:25:37Z</time>
      </trkpt>
      <trkpt lat="47.76245" lon="3.5058">
        <ele>205</ele>
        <time>2019-12-14T14:25:42Z</time>
      </trkpt>
      <trkpt lat="47.76245" lon="3.5058">
        <ele>205</ele>
        <time>2019-12-14T14:25:48Z</time>
      </trkpt>
      <trkpt lat="47.76245" lon="3.5058">
        <ele>205</ele>
        <time>2019-12-14T14:25:53Z</time>
      </trkpt>
      <trkpt lat="47.76245" lon="3.5058">
        <ele>205</ele>
        <time>2019-12-14T14:25:59Z</time>
      </trkpt>
      <trkpt lat="47.76245" lon="3.5058">
        <ele>205</ele>
        <time>2019-12-14T14:26:05Z</time>
      </trkpt>
      <trkpt lat="47.76245" lon="3.5058">
        <ele>205</ele>
        <time>2019-12-14T14:26:10Z</time>
      </trkpt>
      <trkpt lat="47.76245" lon="3.5058">
        <ele>205</ele>
        <time>2019-12-14T14:26:16Z</time>
      </trkpt>
      <trkpt lat="47.76245" lon="3.5058">
        <ele>205</ele>
        <time>2019-12-14T14:26:21Z</time>
      </trkpt>
      <trkpt lat="47.76245" lon="3.5058">
        <ele>205</ele>
        <time>2019-12-14T14:26:27Z</time>
      </trkpt>
      <trkpt lat="47.76245" lon="3.5058">
        <ele>205</ele>
        <time>2019-12-14T14:26:32Z</time>
      </trkpt>
      <trkpt lat="47.76245" lon="3.5058">
        <ele>205</ele>
        <time>2019-12-14T14:26:38Z</time>
      </trkpt>
      <trkpt lat="47.76245" lon="3.5058">
        <ele>205</ele>
        <time>2019-12-14T14:26:43Z</time>
      </trkpt>
      <trkpt lat="47.76245" lon="3.5058">
        <ele>205</ele>
        <time>2019-12-14T14:26:49Z</time>
      </trkpt>
      <trkpt lat="47.76245" lon="3.5058">
        <ele>205</ele>
        <time>2019-12-14T14:26:54Z</time>
      </trkpt>
      <trkpt lat="47.76245" lon="3.5058">
        <ele>205</ele>
        <time>2019-12-14T14:26:59Z</time>
      </trkpt>
      <trkpt lat="47.76245" lon="3.5058">
        <ele>205</ele>
        <time>2019-12-14T14:27:05Z</time>
      </trkpt>
      <trkpt lat="47.76245" lon="3.5058">
        <ele>205</ele>
        <time>2019-12-14T14:27:11Z</time>
      </trkpt>
      <trkpt lat="47.76245" lon="3.5058">
        <ele>205</ele>
        <time>2019-12-14T14:27:16Z</time>
      </trkpt>
      <trkpt lat="47.76245" lon="3.5058">
        <ele>205</ele>
        <time>2019-12-14T14:27:21Z</time>
      </trkpt>
      <trkpt lat="47.76245" lon="3.5058">
        <ele>205</ele>
        <time>2019-12-14T14:27:26Z</time>
      </trkpt>
      <trkpt lat="47.76245" lon="3.5058">
        <ele>205</ele>
        <time>2019-12-14T14:27:31Z</time>
      </trkpt>
      <trkpt lat="47.76245" lon="3.5058">
        <ele>205</ele>
        <time>2019-12-14T14:27:37Z</time>
      </trkpt>
      <trkpt lat="47.76245" lon="3.5058">
        <ele>205</ele>
        <time>2019-12-14T14:27:42Z</time>
      </trkpt>
      <trkpt lat="47.76245" lon="3.5058">
        <ele>205</ele>
        <time>2019-12-14T14:27:48Z</time>
      </trkpt>
      <trkpt lat="47.76245" lon="3.5058">
        <ele>205</ele>
        <time>2019-12-14T14:27:53Z</time>
      </trkpt>
      <trkpt lat="47.76245" lon="3.5058">
        <ele>205</ele>
        <time>2019-12-14T14:27:59Z</time>
      </trkpt>
      <trkpt lat="47.76245" lon="3.5058">
        <ele>205</ele>
        <time>2019-12-14T14:28:05Z</time>
      </trkpt>
      <trkpt lat="47.76245" lon="3.5058">
        <ele>205</ele>
        <time>2019-12-14T14:28:11Z</time>
      </trkpt>
      <trkpt lat="47.76245" lon="3.5058">
        <ele>205</ele>
        <time>2019-12-14T14:28:16Z</time>
      </trkpt>
      <trkpt lat="47.76245" lon="3.5058">
        <ele>205</ele>
        <time>2019-12-14T14:28:21Z</time>
      </trkpt>
      <trkpt lat="47.76245" lon="3.5058">
        <ele>205</ele>
        <time>2019-12-14T14:28:27Z</time>
      </trkpt>
      <trkpt lat="47.76245" lon="3.5058">
        <ele>205</ele>
        <time>2019-12-14T14:28:32Z</time>
      </trkpt>
      <trkpt lat="47.76245" lon="3.5058">
        <ele>205</ele>
        <time>2019-12-14T14:28:38Z</time>
      </trkpt>
      <trkpt lat="47.76245" lon="3.5058">
        <ele>205</ele>
        <time>2019-12-14T14:28:43Z</time>
      </trkpt>
      <trkpt lat="47.76245" lon="3.5058">
        <ele>205</ele>
        <time>2019-12-14T14:28:48Z</time>
      </trkpt>
      <trkpt lat="47.76245" lon="3.5058">
        <ele>205</ele>
        <time>2019-12-14T14:28:54Z</time>
      </trkpt>
      <trkpt lat="47.76245" lon="3.5058">
        <ele>205</ele>
        <time>2019-12-14T14:29:00Z</time>
      </trkpt>
      <trkpt lat="47.76245" lon="3.5058">
        <ele>205</ele>
        <time>2019-12-14T14:29:05Z</time>
      </trkpt>
      <trkpt lat="47.76245" lon="3.5058">
        <ele>205</ele>
        <time>2019-12-14T14:29:11Z</time>
      </trkpt>
      <trkpt lat="47.76245" lon="3.5058">
        <ele>205</ele>
        <time>2019-12-14T14:29:17Z</time>
      </trkpt>
      <trkpt lat="47.76245" lon="3.5058">
        <ele>205</ele>
        <time>2019-12-14T14:29:22Z</time>
      </trkpt>
      <trkpt lat="47.76245" lon="3.5058">
        <ele>205</ele>
        <time>2019-12-14T14:29:27Z</time>
      </trkpt>
      <trkpt lat="47.76245" lon="3.5058">
        <ele>205</ele>
        <time>2019-12-14T14:29:32Z</time>
      </trkpt>
      <trkpt lat="47.76245" lon="3.5058">
        <ele>205</ele>
        <time>2019-12-14T14:29:38Z</time>
      </trkpt>
      <trkpt lat="47.76245" lon="3.5058">
        <ele>205</ele>
        <time>2019-12-14T14:29:44Z</time>
      </trkpt>
      <trkpt lat="47.76245" lon="3.5058">
        <ele>205</ele>
        <time>2019-12-14T14:29:49Z</time>
      </trkpt>
      <trkpt lat="47.76245" lon="3.5058">
        <ele>205</ele>
        <time>2019-12-14T14:29:55Z</time>
      </trkpt>
      <trkpt lat="47.76245" lon="3.5058">
        <ele>205</ele>
        <time>2019-12-14T14:30:00Z</time>
      </trkpt>
      <trkpt lat="47.76245" lon="3.5058">
        <ele>205</ele>
        <time>2019-12-14T14:30:06Z</time>
      </trkpt>
      <trkpt lat="47.76245" lon="3.5058">
        <ele>205</ele>
        <time>2019-12-14T14:30:11Z</time>
      </trkpt>
      <trkpt lat="47.76245" lon="3.5058">
        <ele>205</ele>
        <time>2019-12-14T14:30:17Z</time>
      </trkpt>
      <trkpt lat="47.76245" lon="3.5058">
        <ele>205</ele>
        <time>2019-12-14T14:30:23Z</time>
      </trkpt>
      <trkpt lat="47.76245" lon="3.5058">
        <ele>205</ele>
        <time>2019-12-14T14:30:29Z</time>
      </trkpt>
      <trkpt lat="47.76245" lon="3.5058">
        <ele>205</ele>
        <time>2019-12-14T14:30:34Z</time>
      </trkpt>
      <trkpt lat="47.76245" lon="3.5058">
        <ele>205</ele>
        <time>2019-12-14T14:30:39Z</time>
      </trkpt>
      <trkpt lat="47.76245" lon="3.5058">
        <ele>205</ele>
        <time>2019-12-14T14:30:44Z</time>
      </trkpt>
      <trkpt lat="47.76245" lon="3.5058">
        <ele>205</ele>
        <time>2019-12-14T14:30:50Z</time>
      </trkpt>
      <trkpt lat="47.76245" lon="3.5058">
        <ele>205</ele>
        <time>2019-12-14T14:30:56Z</time>
      </trkpt>
      <trkpt lat="47.76245" lon="3.5058">
        <ele>205</ele>
        <time>2019-12-14T14:31:01Z</time>
      </trkpt>
      <trkpt lat="47.76245" lon="3.5058">
        <ele>205</ele>
        <time>2019-12-14T14:31:06Z</time>
      </trkpt>
      <trkpt lat="47.76245" lon="3.5058">
        <ele>205</ele>
        <time>2019-12-14T14:31:12Z</time>
      </trkpt>
      <trkpt lat="47.76245" lon="3.5058">
        <ele>205</ele>
        <time>2019-12-14T14:31:18Z</time>
      </trkpt>
      <trkpt lat="47.76245" lon="3.5058">
        <ele>205</ele>
        <time>2019-12-14T14:31:24Z</time>
      </trkpt>
      <trkpt lat="47.76245" lon="3.5058">
        <ele>205</ele>
        <time>2019-12-14T14:31:29Z</time>
      </trkpt>
      <trkpt lat="47.76245" lon="3.5058">
        <ele>205</ele>
        <time>2019-12-14T14:31:34Z</time>
      </trkpt>
      <trkpt lat="47.76245" lon="3.5058">
        <ele>205</ele>
        <time>2019-12-14T14:31:40Z</time>
      </trkpt>
      <trkpt lat="47.76245" lon="3.5058">
        <ele>205</ele>
        <time>2019-12-14T14:31:45Z</time>
      </trkpt>
      <trkpt lat="47.76245" lon="3.5058">
        <ele>205</ele>
        <time>2019-12-14T14:31:50Z</time>
      </trkpt>
      <trkpt lat="47.76245" lon="3.5058">
        <ele>205</ele>
        <time>2019-12-14T14:31:56Z</time>
      </trkpt>
      <trkpt lat="47.76245" lon="3.5058">
        <ele>205</ele>
        <time>2019-12-14T14:32:01Z</time>
      </trkpt>
      <trkpt lat="47.76245" lon="3.5058">
        <ele>205</ele>
        <time>2019-12-14T14:32:07Z</time>
      </trkpt>
      <trkpt lat="47.76245" lon="3.5058">
        <ele>205</ele>
        <time>2019-12-14T14:32:13Z</time>
      </trkpt>
      <trkpt lat="47.76245" lon="3.5058">
        <ele>205</ele>
        <time>2019-12-14T14:32:18Z</time>
      </trkpt>
      <trkpt lat="47.76245" lon="3.5058">
        <ele>205</ele>
        <time>2019-12-14T14:32:23Z</time>
      </trkpt>
      <trkpt lat="47.76245" lon="3.5058">
        <ele>205</ele>
        <time>2019-12-14T14:32:36Z</time>
      </trkpt>
      <trkpt lat="47.76245" lon="3.5058">
        <ele>205</ele>
        <time>2019-12-14T14:34:03Z</time>
      </trkpt>
      <trkpt lat="47.76245" lon="3.5058">
        <ele>205</ele>
        <time>2019-12-14T14:34:08Z</time>
      </trkpt>
      <trkpt lat="47.76245" lon="3.5058">
        <ele>205</ele>
        <time>2019-12-14T14:34:14Z</time>
      </trkpt>
      <trkpt lat="47.76245" lon="3.5058">
        <ele>205</ele>
        <time>2019-12-14T14:34:20Z</time>
      </trkpt>
      <trkpt lat="47.76245" lon="3.5058">
        <ele>205</ele>
        <time>2019-12-14T14:34:25Z</time>
      </trkpt>
      <trkpt lat="47.76245" lon="3.5058">
        <ele>205</ele>
        <time>2019-12-14T14:34:31Z</time>
      </trkpt>
      <trkpt lat="47.76245" lon="3.5058">
        <ele>205</ele>
        <time>2019-12-14T14:34:37Z</time>
      </trkpt>
      <trkpt lat="47.76245" lon="3.5058">
        <ele>205</ele>
        <time>2019-12-14T14:34:43Z</time>
      </trkpt>
      <trkpt lat="47.76245" lon="3.5058">
        <ele>205</ele>
        <time>2019-12-14T14:34:48Z</time>
      </trkpt>
      <trkpt lat="47.76245" lon="3.5058">
        <ele>205</ele>
        <time>2019-12-14T14:34:53Z</time>
      </trkpt>
      <trkpt lat="47.76245" lon="3.5058">
        <ele>205</ele>
        <time>2019-12-14T14:34:59Z</time>
      </trkpt>
      <trkpt lat="47.76245" lon="3.5058">
        <ele>205</ele>
        <time>2019-12-14T14:35:04Z</time>
      </trkpt>
      <trkpt lat="47.76245" lon="3.5058">
        <ele>205</ele>
        <time>2019-12-14T14:35:10Z</time>
      </trkpt>
      <trkpt lat="47.76245" lon="3.5058">
        <ele>205</ele>
        <time>2019-12-14T14:35:15Z</time>
      </trkpt>
      <trkpt lat="47.76245" lon="3.5058">
        <ele>205</ele>
        <time>2019-12-14T14:35:21Z</time>
      </trkpt>
      <trkpt lat="47.76245" lon="3.5058">
        <ele>205</ele>
        <time>2019-12-14T14:35:26Z</time>
      </trkpt>
      <trkpt lat="47.76245" lon="3.5058">
        <ele>205</ele>
        <time>2019-12-14T14:35:32Z</time>
      </trkpt>
      <trkpt lat="47.76245" lon="3.5058">
        <ele>205</ele>
        <time>2019-12-14T14:35:37Z</time>
      </trkpt>
      <trkpt lat="47.76245" lon="3.5058">
        <ele>205</ele>
        <time>2019-12-14T14:35:42Z</time>
      </trkpt>
      <trkpt lat="47.76245" lon="3.5058">
        <ele>205</ele>
        <time>2019-12-14T14:35:48Z</time>
      </trkpt>
      <trkpt lat="47.76245" lon="3.5058">
        <ele>205</ele>
        <time>2019-12-14T14:35:53Z</time>
      </trkpt>
      <trkpt lat="47.76245" lon="3.5058">
        <ele>205</ele>
        <time>2019-12-14T14:35:58Z</time>
      </trkpt>
      <trkpt lat="47.76245" lon="3.5058">
        <ele>205</ele>
        <time>2019-12-14T14:36:03Z</time>
      </trkpt>
      <trkpt lat="47.76245" lon="3.5058">
        <ele>205</ele>
        <time>2019-12-14T14:36:09Z</time>
      </trkpt>
      <trkpt lat="47.76245" lon="3.5058">
        <ele>205</ele>
        <time>2019-12-14T14:36:14Z</time>
      </trkpt>
      <trkpt lat="47.76245" lon="3.5058">
        <ele>205</ele>
        <time>2019-12-14T14:36:20Z</time>
      </trkpt>
      <trkpt lat="47.76245" lon="3.5058">
        <ele>205</ele>
        <time>2019-12-14T14:36:25Z</time>
      </trkpt>
      <trkpt lat="47.76245" lon="3.5058">
        <ele>205</ele>
        <time>2019-12-14T14:36:30Z</time>
      </trkpt>
      <trkpt lat="47.76245" lon="3.5058">
        <ele>205</ele>
        <time>2019-12-14T14:36:36Z</time>
      </trkpt>
      <trkpt lat="47.76245" lon="3.5058">
        <ele>205</ele>
        <time>2019-12-14T14:36:41Z</time>
      </trkpt>
      <trkpt lat="47.76245" lon="3.5058">
        <ele>205</ele>
        <time>2019-12-14T14:36:47Z</time>
      </trkpt>
      <trkpt lat="47.76245" lon="3.5058">
        <ele>205</ele>
        <time>2019-12-14T14:36:52Z</time>
      </trkpt>
      <trkpt lat="47.76245" lon="3.5058">
        <ele>205</ele>
        <time>2019-12-14T14:36:57Z</time>
      </trkpt>
      <trkpt lat="47.76245" lon="3.5058">
        <ele>205</ele>
        <time>2019-12-14T14:37:03Z</time>
      </trkpt>
      <trkpt lat="47.76245" lon="3.5058">
        <ele>205</ele>
        <time>2019-12-14T14:37:09Z</time>
      </trkpt>
      <trkpt lat="47.76245" lon="3.5058">
        <ele>205</ele>
        <time>2019-12-14T14:37:14Z</time>
      </trkpt>
      <trkpt lat="47.76245" lon="3.5058">
        <ele>205</ele>
        <time>2019-12-14T14:37:19Z</time>
      </trkpt>
      <trkpt lat="47.76245" lon="3.5058">
        <ele>205</ele>
        <time>2019-12-14T14:37:25Z</time>
      </trkpt>
      <trkpt lat="47.76245" lon="3.5058">
        <ele>205</ele>
        <time>2019-12-14T14:37:30Z</time>
      </trkpt>
      <trkpt lat="47.76245" lon="3.5058">
        <ele>205</ele>
        <time>2019-12-14T14:37:36Z</time>
      </trkpt>
      <trkpt lat="47.76245" lon="3.5058">
        <ele>205</ele>
        <time>2019-12-14T14:37:41Z</time>
      </trkpt>
      <trkpt lat="47.76245" lon="3.5058">
        <ele>205</ele>
        <time>2019-12-14T14:37:46Z</time>
      </trkpt>
      <trkpt lat="47.76245" lon="3.5058">
        <ele>205</ele>
        <time>2019-12-14T14:37:52Z</time>
      </trkpt>
      <trkpt lat="47.76245" lon="3.5058">
        <ele>205</ele>
        <time>2019-12-14T14:37:58Z</time>
      </trkpt>
      <trkpt lat="47.76245" lon="3.5058">
        <ele>205</ele>
        <time>2019-12-14T14:38:03Z</time>
      </trkpt>
      <trkpt lat="47.76245" lon="3.5058">
        <ele>205</ele>
        <time>2019-12-14T14:38:08Z</time>
      </trkpt>
      <trkpt lat="47.76245" lon="3.5058">
        <ele>205</ele>
        <time>2019-12-14T14:38:13Z</time>
      </trkpt>
      <trkpt lat="47.76245" lon="3.5058">
        <ele>205</ele>
        <time>2019-12-14T14:38:18Z</time>
      </trkpt>
      <trkpt lat="47.76245" lon="3.5058">
        <ele>205</ele>
        <time>2019-12-14T14:38:24Z</time>
      </trkpt>
      <trkpt lat="47.76245" lon="3.5058">
        <ele>205</ele>
        <time>2019-12-14T14:38:29Z</time>
      </trkpt>
      <trkpt lat="47.76245" lon="3.5058">
        <ele>205</ele>
        <time>2019-12-14T14:38:35Z</time>
      </trkpt>
      <trkpt lat="47.76245" lon="3.5058">
        <ele>205</ele>
        <time>2019-12-14T14:38:40Z</time>
      </trkpt>
      <trkpt lat="47.76245" lon="3.5058">
        <ele>205</ele>
        <time>2019-12-14T14:38:45Z</time>
      </trkpt>
      <trkpt lat="47.76245" lon="3.5058">
        <ele>205</ele>
        <time>2019-12-14T14:38:51Z</time>
      </trkpt>
      <trkpt lat="47.76245" lon="3.5058">
        <ele>205</ele>
        <time>2019-12-14T14:38:56Z</time>
      </trkpt>
      <trkpt lat="47.76245" lon="3.5058">
        <ele>205</ele>
        <time>2019-12-14T14:39:01Z</time>
      </trkpt>
      <trkpt lat="47.76245" lon="3.5058">
        <ele>205</ele>
        <time>2019-12-14T14:39:06Z</time>
      </trkpt>
      <trkpt lat="47.76245" lon="3.5058">
        <ele>205</ele>
        <time>2019-12-14T14:39:12Z</time>
      </trkpt>
      <trkpt lat="47.76245" lon="3.5058">
        <ele>205</ele>
        <time>2019-12-14T14:39:18Z</time>
      </trkpt>
      <trkpt lat="47.76245" lon="3.5058">
        <ele>205</ele>
        <time>2019-12-14T14:39:24Z</time>
      </trkpt>
      <trkpt lat="47.76245" lon="3.5058">
        <ele>205</ele>
        <time>2019-12-14T14:39:29Z</time>
      </trkpt>
      <trkpt lat="47.76245" lon="3.5058">
        <ele>205</ele>
        <time>2019-12-14T14:39:35Z</time>
      </trkpt>
      <trkpt lat="47.76245" lon="3.5058">
        <ele>205</ele>
        <time>2019-12-14T14:39:41Z</time>
      </trkpt>
      <trkpt lat="47.76245" lon="3.5058">
        <ele>205</ele>
        <time>2019-12-14T14:39:47Z</time>
      </trkpt>
      <trkpt lat="47.76245" lon="3.5058">
        <ele>205</ele>
        <time>2019-12-14T14:39:52Z</time>
      </trkpt>
      <trkpt lat="47.76245" lon="3.5058">
        <ele>205</ele>
        <time>2019-12-14T14:39:58Z</time>
      </trkpt>
      <trkpt lat="47.76245" lon="3.5058">
        <ele>205</ele>
        <time>2019-12-14T14:40:04Z</time>
      </trkpt>
      <trkpt lat="47.76245" lon="3.5058">
        <ele>205</ele>
        <time>2019-12-14T14:40:10Z</time>
      </trkpt>
      <trkpt lat="47.76245" lon="3.5058">
        <ele>205</ele>
        <time>2019-12-14T14:40:15Z</time>
      </trkpt>
      <trkpt lat="47.76245" lon="3.5058">
        <ele>205</ele>
        <time>2019-12-14T14:40:21Z</time>
      </trkpt>
      <trkpt lat="47.76245" lon="3.5058">
        <ele>205</ele>
        <time>2019-12-14T14:40:27Z</time>
      </trkpt>
      <trkpt lat="47.76245" lon="3.5058">
        <ele>205</ele>
        <time>2019-12-14T14:40:33Z</time>
      </trkpt>
      <trkpt lat="47.76245" lon="3.5058">
        <ele>205</ele>
        <time>2019-12-14T14:40:38Z</time>
      </trkpt>
      <trkpt lat="47.76245" lon="3.5058">
        <ele>205</ele>
        <time>2019-12-14T14:40:43Z</time>
      </trkpt>
      <trkpt lat="47.76245" lon="3.5058">
        <ele>205</ele>
        <time>2019-12-14T14:40:49Z</time>
      </trkpt>
      <trkpt lat="47.76245" lon="3.5058">
        <ele>205</ele>
        <time>2019-12-14T14:40:55Z</time>
      </trkpt>
      <trkpt lat="47.76245" lon="3.5058">
        <ele>205</ele>
        <time>2019-12-14T14:41:00Z</time>
      </trkpt>
      <trkpt lat="47.76245" lon="3.5058">
        <ele>205</ele>
        <time>2019-12-14T14:41:06Z</time>
      </trkpt>
      <trkpt lat="47.76245" lon="3.5058">
        <ele>205</ele>
        <time>2019-12-14T14:41:12Z</time>
      </trkpt>
      <trkpt lat="47.76245" lon="3.5058">
        <ele>205</ele>
        <time>2019-12-14T14:41:18Z</time>
      </trkpt>
      <trkpt lat="47.76245" lon="3.5058">
        <ele>205</ele>
        <time>2019-12-14T14:41:24Z</time>
      </trkpt>
      <trkpt lat="47.76245" lon="3.5058">
        <ele>205</ele>
        <time>2019-12-14T14:41:30Z</time>
      </trkpt>
      <trkpt lat="47.76245" lon="3.5058">
        <ele>205</ele>
        <time>2019-12-14T14:41:36Z</time>
      </trkpt>
      <trkpt lat="47.76245" lon="3.5058">
        <ele>205</ele>
        <time>2019-12-14T14:41:41Z</time>
      </trkpt>
      <trkpt lat="47.76245" lon="3.5058">
        <ele>205</ele>
        <time>2019-12-14T14:41:46Z</time>
      </trkpt>
      <trkpt lat="47.76245" lon="3.5058">
        <ele>205</ele>
        <time>2019-12-14T14:41:52Z</time>
      </trkpt>
      <trkpt lat="47.76245" lon="3.5058">
        <ele>205</ele>
        <time>2019-12-14T14:41:57Z</time>
      </trkpt>
      <trkpt lat="47.76245" lon="3.5058">
        <ele>205</ele>
        <time>2019-12-14T14:42:03Z</time>
      </trkpt>
      <trkpt lat="47.76245" lon="3.5058">
        <ele>205</ele>
        <time>2019-12-14T14:42:09Z</time>
      </trkpt>
      <trkpt lat="47.76245" lon="3.5058">
        <ele>205</ele>
        <time>2019-12-14T14:42:14Z</time>
      </trkpt>
      <trkpt lat="47.76245" lon="3.5058">
        <ele>205</ele>
        <time>2019-12-14T14:42:19Z</time>
      </trkpt>
      <trkpt lat="47.76245" lon="3.5058">
        <ele>205</ele>
        <time>2019-12-14T14:42:25Z</time>
      </trkpt>
      <trkpt lat="47.76245" lon="3.5058">
        <ele>205</ele>
        <time>2019-12-14T14:42:31Z</time>
      </trkpt>
      <trkpt lat="47.76245" lon="3.5058">
        <ele>205</ele>
        <time>2019-12-14T14:42:37Z</time>
      </trkpt>
      <trkpt lat="47.76245" lon="3.5058">
        <ele>205</ele>
        <time>2019-12-14T14:42:42Z</time>
      </trkpt>
      <trkpt lat="47.76245" lon="3.5058">
        <ele>205</ele>
        <time>2019-12-14T14:42:48Z</time>
      </trkpt>
      <trkpt lat="47.76245" lon="3.5058">
        <ele>205</ele>
        <time>2019-12-14T14:42:54Z</time>
      </trkpt>
      <trkpt lat="47.76245" lon="3.5058">
        <ele>205</ele>
        <time>2019-12-14T14:43:00Z</time>
      </trkpt>
      <trkpt lat="47.76245" lon="3.5058">
        <ele>205</ele>
        <time>2019-12-14T14:43:06Z</time>
      </trkpt>
      <trkpt lat="47.76245" lon="3.5058">
        <ele>205</ele>
        <time>2019-12-14T14:43:12Z</time>
      </trkpt>
      <trkpt lat="47.76245" lon="3.5058">
        <ele>205</ele>
        <time>2019-12-14T14:43:18Z</time>
      </trkpt>
      <trkpt lat="47.76245" lon="3.5058">
        <ele>205</ele>
        <time>2019-12-14T14:43:24Z</time>
      </trkpt>
      <trkpt lat="47.76245" lon="3.5058">
        <ele>205</ele>
        <time>2019-12-14T14:43:30Z</time>
      </trkpt>
      <trkpt lat="47.76245" lon="3.5058">
        <ele>205</ele>
        <time>2019-12-14T14:43:36Z</time>
      </trkpt>
      <trkpt lat="47.76245" lon="3.5058">
        <ele>205</ele>
        <time>2019-12-14T14:43:42Z</time>
      </trkpt>
      <trkpt lat="47.76245" lon="3.5058">
        <ele>205</ele>
        <time>2019-12-14T14:43:47Z</time>
      </trkpt>
      <trkpt lat="47.76245" lon="3.5058">
        <ele>205</ele>
        <time>2019-12-14T14:43:53Z</time>
      </trkpt>
      <trkpt lat="47.76245" lon="3.5058">
        <ele>205</ele>
        <time>2019-12-14T14:43:59Z</time>
      </trkpt>
      <trkpt lat="47.76245" lon="3.5058">
        <ele>205</ele>
        <time>2019-12-14T14:44:04Z</time>
      </trkpt>
      <trkpt lat="47.76245" lon="3.5058">
        <ele>205</ele>
        <time>2019-12-14T14:44:09Z</time>
      </trkpt>
      <trkpt lat="47.76245" lon="3.5058">
        <ele>205</ele>
        <time>2019-12-14T14:44:15Z</time>
      </trkpt>
      <trkpt lat="47.76245" lon="3.5058">
        <ele>205</ele>
        <time>2019-12-14T14:44:21Z</time>
      </trkpt>
    </trkseg>
  </trk>
</gpx>